<?xml version="1.0" encoding="UTF-8" standalone="no" ?>
<gpx xmlns="http://www.topografix.com/GPX/1/1" xmlns:xsi="http://www.w3.org/2001/XMLSchema-instance" xsi:schemaLocation="http://www.topografix.com/GPX/1/1 http://www.topografix.com/GPX/1/1/gpx.xsd" version="1.1" creator="VisuGPX - https://www.visugpx.com">
  <metadata>
    <name>géocaching du dolmen de cobardorat et St Clément de la serra</name>
    <desc><![CDATA[une petite ballade pour trouver 2 caches l une au dolmen et l autre a St Clément]]></desc>
  </metadata>
  <trk>
    <name><![CDATA[002-2013/07/15-14:06:02]]></name>
    <trkseg>
      <trkpt lat="42.5652" lon="2.38828">
        <ele>592</ele>
        <time>2013-07-15T12:06:02Z</time>
      </trkpt>
      <trkpt lat="42.56522" lon="2.38791">
        <ele>583</ele>
        <time>2013-07-15T12:06:24Z</time>
      </trkpt>
      <trkpt lat="42.56523" lon="2.38788">
        <ele>583</ele>
        <time>2013-07-15T12:06:26Z</time>
      </trkpt>
      <trkpt lat="42.56524" lon="2.38784">
        <ele>583</ele>
        <time>2013-07-15T12:06:28Z</time>
      </trkpt>
      <trkpt lat="42.56524" lon="2.3878">
        <ele>583</ele>
        <time>2013-07-15T12:06:30Z</time>
      </trkpt>
      <trkpt lat="42.56525" lon="2.38776">
        <ele>583</ele>
        <time>2013-07-15T12:06:32Z</time>
      </trkpt>
      <trkpt lat="42.56525" lon="2.38773">
        <ele>583</ele>
        <time>2013-07-15T12:06:34Z</time>
      </trkpt>
      <trkpt lat="42.56526" lon="2.38771">
        <ele>583</ele>
        <time>2013-07-15T12:06:36Z</time>
      </trkpt>
      <trkpt lat="42.56527" lon="2.38767">
        <ele>582</ele>
        <time>2013-07-15T12:06:39Z</time>
      </trkpt>
      <trkpt lat="42.56528" lon="2.38764">
        <ele>581</ele>
        <time>2013-07-15T12:06:41Z</time>
      </trkpt>
      <trkpt lat="42.56528" lon="2.3876">
        <ele>580</ele>
        <time>2013-07-15T12:06:43Z</time>
      </trkpt>
      <trkpt lat="42.56528" lon="2.38757">
        <ele>580</ele>
        <time>2013-07-15T12:06:45Z</time>
      </trkpt>
      <trkpt lat="42.56529" lon="2.38754">
        <ele>579</ele>
        <time>2013-07-15T12:06:47Z</time>
      </trkpt>
      <trkpt lat="42.56532" lon="2.3875">
        <ele>579</ele>
        <time>2013-07-15T12:06:50Z</time>
      </trkpt>
      <trkpt lat="42.56535" lon="2.38749">
        <ele>579</ele>
        <time>2013-07-15T12:06:53Z</time>
      </trkpt>
      <trkpt lat="42.56538" lon="2.38749">
        <ele>579</ele>
        <time>2013-07-15T12:06:55Z</time>
      </trkpt>
      <trkpt lat="42.56541" lon="2.38749">
        <ele>579</ele>
        <time>2013-07-15T12:06:57Z</time>
      </trkpt>
      <trkpt lat="42.56544" lon="2.38749">
        <ele>579</ele>
        <time>2013-07-15T12:06:59Z</time>
      </trkpt>
      <trkpt lat="42.56547" lon="2.38749">
        <ele>579</ele>
        <time>2013-07-15T12:07:01Z</time>
      </trkpt>
      <trkpt lat="42.56549" lon="2.3875">
        <ele>579</ele>
        <time>2013-07-15T12:07:03Z</time>
      </trkpt>
      <trkpt lat="42.56551" lon="2.3875">
        <ele>578</ele>
        <time>2013-07-15T12:07:05Z</time>
      </trkpt>
      <trkpt lat="42.56554" lon="2.38751">
        <ele>578</ele>
        <time>2013-07-15T12:07:07Z</time>
      </trkpt>
      <trkpt lat="42.56556" lon="2.38752">
        <ele>577</ele>
        <time>2013-07-15T12:07:09Z</time>
      </trkpt>
      <trkpt lat="42.56559" lon="2.38753">
        <ele>577</ele>
        <time>2013-07-15T12:07:11Z</time>
      </trkpt>
      <trkpt lat="42.56561" lon="2.38754">
        <ele>577</ele>
        <time>2013-07-15T12:07:13Z</time>
      </trkpt>
      <trkpt lat="42.56564" lon="2.38754">
        <ele>577</ele>
        <time>2013-07-15T12:07:15Z</time>
      </trkpt>
      <trkpt lat="42.56567" lon="2.38755">
        <ele>577</ele>
        <time>2013-07-15T12:07:17Z</time>
      </trkpt>
      <trkpt lat="42.5657" lon="2.38757">
        <ele>577</ele>
        <time>2013-07-15T12:07:20Z</time>
      </trkpt>
      <trkpt lat="42.56572" lon="2.38757">
        <ele>577</ele>
        <time>2013-07-15T12:07:22Z</time>
      </trkpt>
      <trkpt lat="42.56576" lon="2.38758">
        <ele>577</ele>
        <time>2013-07-15T12:07:24Z</time>
      </trkpt>
      <trkpt lat="42.56578" lon="2.3876">
        <ele>577</ele>
        <time>2013-07-15T12:07:26Z</time>
      </trkpt>
      <trkpt lat="42.56581" lon="2.38761">
        <ele>577</ele>
        <time>2013-07-15T12:07:28Z</time>
      </trkpt>
      <trkpt lat="42.56584" lon="2.38763">
        <ele>577</ele>
        <time>2013-07-15T12:07:31Z</time>
      </trkpt>
      <trkpt lat="42.56587" lon="2.38764">
        <ele>577</ele>
        <time>2013-07-15T12:07:33Z</time>
      </trkpt>
      <trkpt lat="42.56589" lon="2.38765">
        <ele>577</ele>
        <time>2013-07-15T12:07:35Z</time>
      </trkpt>
      <trkpt lat="42.56593" lon="2.38765">
        <ele>577</ele>
        <time>2013-07-15T12:07:38Z</time>
      </trkpt>
      <trkpt lat="42.56596" lon="2.38764">
        <ele>577</ele>
        <time>2013-07-15T12:07:40Z</time>
      </trkpt>
      <trkpt lat="42.56599" lon="2.38764">
        <ele>577</ele>
        <time>2013-07-15T12:07:42Z</time>
      </trkpt>
      <trkpt lat="42.56602" lon="2.38761">
        <ele>576</ele>
        <time>2013-07-15T12:07:45Z</time>
      </trkpt>
      <trkpt lat="42.56604" lon="2.38757">
        <ele>575</ele>
        <time>2013-07-15T12:07:48Z</time>
      </trkpt>
      <trkpt lat="42.56606" lon="2.38755">
        <ele>575</ele>
        <time>2013-07-15T12:07:50Z</time>
      </trkpt>
      <trkpt lat="42.56609" lon="2.38752">
        <ele>575</ele>
        <time>2013-07-15T12:07:52Z</time>
      </trkpt>
      <trkpt lat="42.56611" lon="2.3875">
        <ele>575</ele>
        <time>2013-07-15T12:07:54Z</time>
      </trkpt>
      <trkpt lat="42.56612" lon="2.38747">
        <ele>575</ele>
        <time>2013-07-15T12:07:56Z</time>
      </trkpt>
      <trkpt lat="42.56613" lon="2.38744">
        <ele>575</ele>
        <time>2013-07-15T12:07:58Z</time>
      </trkpt>
      <trkpt lat="42.56614" lon="2.38741">
        <ele>575</ele>
        <time>2013-07-15T12:08:00Z</time>
      </trkpt>
      <trkpt lat="42.56616" lon="2.38738">
        <ele>575</ele>
        <time>2013-07-15T12:08:02Z</time>
      </trkpt>
      <trkpt lat="42.56617" lon="2.38735">
        <ele>575</ele>
        <time>2013-07-15T12:08:04Z</time>
      </trkpt>
      <trkpt lat="42.56618" lon="2.38732">
        <ele>575</ele>
        <time>2013-07-15T12:08:06Z</time>
      </trkpt>
      <trkpt lat="42.5662" lon="2.38727">
        <ele>575</ele>
        <time>2013-07-15T12:08:09Z</time>
      </trkpt>
      <trkpt lat="42.56621" lon="2.38724">
        <ele>575</ele>
        <time>2013-07-15T12:08:11Z</time>
      </trkpt>
      <trkpt lat="42.56621" lon="2.38721">
        <ele>575</ele>
        <time>2013-07-15T12:08:13Z</time>
      </trkpt>
      <trkpt lat="42.56621" lon="2.38717">
        <ele>575</ele>
        <time>2013-07-15T12:08:15Z</time>
      </trkpt>
      <trkpt lat="42.56622" lon="2.38714">
        <ele>575</ele>
        <time>2013-07-15T12:08:17Z</time>
      </trkpt>
      <trkpt lat="42.56622" lon="2.3871">
        <ele>575</ele>
        <time>2013-07-15T12:08:19Z</time>
      </trkpt>
      <trkpt lat="42.56623" lon="2.38706">
        <ele>575</ele>
        <time>2013-07-15T12:08:21Z</time>
      </trkpt>
      <trkpt lat="42.56623" lon="2.38703">
        <ele>575</ele>
        <time>2013-07-15T12:08:23Z</time>
      </trkpt>
      <trkpt lat="42.56622" lon="2.387">
        <ele>575</ele>
        <time>2013-07-15T12:08:25Z</time>
      </trkpt>
      <trkpt lat="42.56622" lon="2.38696">
        <ele>575</ele>
        <time>2013-07-15T12:08:27Z</time>
      </trkpt>
      <trkpt lat="42.56622" lon="2.38692">
        <ele>575</ele>
        <time>2013-07-15T12:08:29Z</time>
      </trkpt>
      <trkpt lat="42.56621" lon="2.38687">
        <ele>574</ele>
        <time>2013-07-15T12:08:32Z</time>
      </trkpt>
      <trkpt lat="42.56621" lon="2.38684">
        <ele>574</ele>
        <time>2013-07-15T12:08:34Z</time>
      </trkpt>
      <trkpt lat="42.56621" lon="2.3868">
        <ele>574</ele>
        <time>2013-07-15T12:08:36Z</time>
      </trkpt>
      <trkpt lat="42.56621" lon="2.38676">
        <ele>574</ele>
        <time>2013-07-15T12:08:39Z</time>
      </trkpt>
      <trkpt lat="42.56619" lon="2.38672">
        <ele>574</ele>
        <time>2013-07-15T12:08:44Z</time>
      </trkpt>
      <trkpt lat="42.56619" lon="2.38665">
        <ele>574</ele>
        <time>2013-07-15T12:08:47Z</time>
      </trkpt>
      <trkpt lat="42.56619" lon="2.3866">
        <ele>574</ele>
        <time>2013-07-15T12:08:50Z</time>
      </trkpt>
      <trkpt lat="42.56618" lon="2.38651">
        <ele>574</ele>
        <time>2013-07-15T12:08:53Z</time>
      </trkpt>
      <trkpt lat="42.56616" lon="2.38641">
        <ele>574</ele>
        <time>2013-07-15T12:08:58Z</time>
      </trkpt>
      <trkpt lat="42.56616" lon="2.38633">
        <ele>574</ele>
        <time>2013-07-15T12:09:02Z</time>
      </trkpt>
      <trkpt lat="42.56615" lon="2.38628">
        <ele>573</ele>
        <time>2013-07-15T12:09:06Z</time>
      </trkpt>
      <trkpt lat="42.56615" lon="2.38618">
        <ele>573</ele>
        <time>2013-07-15T12:09:10Z</time>
      </trkpt>
      <trkpt lat="42.56614" lon="2.38611">
        <ele>573</ele>
        <time>2013-07-15T12:09:14Z</time>
      </trkpt>
      <trkpt lat="42.56614" lon="2.38603">
        <ele>572</ele>
        <time>2013-07-15T12:09:18Z</time>
      </trkpt>
      <trkpt lat="42.56613" lon="2.38594">
        <ele>572</ele>
        <time>2013-07-15T12:09:23Z</time>
      </trkpt>
      <trkpt lat="42.56613" lon="2.38588">
        <ele>572</ele>
        <time>2013-07-15T12:09:27Z</time>
      </trkpt>
      <trkpt lat="42.56612" lon="2.38578">
        <ele>572</ele>
        <time>2013-07-15T12:09:31Z</time>
      </trkpt>
      <trkpt lat="42.56612" lon="2.3857">
        <ele>572</ele>
        <time>2013-07-15T12:09:35Z</time>
      </trkpt>
      <trkpt lat="42.56613" lon="2.38562">
        <ele>572</ele>
        <time>2013-07-15T12:09:40Z</time>
      </trkpt>
      <trkpt lat="42.56613" lon="2.38553">
        <ele>572</ele>
        <time>2013-07-15T12:09:44Z</time>
      </trkpt>
      <trkpt lat="42.56615" lon="2.38543">
        <ele>572</ele>
        <time>2013-07-15T12:09:49Z</time>
      </trkpt>
      <trkpt lat="42.56615" lon="2.38538">
        <ele>572</ele>
        <time>2013-07-15T12:09:53Z</time>
      </trkpt>
      <trkpt lat="42.56615" lon="2.38529">
        <ele>572</ele>
        <time>2013-07-15T12:09:57Z</time>
      </trkpt>
      <trkpt lat="42.56616" lon="2.38521">
        <ele>572</ele>
        <time>2013-07-15T12:10:02Z</time>
      </trkpt>
      <trkpt lat="42.56616" lon="2.38516">
        <ele>571</ele>
        <time>2013-07-15T12:10:08Z</time>
      </trkpt>
      <trkpt lat="42.56616" lon="2.38512">
        <ele>571</ele>
        <time>2013-07-15T12:10:14Z</time>
      </trkpt>
      <trkpt lat="42.56616" lon="2.385">
        <ele>571</ele>
        <time>2013-07-15T12:10:19Z</time>
      </trkpt>
      <trkpt lat="42.56616" lon="2.38494">
        <ele>571</ele>
        <time>2013-07-15T12:10:23Z</time>
      </trkpt>
      <trkpt lat="42.56617" lon="2.38482">
        <ele>571</ele>
        <time>2013-07-15T12:10:28Z</time>
      </trkpt>
      <trkpt lat="42.56618" lon="2.38477">
        <ele>571</ele>
        <time>2013-07-15T12:10:32Z</time>
      </trkpt>
      <trkpt lat="42.5662" lon="2.38468">
        <ele>571</ele>
        <time>2013-07-15T12:10:37Z</time>
      </trkpt>
      <trkpt lat="42.5662" lon="2.3846">
        <ele>571</ele>
        <time>2013-07-15T12:10:41Z</time>
      </trkpt>
      <trkpt lat="42.5662" lon="2.38455">
        <ele>571</ele>
        <time>2013-07-15T12:10:44Z</time>
      </trkpt>
      <trkpt lat="42.5662" lon="2.38451">
        <ele>571</ele>
        <time>2013-07-15T12:10:47Z</time>
      </trkpt>
      <trkpt lat="42.56621" lon="2.38442">
        <ele>571</ele>
        <time>2013-07-15T12:10:52Z</time>
      </trkpt>
      <trkpt lat="42.56623" lon="2.38431">
        <ele>570</ele>
        <time>2013-07-15T12:10:57Z</time>
      </trkpt>
      <trkpt lat="42.56623" lon="2.38426">
        <ele>570</ele>
        <time>2013-07-15T12:11:01Z</time>
      </trkpt>
      <trkpt lat="42.56624" lon="2.38417">
        <ele>569</ele>
        <time>2013-07-15T12:11:06Z</time>
      </trkpt>
      <trkpt lat="42.56625" lon="2.38409">
        <ele>569</ele>
        <time>2013-07-15T12:11:11Z</time>
      </trkpt>
      <trkpt lat="42.56626" lon="2.38398">
        <ele>568</ele>
        <time>2013-07-15T12:11:16Z</time>
      </trkpt>
      <trkpt lat="42.56626" lon="2.38393">
        <ele>568</ele>
        <time>2013-07-15T12:11:20Z</time>
      </trkpt>
      <trkpt lat="42.56628" lon="2.38384">
        <ele>567</ele>
        <time>2013-07-15T12:11:25Z</time>
      </trkpt>
      <trkpt lat="42.56631" lon="2.38375">
        <ele>567</ele>
        <time>2013-07-15T12:11:30Z</time>
      </trkpt>
      <trkpt lat="42.56634" lon="2.38366">
        <ele>567</ele>
        <time>2013-07-15T12:11:35Z</time>
      </trkpt>
      <trkpt lat="42.56635" lon="2.38359">
        <ele>566</ele>
        <time>2013-07-15T12:11:40Z</time>
      </trkpt>
      <trkpt lat="42.56638" lon="2.38352">
        <ele>565</ele>
        <time>2013-07-15T12:11:43Z</time>
      </trkpt>
      <trkpt lat="42.56639" lon="2.38349">
        <ele>565</ele>
        <time>2013-07-15T12:11:46Z</time>
      </trkpt>
      <trkpt lat="42.56642" lon="2.38341">
        <ele>564</ele>
        <time>2013-07-15T12:11:51Z</time>
      </trkpt>
      <trkpt lat="42.56644" lon="2.38334">
        <ele>564</ele>
        <time>2013-07-15T12:11:54Z</time>
      </trkpt>
      <trkpt lat="42.56645" lon="2.3833">
        <ele>564</ele>
        <time>2013-07-15T12:11:57Z</time>
      </trkpt>
      <trkpt lat="42.56646" lon="2.3832">
        <ele>564</ele>
        <time>2013-07-15T12:12:02Z</time>
      </trkpt>
      <trkpt lat="42.56649" lon="2.38311">
        <ele>564</ele>
        <time>2013-07-15T12:12:06Z</time>
      </trkpt>
      <trkpt lat="42.56651" lon="2.38305">
        <ele>564</ele>
        <time>2013-07-15T12:12:10Z</time>
      </trkpt>
      <trkpt lat="42.56652" lon="2.38298">
        <ele>564</ele>
        <time>2013-07-15T12:12:14Z</time>
      </trkpt>
      <trkpt lat="42.56654" lon="2.38291">
        <ele>564</ele>
        <time>2013-07-15T12:12:18Z</time>
      </trkpt>
      <trkpt lat="42.56655" lon="2.38285">
        <ele>564</ele>
        <time>2013-07-15T12:12:21Z</time>
      </trkpt>
      <trkpt lat="42.56655" lon="2.38282">
        <ele>564</ele>
        <time>2013-07-15T12:12:24Z</time>
      </trkpt>
      <trkpt lat="42.56657" lon="2.38276">
        <ele>564</ele>
        <time>2013-07-15T12:12:27Z</time>
      </trkpt>
      <trkpt lat="42.56658" lon="2.38273">
        <ele>564</ele>
        <time>2013-07-15T12:12:29Z</time>
      </trkpt>
      <trkpt lat="42.56657" lon="2.3827">
        <ele>564</ele>
        <time>2013-07-15T12:12:35Z</time>
      </trkpt>
      <trkpt lat="42.56659" lon="2.38268">
        <ele>564</ele>
        <time>2013-07-15T12:12:41Z</time>
      </trkpt>
      <trkpt lat="42.56661" lon="2.3826">
        <ele>564</ele>
        <time>2013-07-15T12:12:46Z</time>
      </trkpt>
      <trkpt lat="42.56661" lon="2.38257">
        <ele>564</ele>
        <time>2013-07-15T12:12:48Z</time>
      </trkpt>
      <trkpt lat="42.56662" lon="2.38254">
        <ele>564</ele>
        <time>2013-07-15T12:12:50Z</time>
      </trkpt>
      <trkpt lat="42.56664" lon="2.38247">
        <ele>562</ele>
        <time>2013-07-15T12:12:54Z</time>
      </trkpt>
      <trkpt lat="42.56666" lon="2.38242">
        <ele>560</ele>
        <time>2013-07-15T12:12:57Z</time>
      </trkpt>
      <trkpt lat="42.56667" lon="2.38237">
        <ele>559</ele>
        <time>2013-07-15T12:13:01Z</time>
      </trkpt>
      <trkpt lat="42.56671" lon="2.38229">
        <ele>558</ele>
        <time>2013-07-15T12:13:05Z</time>
      </trkpt>
      <trkpt lat="42.56672" lon="2.38224">
        <ele>558</ele>
        <time>2013-07-15T12:13:08Z</time>
      </trkpt>
      <trkpt lat="42.56673" lon="2.38219">
        <ele>558</ele>
        <time>2013-07-15T12:13:12Z</time>
      </trkpt>
      <trkpt lat="42.56675" lon="2.38212">
        <ele>558</ele>
        <time>2013-07-15T12:13:15Z</time>
      </trkpt>
      <trkpt lat="42.56675" lon="2.38209">
        <ele>557</ele>
        <time>2013-07-15T12:13:17Z</time>
      </trkpt>
      <trkpt lat="42.56676" lon="2.38203">
        <ele>557</ele>
        <time>2013-07-15T12:13:20Z</time>
      </trkpt>
      <trkpt lat="42.56676" lon="2.38199">
        <ele>556</ele>
        <time>2013-07-15T12:13:22Z</time>
      </trkpt>
      <trkpt lat="42.56675" lon="2.38193">
        <ele>556</ele>
        <time>2013-07-15T12:13:26Z</time>
      </trkpt>
      <trkpt lat="42.56674" lon="2.38184">
        <ele>556</ele>
        <time>2013-07-15T12:13:30Z</time>
      </trkpt>
      <trkpt lat="42.56673" lon="2.38176">
        <ele>556</ele>
        <time>2013-07-15T12:13:34Z</time>
      </trkpt>
      <trkpt lat="42.56672" lon="2.38168">
        <ele>556</ele>
        <time>2013-07-15T12:13:38Z</time>
      </trkpt>
      <trkpt lat="42.56673" lon="2.3816">
        <ele>556</ele>
        <time>2013-07-15T12:13:42Z</time>
      </trkpt>
      <trkpt lat="42.56674" lon="2.38152">
        <ele>556</ele>
        <time>2013-07-15T12:13:46Z</time>
      </trkpt>
      <trkpt lat="42.56675" lon="2.38143">
        <ele>556</ele>
        <time>2013-07-15T12:13:51Z</time>
      </trkpt>
      <trkpt lat="42.56676" lon="2.3814">
        <ele>556</ele>
        <time>2013-07-15T12:13:53Z</time>
      </trkpt>
      <trkpt lat="42.56677" lon="2.38137">
        <ele>556</ele>
        <time>2013-07-15T12:13:55Z</time>
      </trkpt>
      <trkpt lat="42.5668" lon="2.38131">
        <ele>556</ele>
        <time>2013-07-15T12:13:59Z</time>
      </trkpt>
      <trkpt lat="42.56684" lon="2.38124">
        <ele>556</ele>
        <time>2013-07-15T12:14:04Z</time>
      </trkpt>
      <trkpt lat="42.56687" lon="2.38123">
        <ele>556</ele>
        <time>2013-07-15T12:14:06Z</time>
      </trkpt>
      <trkpt lat="42.56688" lon="2.38116">
        <ele>556</ele>
        <time>2013-07-15T12:14:11Z</time>
      </trkpt>
      <trkpt lat="42.56684" lon="2.38109">
        <ele>556</ele>
        <time>2013-07-15T12:14:14Z</time>
      </trkpt>
      <trkpt lat="42.56681" lon="2.38104">
        <ele>556</ele>
        <time>2013-07-15T12:14:17Z</time>
      </trkpt>
      <trkpt lat="42.56678" lon="2.38097">
        <ele>556</ele>
        <time>2013-07-15T12:14:21Z</time>
      </trkpt>
      <trkpt lat="42.56678" lon="2.38093">
        <ele>556</ele>
        <time>2013-07-15T12:14:24Z</time>
      </trkpt>
      <trkpt lat="42.56678" lon="2.38083">
        <ele>556</ele>
        <time>2013-07-15T12:14:29Z</time>
      </trkpt>
      <trkpt lat="42.56678" lon="2.38077">
        <ele>554</ele>
        <time>2013-07-15T12:14:33Z</time>
      </trkpt>
      <trkpt lat="42.56677" lon="2.3807">
        <ele>553</ele>
        <time>2013-07-15T12:14:36Z</time>
      </trkpt>
      <trkpt lat="42.56676" lon="2.38064">
        <ele>552</ele>
        <time>2013-07-15T12:14:39Z</time>
      </trkpt>
      <trkpt lat="42.56672" lon="2.38056">
        <ele>552</ele>
        <time>2013-07-15T12:14:44Z</time>
      </trkpt>
      <trkpt lat="42.5667" lon="2.38048">
        <ele>550</ele>
        <time>2013-07-15T12:14:49Z</time>
      </trkpt>
      <trkpt lat="42.56668" lon="2.38043">
        <ele>548</ele>
        <time>2013-07-15T12:14:53Z</time>
      </trkpt>
      <trkpt lat="42.56667" lon="2.38039">
        <ele>547</ele>
        <time>2013-07-15T12:14:55Z</time>
      </trkpt>
      <trkpt lat="42.56665" lon="2.38035">
        <ele>547</ele>
        <time>2013-07-15T12:14:58Z</time>
      </trkpt>
      <trkpt lat="42.56663" lon="2.38031">
        <ele>547</ele>
        <time>2013-07-15T12:15:01Z</time>
      </trkpt>
      <trkpt lat="42.56662" lon="2.38028">
        <ele>547</ele>
        <time>2013-07-15T12:15:05Z</time>
      </trkpt>
      <trkpt lat="42.56659" lon="2.3802">
        <ele>546</ele>
        <time>2013-07-15T12:15:09Z</time>
      </trkpt>
      <trkpt lat="42.56656" lon="2.38016">
        <ele>543</ele>
        <time>2013-07-15T12:15:12Z</time>
      </trkpt>
      <trkpt lat="42.56653" lon="2.38012">
        <ele>541</ele>
        <time>2013-07-15T12:15:16Z</time>
      </trkpt>
      <trkpt lat="42.56648" lon="2.38005">
        <ele>538</ele>
        <time>2013-07-15T12:15:21Z</time>
      </trkpt>
      <trkpt lat="42.56642" lon="2.37999">
        <ele>535</ele>
        <time>2013-07-15T12:15:25Z</time>
      </trkpt>
      <trkpt lat="42.56639" lon="2.37993">
        <ele>534</ele>
        <time>2013-07-15T12:15:30Z</time>
      </trkpt>
      <trkpt lat="42.56638" lon="2.37985">
        <ele>534</ele>
        <time>2013-07-15T12:15:34Z</time>
      </trkpt>
      <trkpt lat="42.56638" lon="2.37979">
        <ele>534</ele>
        <time>2013-07-15T12:15:37Z</time>
      </trkpt>
      <trkpt lat="42.56639" lon="2.37974">
        <ele>534</ele>
        <time>2013-07-15T12:15:40Z</time>
      </trkpt>
      <trkpt lat="42.5664" lon="2.3797">
        <ele>534</ele>
        <time>2013-07-15T12:15:44Z</time>
      </trkpt>
      <trkpt lat="42.56641" lon="2.37963">
        <ele>534</ele>
        <time>2013-07-15T12:15:47Z</time>
      </trkpt>
      <trkpt lat="42.56643" lon="2.37958">
        <ele>534</ele>
        <time>2013-07-15T12:15:50Z</time>
      </trkpt>
      <trkpt lat="42.56643" lon="2.37956">
        <ele>534</ele>
        <time>2013-07-15T12:15:52Z</time>
      </trkpt>
      <trkpt lat="42.56644" lon="2.37951">
        <ele>534</ele>
        <time>2013-07-15T12:15:57Z</time>
      </trkpt>
      <trkpt lat="42.56643" lon="2.37944">
        <ele>534</ele>
        <time>2013-07-15T12:15:59Z</time>
      </trkpt>
      <trkpt lat="42.56644" lon="2.37939">
        <ele>535</ele>
        <time>2013-07-15T12:16:03Z</time>
      </trkpt>
      <trkpt lat="42.56646" lon="2.37934">
        <ele>536</ele>
        <time>2013-07-15T12:16:05Z</time>
      </trkpt>
      <trkpt lat="42.56648" lon="2.3793">
        <ele>537</ele>
        <time>2013-07-15T12:16:09Z</time>
      </trkpt>
      <trkpt lat="42.56651" lon="2.37921">
        <ele>537</ele>
        <time>2013-07-15T12:16:13Z</time>
      </trkpt>
      <trkpt lat="42.56652" lon="2.37915">
        <ele>538</ele>
        <time>2013-07-15T12:16:16Z</time>
      </trkpt>
      <trkpt lat="42.56653" lon="2.37911">
        <ele>538</ele>
        <time>2013-07-15T12:16:20Z</time>
      </trkpt>
      <trkpt lat="42.56655" lon="2.37902">
        <ele>538</ele>
        <time>2013-07-15T12:16:24Z</time>
      </trkpt>
      <trkpt lat="42.56657" lon="2.37897">
        <ele>538</ele>
        <time>2013-07-15T12:16:26Z</time>
      </trkpt>
      <trkpt lat="42.56656" lon="2.37891">
        <ele>538</ele>
        <time>2013-07-15T12:16:30Z</time>
      </trkpt>
      <trkpt lat="42.56658" lon="2.37883">
        <ele>538</ele>
        <time>2013-07-15T12:16:35Z</time>
      </trkpt>
      <trkpt lat="42.56661" lon="2.37878">
        <ele>538</ele>
        <time>2013-07-15T12:16:38Z</time>
      </trkpt>
      <trkpt lat="42.56664" lon="2.37874">
        <ele>538</ele>
        <time>2013-07-15T12:16:42Z</time>
      </trkpt>
      <trkpt lat="42.5667" lon="2.3787">
        <ele>538</ele>
        <time>2013-07-15T12:16:47Z</time>
      </trkpt>
      <trkpt lat="42.56675" lon="2.37867">
        <ele>538</ele>
        <time>2013-07-15T12:16:51Z</time>
      </trkpt>
      <trkpt lat="42.56679" lon="2.37866">
        <ele>538</ele>
        <time>2013-07-15T12:16:54Z</time>
      </trkpt>
      <trkpt lat="42.56685" lon="2.37864">
        <ele>538</ele>
        <time>2013-07-15T12:16:59Z</time>
      </trkpt>
      <trkpt lat="42.56689" lon="2.37864">
        <ele>538</ele>
        <time>2013-07-15T12:17:03Z</time>
      </trkpt>
      <trkpt lat="42.56694" lon="2.37861">
        <ele>537</ele>
        <time>2013-07-15T12:17:08Z</time>
      </trkpt>
      <trkpt lat="42.56701" lon="2.37859">
        <ele>536</ele>
        <time>2013-07-15T12:17:13Z</time>
      </trkpt>
      <trkpt lat="42.56707" lon="2.37857">
        <ele>536</ele>
        <time>2013-07-15T12:17:18Z</time>
      </trkpt>
      <trkpt lat="42.56714" lon="2.37854">
        <ele>534</ele>
        <time>2013-07-15T12:17:23Z</time>
      </trkpt>
      <trkpt lat="42.5672" lon="2.37851">
        <ele>533</ele>
        <time>2013-07-15T12:17:28Z</time>
      </trkpt>
      <trkpt lat="42.56725" lon="2.37849">
        <ele>533</ele>
        <time>2013-07-15T12:17:31Z</time>
      </trkpt>
      <trkpt lat="42.56727" lon="2.37848">
        <ele>532</ele>
        <time>2013-07-15T12:17:34Z</time>
      </trkpt>
      <trkpt lat="42.56732" lon="2.37845">
        <ele>532</ele>
        <time>2013-07-15T12:17:37Z</time>
      </trkpt>
      <trkpt lat="42.56733" lon="2.37844">
        <ele>531</ele>
        <time>2013-07-15T12:17:42Z</time>
      </trkpt>
      <trkpt lat="42.56732" lon="2.37841">
        <ele>530</ele>
        <time>2013-07-15T12:17:48Z</time>
      </trkpt>
      <trkpt lat="42.56732" lon="2.37838">
        <ele>530</ele>
        <time>2013-07-15T12:17:55Z</time>
      </trkpt>
      <trkpt lat="42.56734" lon="2.37832">
        <ele>530</ele>
        <time>2013-07-15T12:17:58Z</time>
      </trkpt>
      <trkpt lat="42.56736" lon="2.37831">
        <ele>530</ele>
        <time>2013-07-15T12:18:02Z</time>
      </trkpt>
      <trkpt lat="42.56743" lon="2.3783">
        <ele>530</ele>
        <time>2013-07-15T12:18:06Z</time>
      </trkpt>
      <trkpt lat="42.56747" lon="2.3783">
        <ele>530</ele>
        <time>2013-07-15T12:18:08Z</time>
      </trkpt>
      <trkpt lat="42.56752" lon="2.37829">
        <ele>530</ele>
        <time>2013-07-15T12:18:13Z</time>
      </trkpt>
      <trkpt lat="42.56758" lon="2.3783">
        <ele>530</ele>
        <time>2013-07-15T12:18:18Z</time>
      </trkpt>
      <trkpt lat="42.56765" lon="2.37832">
        <ele>529</ele>
        <time>2013-07-15T12:18:23Z</time>
      </trkpt>
      <trkpt lat="42.56772" lon="2.37835">
        <ele>528</ele>
        <time>2013-07-15T12:18:28Z</time>
      </trkpt>
      <trkpt lat="42.56778" lon="2.37839">
        <ele>527</ele>
        <time>2013-07-15T12:18:34Z</time>
      </trkpt>
      <trkpt lat="42.56782" lon="2.37838">
        <ele>527</ele>
        <time>2013-07-15T12:18:36Z</time>
      </trkpt>
      <trkpt lat="42.56786" lon="2.37836">
        <ele>526</ele>
        <time>2013-07-15T12:18:39Z</time>
      </trkpt>
      <trkpt lat="42.5679" lon="2.37834">
        <ele>525</ele>
        <time>2013-07-15T12:18:42Z</time>
      </trkpt>
      <trkpt lat="42.56793" lon="2.3783">
        <ele>524</ele>
        <time>2013-07-15T12:18:45Z</time>
      </trkpt>
      <trkpt lat="42.56794" lon="2.37827">
        <ele>524</ele>
        <time>2013-07-15T12:18:47Z</time>
      </trkpt>
      <trkpt lat="42.56797" lon="2.37822">
        <ele>524</ele>
        <time>2013-07-15T12:18:51Z</time>
      </trkpt>
      <trkpt lat="42.568" lon="2.37818">
        <ele>524</ele>
        <time>2013-07-15T12:18:54Z</time>
      </trkpt>
      <trkpt lat="42.56803" lon="2.37812">
        <ele>524</ele>
        <time>2013-07-15T12:18:58Z</time>
      </trkpt>
      <trkpt lat="42.56806" lon="2.37806">
        <ele>523</ele>
        <time>2013-07-15T12:19:02Z</time>
      </trkpt>
      <trkpt lat="42.56808" lon="2.378">
        <ele>523</ele>
        <time>2013-07-15T12:19:06Z</time>
      </trkpt>
      <trkpt lat="42.56811" lon="2.37795">
        <ele>522</ele>
        <time>2013-07-15T12:19:11Z</time>
      </trkpt>
      <trkpt lat="42.56812" lon="2.3779">
        <ele>522</ele>
        <time>2013-07-15T12:19:13Z</time>
      </trkpt>
      <trkpt lat="42.56813" lon="2.37785">
        <ele>521</ele>
        <time>2013-07-15T12:19:16Z</time>
      </trkpt>
      <trkpt lat="42.56815" lon="2.37778">
        <ele>521</ele>
        <time>2013-07-15T12:19:20Z</time>
      </trkpt>
      <trkpt lat="42.56818" lon="2.37772">
        <ele>520</ele>
        <time>2013-07-15T12:19:24Z</time>
      </trkpt>
      <trkpt lat="42.56821" lon="2.37766">
        <ele>520</ele>
        <time>2013-07-15T12:19:28Z</time>
      </trkpt>
      <trkpt lat="42.56822" lon="2.37763">
        <ele>520</ele>
        <time>2013-07-15T12:19:30Z</time>
      </trkpt>
      <trkpt lat="42.56824" lon="2.3776">
        <ele>520</ele>
        <time>2013-07-15T12:19:32Z</time>
      </trkpt>
      <trkpt lat="42.56826" lon="2.37756">
        <ele>520</ele>
        <time>2013-07-15T12:19:35Z</time>
      </trkpt>
      <trkpt lat="42.56827" lon="2.37753">
        <ele>520</ele>
        <time>2013-07-15T12:19:38Z</time>
      </trkpt>
      <trkpt lat="42.5683" lon="2.37747">
        <ele>519</ele>
        <time>2013-07-15T12:19:41Z</time>
      </trkpt>
      <trkpt lat="42.56832" lon="2.37742">
        <ele>519</ele>
        <time>2013-07-15T12:19:44Z</time>
      </trkpt>
      <trkpt lat="42.56834" lon="2.37737">
        <ele>519</ele>
        <time>2013-07-15T12:19:47Z</time>
      </trkpt>
      <trkpt lat="42.56836" lon="2.37733">
        <ele>519</ele>
        <time>2013-07-15T12:19:50Z</time>
      </trkpt>
      <trkpt lat="42.5684" lon="2.37727">
        <ele>518</ele>
        <time>2013-07-15T12:19:54Z</time>
      </trkpt>
      <trkpt lat="42.56843" lon="2.37721">
        <ele>518</ele>
        <time>2013-07-15T12:19:58Z</time>
      </trkpt>
      <trkpt lat="42.56845" lon="2.37718">
        <ele>518</ele>
        <time>2013-07-15T12:20:00Z</time>
      </trkpt>
      <trkpt lat="42.56846" lon="2.37715">
        <ele>517</ele>
        <time>2013-07-15T12:20:02Z</time>
      </trkpt>
      <trkpt lat="42.56849" lon="2.3771">
        <ele>517</ele>
        <time>2013-07-15T12:20:06Z</time>
      </trkpt>
      <trkpt lat="42.56852" lon="2.37705">
        <ele>516</ele>
        <time>2013-07-15T12:20:10Z</time>
      </trkpt>
      <trkpt lat="42.56856" lon="2.377">
        <ele>515</ele>
        <time>2013-07-15T12:20:14Z</time>
      </trkpt>
      <trkpt lat="42.56859" lon="2.37693">
        <ele>515</ele>
        <time>2013-07-15T12:20:19Z</time>
      </trkpt>
      <trkpt lat="42.56862" lon="2.37684">
        <ele>514</ele>
        <time>2013-07-15T12:20:25Z</time>
      </trkpt>
      <trkpt lat="42.56863" lon="2.37681">
        <ele>513</ele>
        <time>2013-07-15T12:20:27Z</time>
      </trkpt>
      <trkpt lat="42.56865" lon="2.37678">
        <ele>512</ele>
        <time>2013-07-15T12:20:30Z</time>
      </trkpt>
      <trkpt lat="42.5687" lon="2.37668">
        <ele>511</ele>
        <time>2013-07-15T12:20:34Z</time>
      </trkpt>
      <trkpt lat="42.56874" lon="2.37665">
        <ele>510</ele>
        <time>2013-07-15T12:20:38Z</time>
      </trkpt>
      <trkpt lat="42.56876" lon="2.37663">
        <ele>510</ele>
        <time>2013-07-15T12:20:41Z</time>
      </trkpt>
      <trkpt lat="42.56882" lon="2.3766">
        <ele>510</ele>
        <time>2013-07-15T12:20:44Z</time>
      </trkpt>
      <trkpt lat="42.56886" lon="2.37658">
        <ele>510</ele>
        <time>2013-07-15T12:20:48Z</time>
      </trkpt>
      <trkpt lat="42.56892" lon="2.37654">
        <ele>509</ele>
        <time>2013-07-15T12:20:52Z</time>
      </trkpt>
      <trkpt lat="42.56896" lon="2.3765">
        <ele>509</ele>
        <time>2013-07-15T12:20:56Z</time>
      </trkpt>
      <trkpt lat="42.56901" lon="2.37646">
        <ele>509</ele>
        <time>2013-07-15T12:21:00Z</time>
      </trkpt>
      <trkpt lat="42.56906" lon="2.37642">
        <ele>509</ele>
        <time>2013-07-15T12:21:04Z</time>
      </trkpt>
      <trkpt lat="42.56911" lon="2.3764">
        <ele>509</ele>
        <time>2013-07-15T12:21:08Z</time>
      </trkpt>
      <trkpt lat="42.56916" lon="2.37638">
        <ele>509</ele>
        <time>2013-07-15T12:21:12Z</time>
      </trkpt>
      <trkpt lat="42.56922" lon="2.37634">
        <ele>509</ele>
        <time>2013-07-15T12:21:17Z</time>
      </trkpt>
      <trkpt lat="42.56928" lon="2.37631">
        <ele>509</ele>
        <time>2013-07-15T12:21:21Z</time>
      </trkpt>
      <trkpt lat="42.5693" lon="2.3763">
        <ele>509</ele>
        <time>2013-07-15T12:21:23Z</time>
      </trkpt>
      <trkpt lat="42.56933" lon="2.37628">
        <ele>509</ele>
        <time>2013-07-15T12:21:25Z</time>
      </trkpt>
      <trkpt lat="42.56938" lon="2.37627">
        <ele>509</ele>
        <time>2013-07-15T12:21:29Z</time>
      </trkpt>
      <trkpt lat="42.56944" lon="2.37625">
        <ele>508</ele>
        <time>2013-07-15T12:21:33Z</time>
      </trkpt>
      <trkpt lat="42.56949" lon="2.37624">
        <ele>507</ele>
        <time>2013-07-15T12:21:37Z</time>
      </trkpt>
      <trkpt lat="42.56955" lon="2.37621">
        <ele>506</ele>
        <time>2013-07-15T12:21:42Z</time>
      </trkpt>
      <trkpt lat="42.56962" lon="2.37619">
        <ele>505</ele>
        <time>2013-07-15T12:21:47Z</time>
      </trkpt>
      <trkpt lat="42.56966" lon="2.37618">
        <ele>504</ele>
        <time>2013-07-15T12:21:51Z</time>
      </trkpt>
      <trkpt lat="42.56972" lon="2.37615">
        <ele>503</ele>
        <time>2013-07-15T12:21:55Z</time>
      </trkpt>
      <trkpt lat="42.56977" lon="2.37613">
        <ele>503</ele>
        <time>2013-07-15T12:21:59Z</time>
      </trkpt>
      <trkpt lat="42.56982" lon="2.3761">
        <ele>503</ele>
        <time>2013-07-15T12:22:03Z</time>
      </trkpt>
      <trkpt lat="42.56988" lon="2.37608">
        <ele>502</ele>
        <time>2013-07-15T12:22:08Z</time>
      </trkpt>
      <trkpt lat="42.56991" lon="2.37606">
        <ele>502</ele>
        <time>2013-07-15T12:22:10Z</time>
      </trkpt>
      <trkpt lat="42.56993" lon="2.37605">
        <ele>502</ele>
        <time>2013-07-15T12:22:13Z</time>
      </trkpt>
      <trkpt lat="42.56994" lon="2.37603">
        <ele>501</ele>
        <time>2013-07-15T12:22:21Z</time>
      </trkpt>
      <trkpt lat="42.56996" lon="2.37603">
        <ele>501</ele>
        <time>2013-07-15T12:22:23Z</time>
      </trkpt>
      <trkpt lat="42.56998" lon="2.37603">
        <ele>501</ele>
        <time>2013-07-15T12:22:26Z</time>
      </trkpt>
      <trkpt lat="42.56998" lon="2.37604">
        <ele>501</ele>
        <time>2013-07-15T12:22:29Z</time>
      </trkpt>
      <trkpt lat="42.56996" lon="2.37605">
        <ele>501</ele>
        <time>2013-07-15T12:22:33Z</time>
      </trkpt>
      <trkpt lat="42.56991" lon="2.37606">
        <ele>501</ele>
        <time>2013-07-15T12:22:35Z</time>
      </trkpt>
      <trkpt lat="42.56989" lon="2.37608">
        <ele>501</ele>
        <time>2013-07-15T12:22:38Z</time>
      </trkpt>
      <trkpt lat="42.56982" lon="2.3761">
        <ele>499</ele>
        <time>2013-07-15T12:22:42Z</time>
      </trkpt>
      <trkpt lat="42.56977" lon="2.37612">
        <ele>498</ele>
        <time>2013-07-15T12:22:46Z</time>
      </trkpt>
      <trkpt lat="42.56971" lon="2.37615">
        <ele>498</ele>
        <time>2013-07-15T12:22:51Z</time>
      </trkpt>
      <trkpt lat="42.56965" lon="2.37619">
        <ele>497</ele>
        <time>2013-07-15T12:22:55Z</time>
      </trkpt>
      <trkpt lat="42.56961" lon="2.3762">
        <ele>497</ele>
        <time>2013-07-15T12:22:57Z</time>
      </trkpt>
      <trkpt lat="42.56958" lon="2.37622">
        <ele>497</ele>
        <time>2013-07-15T12:23:00Z</time>
      </trkpt>
      <trkpt lat="42.56953" lon="2.37624">
        <ele>497</ele>
        <time>2013-07-15T12:23:04Z</time>
      </trkpt>
      <trkpt lat="42.56946" lon="2.37628">
        <ele>497</ele>
        <time>2013-07-15T12:23:09Z</time>
      </trkpt>
      <trkpt lat="42.56941" lon="2.37629">
        <ele>497</ele>
        <time>2013-07-15T12:23:13Z</time>
      </trkpt>
      <trkpt lat="42.56936" lon="2.3763">
        <ele>498</ele>
        <time>2013-07-15T12:23:17Z</time>
      </trkpt>
      <trkpt lat="42.56932" lon="2.37632">
        <ele>498</ele>
        <time>2013-07-15T12:23:22Z</time>
      </trkpt>
      <trkpt lat="42.56926" lon="2.37635">
        <ele>498</ele>
        <time>2013-07-15T12:23:26Z</time>
      </trkpt>
      <trkpt lat="42.56921" lon="2.37637">
        <ele>499</ele>
        <time>2013-07-15T12:23:30Z</time>
      </trkpt>
      <trkpt lat="42.56916" lon="2.37639">
        <ele>500</ele>
        <time>2013-07-15T12:23:35Z</time>
      </trkpt>
      <trkpt lat="42.56912" lon="2.37641">
        <ele>502</ele>
        <time>2013-07-15T12:23:37Z</time>
      </trkpt>
      <trkpt lat="42.56908" lon="2.37643">
        <ele>503</ele>
        <time>2013-07-15T12:23:40Z</time>
      </trkpt>
      <trkpt lat="42.56905" lon="2.37646">
        <ele>505</ele>
        <time>2013-07-15T12:23:45Z</time>
      </trkpt>
      <trkpt lat="42.56901" lon="2.37648">
        <ele>505</ele>
        <time>2013-07-15T12:23:47Z</time>
      </trkpt>
      <trkpt lat="42.56898" lon="2.3765">
        <ele>505</ele>
        <time>2013-07-15T12:23:50Z</time>
      </trkpt>
      <trkpt lat="42.56892" lon="2.37655">
        <ele>506</ele>
        <time>2013-07-15T12:23:55Z</time>
      </trkpt>
      <trkpt lat="42.56889" lon="2.37657">
        <ele>506</ele>
        <time>2013-07-15T12:23:59Z</time>
      </trkpt>
      <trkpt lat="42.56882" lon="2.37661">
        <ele>506</ele>
        <time>2013-07-15T12:24:04Z</time>
      </trkpt>
      <trkpt lat="42.56878" lon="2.37663">
        <ele>506</ele>
        <time>2013-07-15T12:24:08Z</time>
      </trkpt>
      <trkpt lat="42.56873" lon="2.37667">
        <ele>506</ele>
        <time>2013-07-15T12:24:13Z</time>
      </trkpt>
      <trkpt lat="42.56869" lon="2.37671">
        <ele>506</ele>
        <time>2013-07-15T12:24:17Z</time>
      </trkpt>
      <trkpt lat="42.56864" lon="2.37677">
        <ele>506</ele>
        <time>2013-07-15T12:24:21Z</time>
      </trkpt>
      <trkpt lat="42.56861" lon="2.37682">
        <ele>507</ele>
        <time>2013-07-15T12:24:26Z</time>
      </trkpt>
      <trkpt lat="42.56858" lon="2.37689">
        <ele>508</ele>
        <time>2013-07-15T12:24:30Z</time>
      </trkpt>
      <trkpt lat="42.56854" lon="2.37696">
        <ele>508</ele>
        <time>2013-07-15T12:24:35Z</time>
      </trkpt>
      <trkpt lat="42.56851" lon="2.37702">
        <ele>508</ele>
        <time>2013-07-15T12:24:39Z</time>
      </trkpt>
      <trkpt lat="42.56848" lon="2.3771">
        <ele>509</ele>
        <time>2013-07-15T12:24:44Z</time>
      </trkpt>
      <trkpt lat="42.56845" lon="2.37716">
        <ele>509</ele>
        <time>2013-07-15T12:24:48Z</time>
      </trkpt>
      <trkpt lat="42.56842" lon="2.37722">
        <ele>510</ele>
        <time>2013-07-15T12:24:53Z</time>
      </trkpt>
      <trkpt lat="42.56838" lon="2.37729">
        <ele>510</ele>
        <time>2013-07-15T12:24:57Z</time>
      </trkpt>
      <trkpt lat="42.56835" lon="2.37735">
        <ele>510</ele>
        <time>2013-07-15T12:25:02Z</time>
      </trkpt>
      <trkpt lat="42.56832" lon="2.37742">
        <ele>510</ele>
        <time>2013-07-15T12:25:06Z</time>
      </trkpt>
      <trkpt lat="42.5683" lon="2.37748">
        <ele>510</ele>
        <time>2013-07-15T12:25:11Z</time>
      </trkpt>
      <trkpt lat="42.56826" lon="2.37756">
        <ele>510</ele>
        <time>2013-07-15T12:25:15Z</time>
      </trkpt>
      <trkpt lat="42.56823" lon="2.37763">
        <ele>510</ele>
        <time>2013-07-15T12:25:20Z</time>
      </trkpt>
      <trkpt lat="42.56819" lon="2.3777">
        <ele>510</ele>
        <time>2013-07-15T12:25:24Z</time>
      </trkpt>
      <trkpt lat="42.56817" lon="2.37777">
        <ele>511</ele>
        <time>2013-07-15T12:25:29Z</time>
      </trkpt>
      <trkpt lat="42.56815" lon="2.37781">
        <ele>511</ele>
        <time>2013-07-15T12:25:31Z</time>
      </trkpt>
      <trkpt lat="42.56812" lon="2.37786">
        <ele>511</ele>
        <time>2013-07-15T12:25:35Z</time>
      </trkpt>
      <trkpt lat="42.56808" lon="2.37794">
        <ele>512</ele>
        <time>2013-07-15T12:25:39Z</time>
      </trkpt>
      <trkpt lat="42.56806" lon="2.37798">
        <ele>512</ele>
        <time>2013-07-15T12:25:44Z</time>
      </trkpt>
      <trkpt lat="42.56803" lon="2.37806">
        <ele>513</ele>
        <time>2013-07-15T12:25:49Z</time>
      </trkpt>
      <trkpt lat="42.56799" lon="2.37813">
        <ele>514</ele>
        <time>2013-07-15T12:25:53Z</time>
      </trkpt>
      <trkpt lat="42.56796" lon="2.37819">
        <ele>515</ele>
        <time>2013-07-15T12:25:58Z</time>
      </trkpt>
      <trkpt lat="42.56792" lon="2.37827">
        <ele>515</ele>
        <time>2013-07-15T12:26:02Z</time>
      </trkpt>
      <trkpt lat="42.56788" lon="2.37833">
        <ele>515</ele>
        <time>2013-07-15T12:26:07Z</time>
      </trkpt>
      <trkpt lat="42.56786" lon="2.37834">
        <ele>515</ele>
        <time>2013-07-15T12:26:10Z</time>
      </trkpt>
      <trkpt lat="42.56783" lon="2.37836">
        <ele>516</ele>
        <time>2013-07-15T12:26:13Z</time>
      </trkpt>
      <trkpt lat="42.56778" lon="2.37839">
        <ele>519</ele>
        <time>2013-07-15T12:26:16Z</time>
      </trkpt>
      <trkpt lat="42.56776" lon="2.37839">
        <ele>520</ele>
        <time>2013-07-15T12:26:20Z</time>
      </trkpt>
      <trkpt lat="42.56766" lon="2.37834">
        <ele>522</ele>
        <time>2013-07-15T12:26:25Z</time>
      </trkpt>
      <trkpt lat="42.56763" lon="2.37833">
        <ele>523</ele>
        <time>2013-07-15T12:26:29Z</time>
      </trkpt>
      <trkpt lat="42.56761" lon="2.37832">
        <ele>523</ele>
        <time>2013-07-15T12:26:33Z</time>
      </trkpt>
      <trkpt lat="42.56755" lon="2.37831">
        <ele>524</ele>
        <time>2013-07-15T12:26:37Z</time>
      </trkpt>
      <trkpt lat="42.56752" lon="2.37831">
        <ele>524</ele>
        <time>2013-07-15T12:26:39Z</time>
      </trkpt>
      <trkpt lat="42.56749" lon="2.37831">
        <ele>524</ele>
        <time>2013-07-15T12:26:42Z</time>
      </trkpt>
      <trkpt lat="42.56743" lon="2.37832">
        <ele>524</ele>
        <time>2013-07-15T12:26:47Z</time>
      </trkpt>
      <trkpt lat="42.56736" lon="2.37833">
        <ele>524</ele>
        <time>2013-07-15T12:26:51Z</time>
      </trkpt>
      <trkpt lat="42.56732" lon="2.37835">
        <ele>525</ele>
        <time>2013-07-15T12:26:56Z</time>
      </trkpt>
      <trkpt lat="42.56726" lon="2.37837">
        <ele>526</ele>
        <time>2013-07-15T12:27:01Z</time>
      </trkpt>
      <trkpt lat="42.56719" lon="2.3784">
        <ele>526</ele>
        <time>2013-07-15T12:27:05Z</time>
      </trkpt>
      <trkpt lat="42.56715" lon="2.37842">
        <ele>526</ele>
        <time>2013-07-15T12:27:10Z</time>
      </trkpt>
      <trkpt lat="42.56708" lon="2.37845">
        <ele>526</ele>
        <time>2013-07-15T12:27:15Z</time>
      </trkpt>
      <trkpt lat="42.56701" lon="2.37847">
        <ele>526</ele>
        <time>2013-07-15T12:27:20Z</time>
      </trkpt>
      <trkpt lat="42.56698" lon="2.37849">
        <ele>526</ele>
        <time>2013-07-15T12:27:24Z</time>
      </trkpt>
      <trkpt lat="42.56691" lon="2.37852">
        <ele>526</ele>
        <time>2013-07-15T12:27:29Z</time>
      </trkpt>
      <trkpt lat="42.56686" lon="2.37854">
        <ele>527</ele>
        <time>2013-07-15T12:27:31Z</time>
      </trkpt>
      <trkpt lat="42.56683" lon="2.37855">
        <ele>527</ele>
        <time>2013-07-15T12:27:35Z</time>
      </trkpt>
      <trkpt lat="42.56676" lon="2.37857">
        <ele>527</ele>
        <time>2013-07-15T12:27:39Z</time>
      </trkpt>
      <trkpt lat="42.56673" lon="2.37856">
        <ele>527</ele>
        <time>2013-07-15T12:27:42Z</time>
      </trkpt>
      <trkpt lat="42.56671" lon="2.37855">
        <ele>527</ele>
        <time>2013-07-15T12:27:45Z</time>
      </trkpt>
      <trkpt lat="42.56666" lon="2.37857">
        <ele>527</ele>
        <time>2013-07-15T12:27:48Z</time>
      </trkpt>
      <trkpt lat="42.56662" lon="2.37858">
        <ele>527</ele>
        <time>2013-07-15T12:27:52Z</time>
      </trkpt>
      <trkpt lat="42.56656" lon="2.3786">
        <ele>527</ele>
        <time>2013-07-15T12:27:57Z</time>
      </trkpt>
      <trkpt lat="42.56652" lon="2.37859">
        <ele>527</ele>
        <time>2013-07-15T12:27:59Z</time>
      </trkpt>
      <trkpt lat="42.5665" lon="2.37855">
        <ele>527</ele>
        <time>2013-07-15T12:28:04Z</time>
      </trkpt>
      <trkpt lat="42.56649" lon="2.37846">
        <ele>527</ele>
        <time>2013-07-15T12:28:07Z</time>
      </trkpt>
      <trkpt lat="42.5665" lon="2.37842">
        <ele>527</ele>
        <time>2013-07-15T12:28:10Z</time>
      </trkpt>
      <trkpt lat="42.56653" lon="2.37835">
        <ele>527</ele>
        <time>2013-07-15T12:28:13Z</time>
      </trkpt>
      <trkpt lat="42.56656" lon="2.37832">
        <ele>527</ele>
        <time>2013-07-15T12:28:18Z</time>
      </trkpt>
      <trkpt lat="42.5666" lon="2.37826">
        <ele>527</ele>
        <time>2013-07-15T12:28:22Z</time>
      </trkpt>
      <trkpt lat="42.56664" lon="2.37819">
        <ele>527</ele>
        <time>2013-07-15T12:28:27Z</time>
      </trkpt>
      <trkpt lat="42.56666" lon="2.37814">
        <ele>527</ele>
        <time>2013-07-15T12:28:29Z</time>
      </trkpt>
      <trkpt lat="42.56666" lon="2.37807">
        <ele>527</ele>
        <time>2013-07-15T12:28:35Z</time>
      </trkpt>
      <trkpt lat="42.56665" lon="2.37798">
        <ele>527</ele>
        <time>2013-07-15T12:28:39Z</time>
      </trkpt>
      <trkpt lat="42.56666" lon="2.37788">
        <ele>526</ele>
        <time>2013-07-15T12:28:44Z</time>
      </trkpt>
      <trkpt lat="42.56667" lon="2.37782">
        <ele>525</ele>
        <time>2013-07-15T12:28:49Z</time>
      </trkpt>
      <trkpt lat="42.56667" lon="2.37777">
        <ele>524</ele>
        <time>2013-07-15T12:28:52Z</time>
      </trkpt>
      <trkpt lat="42.56666" lon="2.37771">
        <ele>522</ele>
        <time>2013-07-15T12:28:57Z</time>
      </trkpt>
      <trkpt lat="42.56667" lon="2.37763">
        <ele>520</ele>
        <time>2013-07-15T12:29:02Z</time>
      </trkpt>
      <trkpt lat="42.56668" lon="2.37755">
        <ele>518</ele>
        <time>2013-07-15T12:29:06Z</time>
      </trkpt>
      <trkpt lat="42.56668" lon="2.37751">
        <ele>518</ele>
        <time>2013-07-15T12:29:09Z</time>
      </trkpt>
      <trkpt lat="42.56669" lon="2.37745">
        <ele>518</ele>
        <time>2013-07-15T12:29:11Z</time>
      </trkpt>
      <trkpt lat="42.5667" lon="2.37742">
        <ele>518</ele>
        <time>2013-07-15T12:29:14Z</time>
      </trkpt>
      <trkpt lat="42.56671" lon="2.37734">
        <ele>518</ele>
        <time>2013-07-15T12:29:19Z</time>
      </trkpt>
      <trkpt lat="42.56673" lon="2.37727">
        <ele>518</ele>
        <time>2013-07-15T12:29:22Z</time>
      </trkpt>
      <trkpt lat="42.56674" lon="2.37724">
        <ele>518</ele>
        <time>2013-07-15T12:29:25Z</time>
      </trkpt>
      <trkpt lat="42.56677" lon="2.37716">
        <ele>518</ele>
        <time>2013-07-15T12:29:30Z</time>
      </trkpt>
      <trkpt lat="42.56679" lon="2.37708">
        <ele>518</ele>
        <time>2013-07-15T12:29:35Z</time>
      </trkpt>
      <trkpt lat="42.5668" lon="2.37698">
        <ele>518</ele>
        <time>2013-07-15T12:29:40Z</time>
      </trkpt>
      <trkpt lat="42.56682" lon="2.37689">
        <ele>517</ele>
        <time>2013-07-15T12:29:45Z</time>
      </trkpt>
      <trkpt lat="42.56681" lon="2.37684">
        <ele>516</ele>
        <time>2013-07-15T12:29:48Z</time>
      </trkpt>
      <trkpt lat="42.56681" lon="2.37681">
        <ele>516</ele>
        <time>2013-07-15T12:29:50Z</time>
      </trkpt>
      <trkpt lat="42.56681" lon="2.37678">
        <ele>515</ele>
        <time>2013-07-15T12:29:53Z</time>
      </trkpt>
      <trkpt lat="42.56683" lon="2.37674">
        <ele>515</ele>
        <time>2013-07-15T12:29:56Z</time>
      </trkpt>
      <trkpt lat="42.56684" lon="2.3767">
        <ele>514</ele>
        <time>2013-07-15T12:29:58Z</time>
      </trkpt>
      <trkpt lat="42.56686" lon="2.37663">
        <ele>514</ele>
        <time>2013-07-15T12:30:01Z</time>
      </trkpt>
      <trkpt lat="42.56689" lon="2.3765">
        <ele>514</ele>
        <time>2013-07-15T12:30:06Z</time>
      </trkpt>
      <trkpt lat="42.56691" lon="2.37641">
        <ele>514</ele>
        <time>2013-07-15T12:30:11Z</time>
      </trkpt>
      <trkpt lat="42.56694" lon="2.37632">
        <ele>514</ele>
        <time>2013-07-15T12:30:16Z</time>
      </trkpt>
      <trkpt lat="42.56695" lon="2.37623">
        <ele>514</ele>
        <time>2013-07-15T12:30:21Z</time>
      </trkpt>
      <trkpt lat="42.56697" lon="2.37616">
        <ele>514</ele>
        <time>2013-07-15T12:30:26Z</time>
      </trkpt>
      <trkpt lat="42.56699" lon="2.37607">
        <ele>514</ele>
        <time>2013-07-15T12:30:31Z</time>
      </trkpt>
      <trkpt lat="42.567" lon="2.37599">
        <ele>514</ele>
        <time>2013-07-15T12:30:36Z</time>
      </trkpt>
      <trkpt lat="42.56701" lon="2.37591">
        <ele>514</ele>
        <time>2013-07-15T12:30:41Z</time>
      </trkpt>
      <trkpt lat="42.56702" lon="2.37583">
        <ele>514</ele>
        <time>2013-07-15T12:30:47Z</time>
      </trkpt>
      <trkpt lat="42.56702" lon="2.37575">
        <ele>514</ele>
        <time>2013-07-15T12:30:52Z</time>
      </trkpt>
      <trkpt lat="42.56703" lon="2.37567">
        <ele>513</ele>
        <time>2013-07-15T12:30:57Z</time>
      </trkpt>
      <trkpt lat="42.56703" lon="2.37562">
        <ele>513</ele>
        <time>2013-07-15T12:30:59Z</time>
      </trkpt>
      <trkpt lat="42.56703" lon="2.37558">
        <ele>513</ele>
        <time>2013-07-15T12:31:01Z</time>
      </trkpt>
      <trkpt lat="42.56703" lon="2.37549">
        <ele>513</ele>
        <time>2013-07-15T12:31:05Z</time>
      </trkpt>
      <trkpt lat="42.56703" lon="2.37541">
        <ele>513</ele>
        <time>2013-07-15T12:31:09Z</time>
      </trkpt>
      <trkpt lat="42.56703" lon="2.37535">
        <ele>513</ele>
        <time>2013-07-15T12:31:13Z</time>
      </trkpt>
      <trkpt lat="42.56702" lon="2.37527">
        <ele>513</ele>
        <time>2013-07-15T12:31:16Z</time>
      </trkpt>
      <trkpt lat="42.56702" lon="2.37524">
        <ele>513</ele>
        <time>2013-07-15T12:31:18Z</time>
      </trkpt>
      <trkpt lat="42.56701" lon="2.3752">
        <ele>513</ele>
        <time>2013-07-15T12:31:21Z</time>
      </trkpt>
      <trkpt lat="42.56698" lon="2.37513">
        <ele>513</ele>
        <time>2013-07-15T12:31:25Z</time>
      </trkpt>
      <trkpt lat="42.56695" lon="2.37507">
        <ele>513</ele>
        <time>2013-07-15T12:31:29Z</time>
      </trkpt>
      <trkpt lat="42.56691" lon="2.37501">
        <ele>513</ele>
        <time>2013-07-15T12:31:33Z</time>
      </trkpt>
      <trkpt lat="42.56688" lon="2.37496">
        <ele>513</ele>
        <time>2013-07-15T12:31:37Z</time>
      </trkpt>
      <trkpt lat="42.56685" lon="2.37491">
        <ele>513</ele>
        <time>2013-07-15T12:31:41Z</time>
      </trkpt>
      <trkpt lat="42.56682" lon="2.37487">
        <ele>513</ele>
        <time>2013-07-15T12:31:43Z</time>
      </trkpt>
      <trkpt lat="42.56681" lon="2.37484">
        <ele>513</ele>
        <time>2013-07-15T12:31:46Z</time>
      </trkpt>
      <trkpt lat="42.56677" lon="2.37476">
        <ele>513</ele>
        <time>2013-07-15T12:31:50Z</time>
      </trkpt>
      <trkpt lat="42.56676" lon="2.37473">
        <ele>513</ele>
        <time>2013-07-15T12:31:52Z</time>
      </trkpt>
      <trkpt lat="42.56676" lon="2.37469">
        <ele>513</ele>
        <time>2013-07-15T12:31:54Z</time>
      </trkpt>
      <trkpt lat="42.56676" lon="2.37465">
        <ele>513</ele>
        <time>2013-07-15T12:31:56Z</time>
      </trkpt>
      <trkpt lat="42.56676" lon="2.37461">
        <ele>513</ele>
        <time>2013-07-15T12:32:00Z</time>
      </trkpt>
      <trkpt lat="42.56676" lon="2.37454">
        <ele>513</ele>
        <time>2013-07-15T12:32:04Z</time>
      </trkpt>
      <trkpt lat="42.56675" lon="2.3745">
        <ele>513</ele>
        <time>2013-07-15T12:32:06Z</time>
      </trkpt>
      <trkpt lat="42.56675" lon="2.37447">
        <ele>513</ele>
        <time>2013-07-15T12:32:09Z</time>
      </trkpt>
      <trkpt lat="42.56674" lon="2.3744">
        <ele>513</ele>
        <time>2013-07-15T12:32:12Z</time>
      </trkpt>
      <trkpt lat="42.56673" lon="2.37434">
        <ele>513</ele>
        <time>2013-07-15T12:32:14Z</time>
      </trkpt>
      <trkpt lat="42.56672" lon="2.3743">
        <ele>513</ele>
        <time>2013-07-15T12:32:17Z</time>
      </trkpt>
      <trkpt lat="42.5667" lon="2.37422">
        <ele>513</ele>
        <time>2013-07-15T12:32:21Z</time>
      </trkpt>
      <trkpt lat="42.56669" lon="2.37415">
        <ele>513</ele>
        <time>2013-07-15T12:32:25Z</time>
      </trkpt>
      <trkpt lat="42.56667" lon="2.37408">
        <ele>513</ele>
        <time>2013-07-15T12:32:29Z</time>
      </trkpt>
      <trkpt lat="42.56667" lon="2.37401">
        <ele>513</ele>
        <time>2013-07-15T12:32:33Z</time>
      </trkpt>
      <trkpt lat="42.56667" lon="2.37394">
        <ele>513</ele>
        <time>2013-07-15T12:32:37Z</time>
      </trkpt>
      <trkpt lat="42.56668" lon="2.37388">
        <ele>513</ele>
        <time>2013-07-15T12:32:41Z</time>
      </trkpt>
      <trkpt lat="42.56668" lon="2.37383">
        <ele>513</ele>
        <time>2013-07-15T12:32:44Z</time>
      </trkpt>
      <trkpt lat="42.56669" lon="2.3738">
        <ele>513</ele>
        <time>2013-07-15T12:32:46Z</time>
      </trkpt>
      <trkpt lat="42.56668" lon="2.37373">
        <ele>513</ele>
        <time>2013-07-15T12:32:52Z</time>
      </trkpt>
      <trkpt lat="42.56666" lon="2.37364">
        <ele>513</ele>
        <time>2013-07-15T12:32:56Z</time>
      </trkpt>
      <trkpt lat="42.56664" lon="2.37359">
        <ele>513</ele>
        <time>2013-07-15T12:32:59Z</time>
      </trkpt>
      <trkpt lat="42.56663" lon="2.37356">
        <ele>513</ele>
        <time>2013-07-15T12:33:02Z</time>
      </trkpt>
      <trkpt lat="42.56661" lon="2.37348">
        <ele>513</ele>
        <time>2013-07-15T12:33:05Z</time>
      </trkpt>
      <trkpt lat="42.5666" lon="2.37344">
        <ele>513</ele>
        <time>2013-07-15T12:33:08Z</time>
      </trkpt>
      <trkpt lat="42.5666" lon="2.37331">
        <ele>513</ele>
        <time>2013-07-15T12:33:12Z</time>
      </trkpt>
      <trkpt lat="42.5666" lon="2.37328">
        <ele>513</ele>
        <time>2013-07-15T12:33:14Z</time>
      </trkpt>
      <trkpt lat="42.56661" lon="2.37325">
        <ele>513</ele>
        <time>2013-07-15T12:33:16Z</time>
      </trkpt>
      <trkpt lat="42.56661" lon="2.37318">
        <ele>513</ele>
        <time>2013-07-15T12:33:20Z</time>
      </trkpt>
      <trkpt lat="42.56662" lon="2.37312">
        <ele>513</ele>
        <time>2013-07-15T12:33:24Z</time>
      </trkpt>
      <trkpt lat="42.56663" lon="2.37306">
        <ele>513</ele>
        <time>2013-07-15T12:33:28Z</time>
      </trkpt>
      <trkpt lat="42.56663" lon="2.37299">
        <ele>513</ele>
        <time>2013-07-15T12:33:32Z</time>
      </trkpt>
      <trkpt lat="42.56663" lon="2.37293">
        <ele>513</ele>
        <time>2013-07-15T12:33:36Z</time>
      </trkpt>
      <trkpt lat="42.56664" lon="2.37287">
        <ele>513</ele>
        <time>2013-07-15T12:33:38Z</time>
      </trkpt>
      <trkpt lat="42.56665" lon="2.37284">
        <ele>513</ele>
        <time>2013-07-15T12:33:42Z</time>
      </trkpt>
      <trkpt lat="42.56666" lon="2.37276">
        <ele>512</ele>
        <time>2013-07-15T12:33:46Z</time>
      </trkpt>
      <trkpt lat="42.56668" lon="2.3727">
        <ele>511</ele>
        <time>2013-07-15T12:33:50Z</time>
      </trkpt>
      <trkpt lat="42.56672" lon="2.37265">
        <ele>510</ele>
        <time>2013-07-15T12:33:55Z</time>
      </trkpt>
      <trkpt lat="42.56674" lon="2.37261">
        <ele>509</ele>
        <time>2013-07-15T12:33:58Z</time>
      </trkpt>
      <trkpt lat="42.56675" lon="2.37258">
        <ele>508</ele>
        <time>2013-07-15T12:34:01Z</time>
      </trkpt>
      <trkpt lat="42.56679" lon="2.3725">
        <ele>506</ele>
        <time>2013-07-15T12:34:05Z</time>
      </trkpt>
      <trkpt lat="42.56682" lon="2.37243">
        <ele>505</ele>
        <time>2013-07-15T12:34:10Z</time>
      </trkpt>
      <trkpt lat="42.56684" lon="2.37238">
        <ele>505</ele>
        <time>2013-07-15T12:34:12Z</time>
      </trkpt>
      <trkpt lat="42.56686" lon="2.37236">
        <ele>505</ele>
        <time>2013-07-15T12:34:14Z</time>
      </trkpt>
      <trkpt lat="42.56689" lon="2.37229">
        <ele>505</ele>
        <time>2013-07-15T12:34:20Z</time>
      </trkpt>
      <trkpt lat="42.5669" lon="2.37224">
        <ele>505</ele>
        <time>2013-07-15T12:34:22Z</time>
      </trkpt>
      <trkpt lat="42.5669" lon="2.37219">
        <ele>505</ele>
        <time>2013-07-15T12:34:25Z</time>
      </trkpt>
      <trkpt lat="42.56691" lon="2.37214">
        <ele>505</ele>
        <time>2013-07-15T12:34:28Z</time>
      </trkpt>
      <trkpt lat="42.56692" lon="2.37211">
        <ele>505</ele>
        <time>2013-07-15T12:34:30Z</time>
      </trkpt>
      <trkpt lat="42.56694" lon="2.37204">
        <ele>505</ele>
        <time>2013-07-15T12:34:34Z</time>
      </trkpt>
      <trkpt lat="42.56694" lon="2.372">
        <ele>505</ele>
        <time>2013-07-15T12:34:42Z</time>
      </trkpt>
      <trkpt lat="42.56696" lon="2.37195">
        <ele>505</ele>
        <time>2013-07-15T12:34:45Z</time>
      </trkpt>
      <trkpt lat="42.56697" lon="2.37191">
        <ele>505</ele>
        <time>2013-07-15T12:34:49Z</time>
      </trkpt>
      <trkpt lat="42.56699" lon="2.37184">
        <ele>505</ele>
        <time>2013-07-15T12:34:53Z</time>
      </trkpt>
      <trkpt lat="42.56701" lon="2.37179">
        <ele>505</ele>
        <time>2013-07-15T12:34:57Z</time>
      </trkpt>
      <trkpt lat="42.56702" lon="2.37175">
        <ele>505</ele>
        <time>2013-07-15T12:35:00Z</time>
      </trkpt>
      <trkpt lat="42.56703" lon="2.37171">
        <ele>505</ele>
        <time>2013-07-15T12:35:02Z</time>
      </trkpt>
      <trkpt lat="42.56705" lon="2.37164">
        <ele>505</ele>
        <time>2013-07-15T12:35:06Z</time>
      </trkpt>
      <trkpt lat="42.56706" lon="2.3716">
        <ele>505</ele>
        <time>2013-07-15T12:35:09Z</time>
      </trkpt>
      <trkpt lat="42.56707" lon="2.37157">
        <ele>505</ele>
        <time>2013-07-15T12:35:11Z</time>
      </trkpt>
      <trkpt lat="42.5671" lon="2.3715">
        <ele>505</ele>
        <time>2013-07-15T12:35:15Z</time>
      </trkpt>
      <trkpt lat="42.56712" lon="2.37144">
        <ele>504</ele>
        <time>2013-07-15T12:35:19Z</time>
      </trkpt>
      <trkpt lat="42.56715" lon="2.37139">
        <ele>504</ele>
        <time>2013-07-15T12:35:23Z</time>
      </trkpt>
      <trkpt lat="42.56718" lon="2.37134">
        <ele>504</ele>
        <time>2013-07-15T12:35:27Z</time>
      </trkpt>
      <trkpt lat="42.56721" lon="2.37128">
        <ele>504</ele>
        <time>2013-07-15T12:35:32Z</time>
      </trkpt>
      <trkpt lat="42.56725" lon="2.37123">
        <ele>504</ele>
        <time>2013-07-15T12:35:36Z</time>
      </trkpt>
      <trkpt lat="42.56726" lon="2.3712">
        <ele>504</ele>
        <time>2013-07-15T12:35:38Z</time>
      </trkpt>
      <trkpt lat="42.56726" lon="2.37117">
        <ele>504</ele>
        <time>2013-07-15T12:35:42Z</time>
      </trkpt>
      <trkpt lat="42.56725" lon="2.37115">
        <ele>504</ele>
        <time>2013-07-15T12:35:47Z</time>
      </trkpt>
      <trkpt lat="42.56723" lon="2.37109">
        <ele>504</ele>
        <time>2013-07-15T12:35:50Z</time>
      </trkpt>
      <trkpt lat="42.56722" lon="2.37107">
        <ele>504</ele>
        <time>2013-07-15T12:35:52Z</time>
      </trkpt>
      <trkpt lat="42.56722" lon="2.371">
        <ele>504</ele>
        <time>2013-07-15T12:35:57Z</time>
      </trkpt>
      <trkpt lat="42.56724" lon="2.37095">
        <ele>504</ele>
        <time>2013-07-15T12:36:03Z</time>
      </trkpt>
      <trkpt lat="42.56726" lon="2.37091">
        <ele>505</ele>
        <time>2013-07-15T12:36:06Z</time>
      </trkpt>
      <trkpt lat="42.56728" lon="2.37088">
        <ele>506</ele>
        <time>2013-07-15T12:36:08Z</time>
      </trkpt>
      <trkpt lat="42.5673" lon="2.37084">
        <ele>510</ele>
        <time>2013-07-15T12:36:14Z</time>
      </trkpt>
      <trkpt lat="42.56734" lon="2.37075">
        <ele>513</ele>
        <time>2013-07-15T12:36:19Z</time>
      </trkpt>
      <trkpt lat="42.56735" lon="2.37074">
        <ele>515</ele>
        <time>2013-07-15T12:36:21Z</time>
      </trkpt>
      <trkpt lat="42.56736" lon="2.37072">
        <ele>517</ele>
        <time>2013-07-15T12:36:24Z</time>
      </trkpt>
      <trkpt lat="42.56737" lon="2.37071">
        <ele>519</ele>
        <time>2013-07-15T12:36:27Z</time>
      </trkpt>
      <trkpt lat="42.56739" lon="2.37069">
        <ele>520</ele>
        <time>2013-07-15T12:36:30Z</time>
      </trkpt>
      <trkpt lat="42.56742" lon="2.37067">
        <ele>522</ele>
        <time>2013-07-15T12:36:33Z</time>
      </trkpt>
      <trkpt lat="42.56744" lon="2.37067">
        <ele>522</ele>
        <time>2013-07-15T12:36:35Z</time>
      </trkpt>
      <trkpt lat="42.56748" lon="2.37065">
        <ele>522</ele>
        <time>2013-07-15T12:36:39Z</time>
      </trkpt>
      <trkpt lat="42.56752" lon="2.37065">
        <ele>524</ele>
        <time>2013-07-15T12:36:46Z</time>
      </trkpt>
      <trkpt lat="42.56754" lon="2.37066">
        <ele>526</ele>
        <time>2013-07-15T12:36:48Z</time>
      </trkpt>
      <trkpt lat="42.56757" lon="2.37068">
        <ele>528</ele>
        <time>2013-07-15T12:36:52Z</time>
      </trkpt>
      <trkpt lat="42.56762" lon="2.37069">
        <ele>531</ele>
        <time>2013-07-15T12:36:56Z</time>
      </trkpt>
      <trkpt lat="42.56767" lon="2.37068">
        <ele>534</ele>
        <time>2013-07-15T12:37:00Z</time>
      </trkpt>
      <trkpt lat="42.5677" lon="2.37067">
        <ele>535</ele>
        <time>2013-07-15T12:37:06Z</time>
      </trkpt>
      <trkpt lat="42.56777" lon="2.37067">
        <ele>535</ele>
        <time>2013-07-15T12:37:11Z</time>
      </trkpt>
      <trkpt lat="42.56781" lon="2.37068">
        <ele>535</ele>
        <time>2013-07-15T12:37:16Z</time>
      </trkpt>
      <trkpt lat="42.56785" lon="2.37065">
        <ele>535</ele>
        <time>2013-07-15T12:37:21Z</time>
      </trkpt>
      <trkpt lat="42.56787" lon="2.37063">
        <ele>536</ele>
        <time>2013-07-15T12:37:32Z</time>
      </trkpt>
      <trkpt lat="42.56791" lon="2.37061">
        <ele>536</ele>
        <time>2013-07-15T12:37:38Z</time>
      </trkpt>
      <trkpt lat="42.56797" lon="2.37063">
        <ele>537</ele>
        <time>2013-07-15T12:37:44Z</time>
      </trkpt>
      <trkpt lat="42.56801" lon="2.37064">
        <ele>539</ele>
        <time>2013-07-15T12:37:47Z</time>
      </trkpt>
      <trkpt lat="42.56803" lon="2.37064">
        <ele>540</ele>
        <time>2013-07-15T12:37:50Z</time>
      </trkpt>
      <trkpt lat="42.56805" lon="2.37066">
        <ele>541</ele>
        <time>2013-07-15T12:37:53Z</time>
      </trkpt>
      <trkpt lat="42.56807" lon="2.37067">
        <ele>542</ele>
        <time>2013-07-15T12:37:55Z</time>
      </trkpt>
      <trkpt lat="42.56809" lon="2.37069">
        <ele>543</ele>
        <time>2013-07-15T12:37:57Z</time>
      </trkpt>
      <trkpt lat="42.56812" lon="2.3707">
        <ele>543</ele>
        <time>2013-07-15T12:37:59Z</time>
      </trkpt>
      <trkpt lat="42.56814" lon="2.37071">
        <ele>543</ele>
        <time>2013-07-15T12:38:04Z</time>
      </trkpt>
      <trkpt lat="42.56816" lon="2.3707">
        <ele>543</ele>
        <time>2013-07-15T12:38:06Z</time>
      </trkpt>
      <trkpt lat="42.56819" lon="2.37069">
        <ele>543</ele>
        <time>2013-07-15T12:38:11Z</time>
      </trkpt>
      <trkpt lat="42.56822" lon="2.37064">
        <ele>543</ele>
        <time>2013-07-15T12:38:16Z</time>
      </trkpt>
      <trkpt lat="42.56825" lon="2.3706">
        <ele>543</ele>
        <time>2013-07-15T12:38:19Z</time>
      </trkpt>
      <trkpt lat="42.56826" lon="2.37058">
        <ele>543</ele>
        <time>2013-07-15T12:38:21Z</time>
      </trkpt>
      <trkpt lat="42.56826" lon="2.37056">
        <ele>543</ele>
        <time>2013-07-15T12:38:24Z</time>
      </trkpt>
      <trkpt lat="42.56825" lon="2.37053">
        <ele>543</ele>
        <time>2013-07-15T12:38:28Z</time>
      </trkpt>
      <trkpt lat="42.56825" lon="2.37048">
        <ele>543</ele>
        <time>2013-07-15T12:38:31Z</time>
      </trkpt>
      <trkpt lat="42.56822" lon="2.37046">
        <ele>543</ele>
        <time>2013-07-15T12:38:35Z</time>
      </trkpt>
      <trkpt lat="42.5682" lon="2.37047">
        <ele>543</ele>
        <time>2013-07-15T12:38:40Z</time>
      </trkpt>
      <trkpt lat="42.56815" lon="2.37045">
        <ele>543</ele>
        <time>2013-07-15T12:38:44Z</time>
      </trkpt>
      <trkpt lat="42.56814" lon="2.37043">
        <ele>544</ele>
        <time>2013-07-15T12:38:47Z</time>
      </trkpt>
      <trkpt lat="42.56813" lon="2.3704">
        <ele>544</ele>
        <time>2013-07-15T12:38:49Z</time>
      </trkpt>
      <trkpt lat="42.56811" lon="2.37036">
        <ele>545</ele>
        <time>2013-07-15T12:38:53Z</time>
      </trkpt>
      <trkpt lat="42.5681" lon="2.37033">
        <ele>545</ele>
        <time>2013-07-15T12:38:56Z</time>
      </trkpt>
      <trkpt lat="42.5681" lon="2.3703">
        <ele>546</ele>
        <time>2013-07-15T12:38:58Z</time>
      </trkpt>
      <trkpt lat="42.5681" lon="2.37028">
        <ele>547</ele>
        <time>2013-07-15T12:39:01Z</time>
      </trkpt>
      <trkpt lat="42.56809" lon="2.37025">
        <ele>548</ele>
        <time>2013-07-15T12:39:05Z</time>
      </trkpt>
      <trkpt lat="42.56809" lon="2.37022">
        <ele>549</ele>
        <time>2013-07-15T12:39:07Z</time>
      </trkpt>
      <trkpt lat="42.56809" lon="2.37019">
        <ele>550</ele>
        <time>2013-07-15T12:39:12Z</time>
      </trkpt>
      <trkpt lat="42.56809" lon="2.37015">
        <ele>552</ele>
        <time>2013-07-15T12:39:25Z</time>
      </trkpt>
      <trkpt lat="42.56809" lon="2.37009">
        <ele>553</ele>
        <time>2013-07-15T12:39:31Z</time>
      </trkpt>
      <trkpt lat="42.5681" lon="2.37001">
        <ele>553</ele>
        <time>2013-07-15T12:39:36Z</time>
      </trkpt>
      <trkpt lat="42.5681" lon="2.36999">
        <ele>553</ele>
        <time>2013-07-15T12:39:39Z</time>
      </trkpt>
      <trkpt lat="42.56811" lon="2.36995">
        <ele>553</ele>
        <time>2013-07-15T12:39:42Z</time>
      </trkpt>
      <trkpt lat="42.56811" lon="2.36992">
        <ele>554</ele>
        <time>2013-07-15T12:39:46Z</time>
      </trkpt>
      <trkpt lat="42.56813" lon="2.36986">
        <ele>556</ele>
        <time>2013-07-15T12:39:51Z</time>
      </trkpt>
      <trkpt lat="42.56814" lon="2.36984">
        <ele>556</ele>
        <time>2013-07-15T12:39:53Z</time>
      </trkpt>
      <trkpt lat="42.56815" lon="2.36981">
        <ele>556</ele>
        <time>2013-07-15T12:39:55Z</time>
      </trkpt>
      <trkpt lat="42.56816" lon="2.3698">
        <ele>558</ele>
        <time>2013-07-15T12:39:58Z</time>
      </trkpt>
      <trkpt lat="42.56818" lon="2.36977">
        <ele>559</ele>
        <time>2013-07-15T12:40:01Z</time>
      </trkpt>
      <trkpt lat="42.56818" lon="2.36973">
        <ele>559</ele>
        <time>2013-07-15T12:40:05Z</time>
      </trkpt>
      <trkpt lat="42.56817" lon="2.3697">
        <ele>559</ele>
        <time>2013-07-15T12:40:09Z</time>
      </trkpt>
      <trkpt lat="42.56815" lon="2.36964">
        <ele>560</ele>
        <time>2013-07-15T12:40:11Z</time>
      </trkpt>
      <trkpt lat="42.56813" lon="2.36959">
        <ele>560</ele>
        <time>2013-07-15T12:40:15Z</time>
      </trkpt>
      <trkpt lat="42.56812" lon="2.36955">
        <ele>561</ele>
        <time>2013-07-15T12:40:19Z</time>
      </trkpt>
      <trkpt lat="42.56811" lon="2.3695">
        <ele>561</ele>
        <time>2013-07-15T12:40:23Z</time>
      </trkpt>
      <trkpt lat="42.56808" lon="2.36946">
        <ele>561</ele>
        <time>2013-07-15T12:40:26Z</time>
      </trkpt>
      <trkpt lat="42.56807" lon="2.36945">
        <ele>561</ele>
        <time>2013-07-15T12:40:30Z</time>
      </trkpt>
      <trkpt lat="42.56805" lon="2.36943">
        <ele>563</ele>
        <time>2013-07-15T12:40:32Z</time>
      </trkpt>
      <trkpt lat="42.56804" lon="2.36942">
        <ele>564</ele>
        <time>2013-07-15T12:40:35Z</time>
      </trkpt>
      <trkpt lat="42.56803" lon="2.3694">
        <ele>568</ele>
        <time>2013-07-15T12:40:43Z</time>
      </trkpt>
      <trkpt lat="42.56801" lon="2.36937">
        <ele>568</ele>
        <time>2013-07-15T12:40:46Z</time>
      </trkpt>
      <trkpt lat="42.568" lon="2.36935">
        <ele>568</ele>
        <time>2013-07-15T12:40:49Z</time>
      </trkpt>
      <trkpt lat="42.56798" lon="2.36931">
        <ele>569</ele>
        <time>2013-07-15T12:40:52Z</time>
      </trkpt>
      <trkpt lat="42.56797" lon="2.36927">
        <ele>569</ele>
        <time>2013-07-15T12:40:55Z</time>
      </trkpt>
      <trkpt lat="42.56797" lon="2.36921">
        <ele>569</ele>
        <time>2013-07-15T12:41:01Z</time>
      </trkpt>
      <trkpt lat="42.56796" lon="2.36917">
        <ele>570</ele>
        <time>2013-07-15T12:41:04Z</time>
      </trkpt>
      <trkpt lat="42.56797" lon="2.36915">
        <ele>570</ele>
        <time>2013-07-15T12:41:07Z</time>
      </trkpt>
      <trkpt lat="42.56796" lon="2.3691">
        <ele>572</ele>
        <time>2013-07-15T12:41:10Z</time>
      </trkpt>
      <trkpt lat="42.56796" lon="2.36908">
        <ele>573</ele>
        <time>2013-07-15T12:41:14Z</time>
      </trkpt>
      <trkpt lat="42.56796" lon="2.36903">
        <ele>574</ele>
        <time>2013-07-15T12:41:20Z</time>
      </trkpt>
      <trkpt lat="42.56795" lon="2.36896">
        <ele>576</ele>
        <time>2013-07-15T12:41:23Z</time>
      </trkpt>
      <trkpt lat="42.56795" lon="2.3689">
        <ele>577</ele>
        <time>2013-07-15T12:41:27Z</time>
      </trkpt>
      <trkpt lat="42.56795" lon="2.36888">
        <ele>578</ele>
        <time>2013-07-15T12:41:30Z</time>
      </trkpt>
      <trkpt lat="42.56796" lon="2.36883">
        <ele>579</ele>
        <time>2013-07-15T12:41:32Z</time>
      </trkpt>
      <trkpt lat="42.56798" lon="2.36879">
        <ele>580</ele>
        <time>2013-07-15T12:41:37Z</time>
      </trkpt>
      <trkpt lat="42.56798" lon="2.36875">
        <ele>581</ele>
        <time>2013-07-15T12:41:40Z</time>
      </trkpt>
      <trkpt lat="42.56799" lon="2.36872">
        <ele>581</ele>
        <time>2013-07-15T12:41:43Z</time>
      </trkpt>
      <trkpt lat="42.56799" lon="2.36868">
        <ele>582</ele>
        <time>2013-07-15T12:41:46Z</time>
      </trkpt>
      <trkpt lat="42.56799" lon="2.36865">
        <ele>582</ele>
        <time>2013-07-15T12:41:48Z</time>
      </trkpt>
      <trkpt lat="42.56799" lon="2.36862">
        <ele>583</ele>
        <time>2013-07-15T12:41:53Z</time>
      </trkpt>
      <trkpt lat="42.568" lon="2.36862">
        <ele>585</ele>
        <time>2013-07-15T12:42:02Z</time>
      </trkpt>
      <trkpt lat="42.56801" lon="2.36863">
        <ele>585</ele>
        <time>2013-07-15T12:42:15Z</time>
      </trkpt>
      <trkpt lat="42.56799" lon="2.36862">
        <ele>585</ele>
        <time>2013-07-15T12:42:26Z</time>
      </trkpt>
      <trkpt lat="42.56797" lon="2.36855">
        <ele>585</ele>
        <time>2013-07-15T12:42:31Z</time>
      </trkpt>
      <trkpt lat="42.56795" lon="2.36848">
        <ele>585</ele>
        <time>2013-07-15T12:42:37Z</time>
      </trkpt>
      <trkpt lat="42.56793" lon="2.36843">
        <ele>585</ele>
        <time>2013-07-15T12:42:39Z</time>
      </trkpt>
      <trkpt lat="42.56792" lon="2.3684">
        <ele>585</ele>
        <time>2013-07-15T12:42:42Z</time>
      </trkpt>
      <trkpt lat="42.5679" lon="2.36833">
        <ele>585</ele>
        <time>2013-07-15T12:42:46Z</time>
      </trkpt>
      <trkpt lat="42.56789" lon="2.36829">
        <ele>586</ele>
        <time>2013-07-15T12:42:51Z</time>
      </trkpt>
      <trkpt lat="42.56787" lon="2.36824">
        <ele>588</ele>
        <time>2013-07-15T12:42:53Z</time>
      </trkpt>
      <trkpt lat="42.56785" lon="2.3682">
        <ele>589</ele>
        <time>2013-07-15T12:42:57Z</time>
      </trkpt>
      <trkpt lat="42.56784" lon="2.36816">
        <ele>590</ele>
        <time>2013-07-15T12:43:01Z</time>
      </trkpt>
      <trkpt lat="42.56783" lon="2.36811">
        <ele>591</ele>
        <time>2013-07-15T12:43:05Z</time>
      </trkpt>
      <trkpt lat="42.56783" lon="2.36809">
        <ele>592</ele>
        <time>2013-07-15T12:43:08Z</time>
      </trkpt>
      <trkpt lat="42.56782" lon="2.36806">
        <ele>592</ele>
        <time>2013-07-15T12:43:11Z</time>
      </trkpt>
      <trkpt lat="42.56782" lon="2.36799">
        <ele>592</ele>
        <time>2013-07-15T12:43:13Z</time>
      </trkpt>
      <trkpt lat="42.56782" lon="2.36797">
        <ele>592</ele>
        <time>2013-07-15T12:43:17Z</time>
      </trkpt>
      <trkpt lat="42.56784" lon="2.36793">
        <ele>592</ele>
        <time>2013-07-15T12:43:19Z</time>
      </trkpt>
      <trkpt lat="42.56785" lon="2.3679">
        <ele>593</ele>
        <time>2013-07-15T12:43:22Z</time>
      </trkpt>
      <trkpt lat="42.56786" lon="2.36786">
        <ele>595</ele>
        <time>2013-07-15T12:43:24Z</time>
      </trkpt>
      <trkpt lat="42.56785" lon="2.36783">
        <ele>596</ele>
        <time>2013-07-15T12:43:29Z</time>
      </trkpt>
      <trkpt lat="42.56786" lon="2.36777">
        <ele>597</ele>
        <time>2013-07-15T12:43:34Z</time>
      </trkpt>
      <trkpt lat="42.56785" lon="2.36769">
        <ele>599</ele>
        <time>2013-07-15T12:43:39Z</time>
      </trkpt>
      <trkpt lat="42.56783" lon="2.36765">
        <ele>600</ele>
        <time>2013-07-15T12:43:42Z</time>
      </trkpt>
      <trkpt lat="42.56783" lon="2.36763">
        <ele>601</ele>
        <time>2013-07-15T12:43:45Z</time>
      </trkpt>
      <trkpt lat="42.56781" lon="2.36754">
        <ele>602</ele>
        <time>2013-07-15T12:43:50Z</time>
      </trkpt>
      <trkpt lat="42.5678" lon="2.36751">
        <ele>603</ele>
        <time>2013-07-15T12:43:55Z</time>
      </trkpt>
      <trkpt lat="42.5678" lon="2.36741">
        <ele>604</ele>
        <time>2013-07-15T12:44:01Z</time>
      </trkpt>
      <trkpt lat="42.5678" lon="2.36737">
        <ele>605</ele>
        <time>2013-07-15T12:44:06Z</time>
      </trkpt>
      <trkpt lat="42.56779" lon="2.36729">
        <ele>606</ele>
        <time>2013-07-15T12:44:10Z</time>
      </trkpt>
      <trkpt lat="42.56779" lon="2.36726">
        <ele>606</ele>
        <time>2013-07-15T12:44:13Z</time>
      </trkpt>
      <trkpt lat="42.56779" lon="2.36722">
        <ele>607</ele>
        <time>2013-07-15T12:44:16Z</time>
      </trkpt>
      <trkpt lat="42.56777" lon="2.36716">
        <ele>608</ele>
        <time>2013-07-15T12:44:22Z</time>
      </trkpt>
      <trkpt lat="42.56776" lon="2.36711">
        <ele>610</ele>
        <time>2013-07-15T12:44:24Z</time>
      </trkpt>
      <trkpt lat="42.56775" lon="2.36708">
        <ele>610</ele>
        <time>2013-07-15T12:44:27Z</time>
      </trkpt>
      <trkpt lat="42.56775" lon="2.36704">
        <ele>612</ele>
        <time>2013-07-15T12:44:31Z</time>
      </trkpt>
      <trkpt lat="42.56776" lon="2.36705">
        <ele>613</ele>
        <time>2013-07-15T12:44:37Z</time>
      </trkpt>
      <trkpt lat="42.56775" lon="2.36704">
        <ele>613</ele>
        <time>2013-07-15T12:44:42Z</time>
      </trkpt>
      <trkpt lat="42.56774" lon="2.367">
        <ele>613</ele>
        <time>2013-07-15T12:44:46Z</time>
      </trkpt>
      <trkpt lat="42.56773" lon="2.36695">
        <ele>614</ele>
        <time>2013-07-15T12:44:50Z</time>
      </trkpt>
      <trkpt lat="42.56771" lon="2.3669">
        <ele>615</ele>
        <time>2013-07-15T12:44:55Z</time>
      </trkpt>
      <trkpt lat="42.56769" lon="2.36685">
        <ele>615</ele>
        <time>2013-07-15T12:45:01Z</time>
      </trkpt>
      <trkpt lat="42.56767" lon="2.36683">
        <ele>618</ele>
        <time>2013-07-15T12:45:14Z</time>
      </trkpt>
      <trkpt lat="42.56766" lon="2.36682">
        <ele>618</ele>
        <time>2013-07-15T12:45:17Z</time>
      </trkpt>
      <trkpt lat="42.56766" lon="2.3668">
        <ele>618</ele>
        <time>2013-07-15T12:45:20Z</time>
      </trkpt>
      <trkpt lat="42.56765" lon="2.36675">
        <ele>618</ele>
        <time>2013-07-15T12:45:24Z</time>
      </trkpt>
      <trkpt lat="42.56762" lon="2.36673">
        <ele>618</ele>
        <time>2013-07-15T12:45:27Z</time>
      </trkpt>
      <trkpt lat="42.5676" lon="2.36671">
        <ele>618</ele>
        <time>2013-07-15T12:45:30Z</time>
      </trkpt>
      <trkpt lat="42.56757" lon="2.3667">
        <ele>618</ele>
        <time>2013-07-15T12:45:45Z</time>
      </trkpt>
      <trkpt lat="42.56756" lon="2.36671">
        <ele>618</ele>
        <time>2013-07-15T12:46:02Z</time>
      </trkpt>
      <trkpt lat="42.56755" lon="2.36672">
        <ele>620</ele>
        <time>2013-07-15T12:46:05Z</time>
      </trkpt>
      <trkpt lat="42.56755" lon="2.36673">
        <ele>621</ele>
        <time>2013-07-15T12:46:17Z</time>
      </trkpt>
      <trkpt lat="42.56755" lon="2.36675">
        <ele>622</ele>
        <time>2013-07-15T12:46:23Z</time>
      </trkpt>
      <trkpt lat="42.56756" lon="2.36673">
        <ele>623</ele>
        <time>2013-07-15T12:46:28Z</time>
      </trkpt>
      <trkpt lat="42.56756" lon="2.36675">
        <ele>623</ele>
        <time>2013-07-15T12:46:35Z</time>
      </trkpt>
      <trkpt lat="42.56755" lon="2.36676">
        <ele>623</ele>
        <time>2013-07-15T12:46:39Z</time>
      </trkpt>
      <trkpt lat="42.56755" lon="2.36678">
        <ele>624</ele>
        <time>2013-07-15T12:46:42Z</time>
      </trkpt>
      <trkpt lat="42.56754" lon="2.3668">
        <ele>625</ele>
        <time>2013-07-15T12:46:44Z</time>
      </trkpt>
      <trkpt lat="42.56754" lon="2.36681">
        <ele>625</ele>
        <time>2013-07-15T12:46:51Z</time>
      </trkpt>
      <trkpt lat="42.56755" lon="2.36681">
        <ele>625</ele>
        <time>2013-07-15T12:47:07Z</time>
      </trkpt>
      <trkpt lat="42.56756" lon="2.3668">
        <ele>624</ele>
        <time>2013-07-15T12:47:21Z</time>
      </trkpt>
      <trkpt lat="42.56757" lon="2.3668">
        <ele>620</ele>
        <time>2013-07-15T12:47:29Z</time>
      </trkpt>
      <trkpt lat="42.56757" lon="2.36677">
        <ele>619</ele>
        <time>2013-07-15T12:47:48Z</time>
      </trkpt>
      <trkpt lat="42.56756" lon="2.36674">
        <ele>619</ele>
        <time>2013-07-15T12:48:02Z</time>
      </trkpt>
      <trkpt lat="42.56758" lon="2.36675">
        <ele>619</ele>
        <time>2013-07-15T12:48:14Z</time>
      </trkpt>
      <trkpt lat="42.56759" lon="2.36673">
        <ele>619</ele>
        <time>2013-07-15T12:48:20Z</time>
      </trkpt>
      <trkpt lat="42.56759" lon="2.36665">
        <ele>619</ele>
        <time>2013-07-15T12:48:25Z</time>
      </trkpt>
      <trkpt lat="42.56759" lon="2.36662">
        <ele>619</ele>
        <time>2013-07-15T12:48:28Z</time>
      </trkpt>
      <trkpt lat="42.5676" lon="2.3666">
        <ele>619</ele>
        <time>2013-07-15T12:48:32Z</time>
      </trkpt>
      <trkpt lat="42.5676" lon="2.36654">
        <ele>619</ele>
        <time>2013-07-15T12:48:35Z</time>
      </trkpt>
      <trkpt lat="42.56761" lon="2.3665">
        <ele>619</ele>
        <time>2013-07-15T12:48:37Z</time>
      </trkpt>
      <trkpt lat="42.5676" lon="2.36648">
        <ele>619</ele>
        <time>2013-07-15T12:48:46Z</time>
      </trkpt>
      <trkpt lat="42.56757" lon="2.36649">
        <ele>619</ele>
        <time>2013-07-15T12:48:50Z</time>
      </trkpt>
      <trkpt lat="42.56756" lon="2.3665">
        <ele>619</ele>
        <time>2013-07-15T12:48:53Z</time>
      </trkpt>
      <trkpt lat="42.56758" lon="2.36651">
        <ele>619</ele>
        <time>2013-07-15T12:48:59Z</time>
      </trkpt>
      <trkpt lat="42.5676" lon="2.36651">
        <ele>619</ele>
        <time>2013-07-15T12:49:03Z</time>
      </trkpt>
      <trkpt lat="42.56763" lon="2.36649">
        <ele>619</ele>
        <time>2013-07-15T12:49:06Z</time>
      </trkpt>
      <trkpt lat="42.56766" lon="2.36647">
        <ele>619</ele>
        <time>2013-07-15T12:49:08Z</time>
      </trkpt>
      <trkpt lat="42.56767" lon="2.36647">
        <ele>619</ele>
        <time>2013-07-15T12:49:11Z</time>
      </trkpt>
      <trkpt lat="42.5677" lon="2.36649">
        <ele>619</ele>
        <time>2013-07-15T12:49:16Z</time>
      </trkpt>
      <trkpt lat="42.56774" lon="2.3665">
        <ele>619</ele>
        <time>2013-07-15T12:49:20Z</time>
      </trkpt>
      <trkpt lat="42.56771" lon="2.36649">
        <ele>619</ele>
        <time>2013-07-15T12:49:35Z</time>
      </trkpt>
      <trkpt lat="42.56766" lon="2.36648">
        <ele>619</ele>
        <time>2013-07-15T12:49:41Z</time>
      </trkpt>
      <trkpt lat="42.56764" lon="2.36643">
        <ele>620</ele>
        <time>2013-07-15T12:49:44Z</time>
      </trkpt>
      <trkpt lat="42.56764" lon="2.3664">
        <ele>620</ele>
        <time>2013-07-15T12:49:47Z</time>
      </trkpt>
      <trkpt lat="42.56762" lon="2.36636">
        <ele>620</ele>
        <time>2013-07-15T12:49:52Z</time>
      </trkpt>
      <trkpt lat="42.56759" lon="2.36634">
        <ele>620</ele>
        <time>2013-07-15T12:49:59Z</time>
      </trkpt>
      <trkpt lat="42.56756" lon="2.36632">
        <ele>620</ele>
        <time>2013-07-15T12:50:07Z</time>
      </trkpt>
      <trkpt lat="42.56754" lon="2.36634">
        <ele>620</ele>
        <time>2013-07-15T12:50:15Z</time>
      </trkpt>
      <trkpt lat="42.56751" lon="2.36635">
        <ele>620</ele>
        <time>2013-07-15T12:50:21Z</time>
      </trkpt>
      <trkpt lat="42.56749" lon="2.36635">
        <ele>620</ele>
        <time>2013-07-15T12:50:30Z</time>
      </trkpt>
      <trkpt lat="42.56748" lon="2.36637">
        <ele>621</ele>
        <time>2013-07-15T12:50:34Z</time>
      </trkpt>
      <trkpt lat="42.56746" lon="2.36637">
        <ele>623</ele>
        <time>2013-07-15T12:50:36Z</time>
      </trkpt>
      <trkpt lat="42.56745" lon="2.36636">
        <ele>623</ele>
        <time>2013-07-15T12:50:40Z</time>
      </trkpt>
      <trkpt lat="42.56743" lon="2.36638">
        <ele>624</ele>
        <time>2013-07-15T12:50:54Z</time>
      </trkpt>
      <trkpt lat="42.56742" lon="2.3664">
        <ele>624</ele>
        <time>2013-07-15T12:50:57Z</time>
      </trkpt>
      <trkpt lat="42.56742" lon="2.36644">
        <ele>624</ele>
        <time>2013-07-15T12:51:00Z</time>
      </trkpt>
      <trkpt lat="42.56743" lon="2.36645">
        <ele>624</ele>
        <time>2013-07-15T12:51:06Z</time>
      </trkpt>
      <trkpt lat="42.56745" lon="2.36646">
        <ele>624</ele>
        <time>2013-07-15T12:51:21Z</time>
      </trkpt>
      <trkpt lat="42.56748" lon="2.36654">
        <ele>624</ele>
        <time>2013-07-15T12:51:27Z</time>
      </trkpt>
      <trkpt lat="42.56751" lon="2.36661">
        <ele>624</ele>
        <time>2013-07-15T12:51:32Z</time>
      </trkpt>
      <trkpt lat="42.56752" lon="2.36666">
        <ele>624</ele>
        <time>2013-07-15T12:51:47Z</time>
      </trkpt>
      <trkpt lat="42.56753" lon="2.36669">
        <ele>624</ele>
        <time>2013-07-15T12:51:52Z</time>
      </trkpt>
      <trkpt lat="42.56755" lon="2.36675">
        <ele>624</ele>
        <time>2013-07-15T12:51:57Z</time>
      </trkpt>
      <trkpt lat="42.56758" lon="2.36678">
        <ele>624</ele>
        <time>2013-07-15T12:52:24Z</time>
      </trkpt>
      <trkpt lat="42.56759" lon="2.36679">
        <ele>624</ele>
        <time>2013-07-15T12:52:51Z</time>
      </trkpt>
      <trkpt lat="42.5676" lon="2.36676">
        <ele>624</ele>
        <time>2013-07-15T12:53:25Z</time>
      </trkpt>
      <trkpt lat="42.56762" lon="2.36672">
        <ele>624</ele>
        <time>2013-07-15T12:53:31Z</time>
      </trkpt>
      <trkpt lat="42.5676" lon="2.36669">
        <ele>624</ele>
        <time>2013-07-15T12:53:39Z</time>
      </trkpt>
      <trkpt lat="42.56759" lon="2.36666">
        <ele>624</ele>
        <time>2013-07-15T12:53:44Z</time>
      </trkpt>
      <trkpt lat="42.56759" lon="2.36659">
        <ele>624</ele>
        <time>2013-07-15T12:53:48Z</time>
      </trkpt>
      <trkpt lat="42.56759" lon="2.36657">
        <ele>624</ele>
        <time>2013-07-15T12:53:55Z</time>
      </trkpt>
      <trkpt lat="42.56758" lon="2.36652">
        <ele>624</ele>
        <time>2013-07-15T12:53:59Z</time>
      </trkpt>
      <trkpt lat="42.56756" lon="2.3665">
        <ele>624</ele>
        <time>2013-07-15T12:54:03Z</time>
      </trkpt>
      <trkpt lat="42.56752" lon="2.36645">
        <ele>624</ele>
        <time>2013-07-15T12:54:06Z</time>
      </trkpt>
      <trkpt lat="42.56751" lon="2.36643">
        <ele>624</ele>
        <time>2013-07-15T12:54:09Z</time>
      </trkpt>
      <trkpt lat="42.56749" lon="2.3664">
        <ele>624</ele>
        <time>2013-07-15T12:54:14Z</time>
      </trkpt>
      <trkpt lat="42.56748" lon="2.36636">
        <ele>624</ele>
        <time>2013-07-15T12:54:17Z</time>
      </trkpt>
      <trkpt lat="42.56748" lon="2.36634">
        <ele>624</ele>
        <time>2013-07-15T12:54:22Z</time>
      </trkpt>
      <trkpt lat="42.56749" lon="2.36632">
        <ele>624</ele>
        <time>2013-07-15T12:54:27Z</time>
      </trkpt>
      <trkpt lat="42.56748" lon="2.36632">
        <ele>624</ele>
        <time>2013-07-15T12:54:30Z</time>
      </trkpt>
      <trkpt lat="42.56746" lon="2.3663">
        <ele>624</ele>
        <time>2013-07-15T12:54:34Z</time>
      </trkpt>
      <trkpt lat="42.56744" lon="2.36629">
        <ele>624</ele>
        <time>2013-07-15T12:54:41Z</time>
      </trkpt>
      <trkpt lat="42.56744" lon="2.36625">
        <ele>624</ele>
        <time>2013-07-15T12:54:46Z</time>
      </trkpt>
      <trkpt lat="42.56746" lon="2.36624">
        <ele>624</ele>
        <time>2013-07-15T12:54:49Z</time>
      </trkpt>
      <trkpt lat="42.56745" lon="2.3662">
        <ele>624</ele>
        <time>2013-07-15T12:54:53Z</time>
      </trkpt>
      <trkpt lat="42.56744" lon="2.36618">
        <ele>624</ele>
        <time>2013-07-15T12:54:56Z</time>
      </trkpt>
      <trkpt lat="42.56744" lon="2.36617">
        <ele>624</ele>
        <time>2013-07-15T12:54:59Z</time>
      </trkpt>
      <trkpt lat="42.56741" lon="2.36615">
        <ele>624</ele>
        <time>2013-07-15T12:55:03Z</time>
      </trkpt>
      <trkpt lat="42.5674" lon="2.36614">
        <ele>624</ele>
        <time>2013-07-15T12:55:07Z</time>
      </trkpt>
      <trkpt lat="42.56738" lon="2.36615">
        <ele>624</ele>
        <time>2013-07-15T12:55:09Z</time>
      </trkpt>
      <trkpt lat="42.56737" lon="2.36616">
        <ele>624</ele>
        <time>2013-07-15T12:55:13Z</time>
      </trkpt>
      <trkpt lat="42.56735" lon="2.36615">
        <ele>626</ele>
        <time>2013-07-15T12:55:19Z</time>
      </trkpt>
      <trkpt lat="42.56731" lon="2.36609">
        <ele>626</ele>
        <time>2013-07-15T12:55:23Z</time>
      </trkpt>
      <trkpt lat="42.56729" lon="2.36604">
        <ele>626</ele>
        <time>2013-07-15T12:55:28Z</time>
      </trkpt>
      <trkpt lat="42.56727" lon="2.36601">
        <ele>626</ele>
        <time>2013-07-15T12:55:35Z</time>
      </trkpt>
      <trkpt lat="42.56726" lon="2.36601">
        <ele>626</ele>
        <time>2013-07-15T12:55:41Z</time>
      </trkpt>
      <trkpt lat="42.56729" lon="2.36598">
        <ele>629</ele>
        <time>2013-07-15T12:55:48Z</time>
      </trkpt>
      <trkpt lat="42.5673" lon="2.36594">
        <ele>632</ele>
        <time>2013-07-15T12:55:54Z</time>
      </trkpt>
      <trkpt lat="42.5673" lon="2.36591">
        <ele>632</ele>
        <time>2013-07-15T12:55:57Z</time>
      </trkpt>
      <trkpt lat="42.5673" lon="2.36589">
        <ele>632</ele>
        <time>2013-07-15T12:56:01Z</time>
      </trkpt>
      <trkpt lat="42.56729" lon="2.36588">
        <ele>632</ele>
        <time>2013-07-15T12:56:07Z</time>
      </trkpt>
      <trkpt lat="42.56727" lon="2.36589">
        <ele>630</ele>
        <time>2013-07-15T12:56:14Z</time>
      </trkpt>
      <trkpt lat="42.56728" lon="2.36588">
        <ele>632</ele>
        <time>2013-07-15T12:56:44Z</time>
      </trkpt>
      <trkpt lat="42.56729" lon="2.36587">
        <ele>635</ele>
        <time>2013-07-15T12:56:55Z</time>
      </trkpt>
      <trkpt lat="42.5673" lon="2.36588">
        <ele>635</ele>
        <time>2013-07-15T12:57:02Z</time>
      </trkpt>
      <trkpt lat="42.56731" lon="2.36587">
        <ele>635</ele>
        <time>2013-07-15T12:57:09Z</time>
      </trkpt>
      <trkpt lat="42.56734" lon="2.36587">
        <ele>635</ele>
        <time>2013-07-15T12:57:18Z</time>
      </trkpt>
      <trkpt lat="42.56736" lon="2.36586">
        <ele>635</ele>
        <time>2013-07-15T12:57:24Z</time>
      </trkpt>
      <trkpt lat="42.56741" lon="2.36584">
        <ele>635</ele>
        <time>2013-07-15T12:57:28Z</time>
      </trkpt>
      <trkpt lat="42.56742" lon="2.36582">
        <ele>635</ele>
        <time>2013-07-15T12:57:31Z</time>
      </trkpt>
      <trkpt lat="42.56742" lon="2.3658">
        <ele>635</ele>
        <time>2013-07-15T12:57:37Z</time>
      </trkpt>
      <trkpt lat="42.56741" lon="2.36579">
        <ele>635</ele>
        <time>2013-07-15T12:57:47Z</time>
      </trkpt>
      <trkpt lat="42.56743" lon="2.36577">
        <ele>635</ele>
        <time>2013-07-15T12:57:51Z</time>
      </trkpt>
      <trkpt lat="42.56744" lon="2.36577">
        <ele>634</ele>
        <time>2013-07-15T12:57:53Z</time>
      </trkpt>
      <trkpt lat="42.56746" lon="2.3658">
        <ele>632</ele>
        <time>2013-07-15T12:57:58Z</time>
      </trkpt>
      <trkpt lat="42.56747" lon="2.36583">
        <ele>630</ele>
        <time>2013-07-15T12:58:00Z</time>
      </trkpt>
      <trkpt lat="42.56747" lon="2.36586">
        <ele>629</ele>
        <time>2013-07-15T12:58:03Z</time>
      </trkpt>
      <trkpt lat="42.56746" lon="2.36589">
        <ele>626</ele>
        <time>2013-07-15T12:58:06Z</time>
      </trkpt>
      <trkpt lat="42.56746" lon="2.36593">
        <ele>624</ele>
        <time>2013-07-15T12:58:10Z</time>
      </trkpt>
      <trkpt lat="42.56747" lon="2.36598">
        <ele>623</ele>
        <time>2013-07-15T12:58:13Z</time>
      </trkpt>
      <trkpt lat="42.5675" lon="2.36599">
        <ele>623</ele>
        <time>2013-07-15T12:58:17Z</time>
      </trkpt>
      <trkpt lat="42.56752" lon="2.36596">
        <ele>623</ele>
        <time>2013-07-15T12:58:20Z</time>
      </trkpt>
      <trkpt lat="42.56755" lon="2.36599">
        <ele>623</ele>
        <time>2013-07-15T12:58:24Z</time>
      </trkpt>
      <trkpt lat="42.56757" lon="2.36603">
        <ele>623</ele>
        <time>2013-07-15T12:58:29Z</time>
      </trkpt>
      <trkpt lat="42.5676" lon="2.36605">
        <ele>622</ele>
        <time>2013-07-15T12:58:34Z</time>
      </trkpt>
      <trkpt lat="42.56763" lon="2.36604">
        <ele>622</ele>
        <time>2013-07-15T12:58:39Z</time>
      </trkpt>
      <trkpt lat="42.56764" lon="2.36604">
        <ele>622</ele>
        <time>2013-07-15T12:58:42Z</time>
      </trkpt>
      <trkpt lat="42.56765" lon="2.36602">
        <ele>621</ele>
        <time>2013-07-15T12:58:46Z</time>
      </trkpt>
      <trkpt lat="42.56766" lon="2.36601">
        <ele>621</ele>
        <time>2013-07-15T12:58:52Z</time>
      </trkpt>
      <trkpt lat="42.56767" lon="2.36598">
        <ele>621</ele>
        <time>2013-07-15T12:58:59Z</time>
      </trkpt>
      <trkpt lat="42.56765" lon="2.366">
        <ele>622</ele>
        <time>2013-07-15T12:59:06Z</time>
      </trkpt>
      <trkpt lat="42.56764" lon="2.36602">
        <ele>623</ele>
        <time>2013-07-15T12:59:11Z</time>
      </trkpt>
      <trkpt lat="42.56763" lon="2.36607">
        <ele>623</ele>
        <time>2013-07-15T12:59:14Z</time>
      </trkpt>
      <trkpt lat="42.56764" lon="2.36609">
        <ele>623</ele>
        <time>2013-07-15T12:59:17Z</time>
      </trkpt>
      <trkpt lat="42.56763" lon="2.36613">
        <ele>623</ele>
        <time>2013-07-15T12:59:21Z</time>
      </trkpt>
      <trkpt lat="42.56764" lon="2.36614">
        <ele>623</ele>
        <time>2013-07-15T12:59:28Z</time>
      </trkpt>
      <trkpt lat="42.56766" lon="2.36615">
        <ele>623</ele>
        <time>2013-07-15T12:59:40Z</time>
      </trkpt>
      <trkpt lat="42.56767" lon="2.36615">
        <ele>623</ele>
        <time>2013-07-15T12:59:48Z</time>
      </trkpt>
      <trkpt lat="42.56765" lon="2.36614">
        <ele>623</ele>
        <time>2013-07-15T13:00:07Z</time>
      </trkpt>
      <trkpt lat="42.56765" lon="2.3661">
        <ele>624</ele>
        <time>2013-07-15T13:00:14Z</time>
      </trkpt>
      <trkpt lat="42.56765" lon="2.36607">
        <ele>630</ele>
        <time>2013-07-15T13:00:26Z</time>
      </trkpt>
      <trkpt lat="42.56762" lon="2.36607">
        <ele>632</ele>
        <time>2013-07-15T13:00:35Z</time>
      </trkpt>
      <trkpt lat="42.56761" lon="2.36609">
        <ele>632</ele>
        <time>2013-07-15T13:00:42Z</time>
      </trkpt>
      <trkpt lat="42.5676" lon="2.3661">
        <ele>632</ele>
        <time>2013-07-15T13:00:56Z</time>
      </trkpt>
      <trkpt lat="42.56759" lon="2.36612">
        <ele>630</ele>
        <time>2013-07-15T13:01:23Z</time>
      </trkpt>
      <trkpt lat="42.56758" lon="2.3661">
        <ele>629</ele>
        <time>2013-07-15T13:01:29Z</time>
      </trkpt>
      <trkpt lat="42.56757" lon="2.36609">
        <ele>629</ele>
        <time>2013-07-15T13:01:33Z</time>
      </trkpt>
      <trkpt lat="42.56755" lon="2.36606">
        <ele>629</ele>
        <time>2013-07-15T13:01:36Z</time>
      </trkpt>
      <trkpt lat="42.56754" lon="2.36604">
        <ele>628</ele>
        <time>2013-07-15T13:01:39Z</time>
      </trkpt>
      <trkpt lat="42.56753" lon="2.36601">
        <ele>628</ele>
        <time>2013-07-15T13:01:53Z</time>
      </trkpt>
      <trkpt lat="42.56753" lon="2.36599">
        <ele>627</ele>
        <time>2013-07-15T13:01:58Z</time>
      </trkpt>
      <trkpt lat="42.56751" lon="2.36598">
        <ele>627</ele>
        <time>2013-07-15T13:02:00Z</time>
      </trkpt>
      <trkpt lat="42.5675" lon="2.36596">
        <ele>627</ele>
        <time>2013-07-15T13:02:04Z</time>
      </trkpt>
      <trkpt lat="42.56749" lon="2.36598">
        <ele>626</ele>
        <time>2013-07-15T13:02:16Z</time>
      </trkpt>
      <trkpt lat="42.56748" lon="2.36597">
        <ele>625</ele>
        <time>2013-07-15T13:02:23Z</time>
      </trkpt>
      <trkpt lat="42.56748" lon="2.36595">
        <ele>624</ele>
        <time>2013-07-15T13:02:26Z</time>
      </trkpt>
      <trkpt lat="42.56747" lon="2.36592">
        <ele>624</ele>
        <time>2013-07-15T13:02:31Z</time>
      </trkpt>
      <trkpt lat="42.56748" lon="2.36588">
        <ele>624</ele>
        <time>2013-07-15T13:02:36Z</time>
      </trkpt>
      <trkpt lat="42.56747" lon="2.36591">
        <ele>623</ele>
        <time>2013-07-15T13:02:55Z</time>
      </trkpt>
      <trkpt lat="42.56746" lon="2.36592">
        <ele>623</ele>
        <time>2013-07-15T13:02:58Z</time>
      </trkpt>
      <trkpt lat="42.56749" lon="2.36593">
        <ele>623</ele>
        <time>2013-07-15T13:03:03Z</time>
      </trkpt>
      <trkpt lat="42.56749" lon="2.36595">
        <ele>623</ele>
        <time>2013-07-15T13:03:07Z</time>
      </trkpt>
      <trkpt lat="42.56754" lon="2.36596">
        <ele>622</ele>
        <time>2013-07-15T13:03:11Z</time>
      </trkpt>
      <trkpt lat="42.56756" lon="2.36596">
        <ele>622</ele>
        <time>2013-07-15T13:03:15Z</time>
      </trkpt>
      <trkpt lat="42.56757" lon="2.36596">
        <ele>622</ele>
        <time>2013-07-15T13:03:20Z</time>
      </trkpt>
      <trkpt lat="42.56758" lon="2.366">
        <ele>622</ele>
        <time>2013-07-15T13:03:26Z</time>
      </trkpt>
      <trkpt lat="42.56761" lon="2.36602">
        <ele>625</ele>
        <time>2013-07-15T13:03:33Z</time>
      </trkpt>
      <trkpt lat="42.56759" lon="2.36602">
        <ele>626</ele>
        <time>2013-07-15T13:03:35Z</time>
      </trkpt>
      <trkpt lat="42.56758" lon="2.36602">
        <ele>626</ele>
        <time>2013-07-15T13:03:39Z</time>
      </trkpt>
      <trkpt lat="42.56757" lon="2.36603">
        <ele>627</ele>
        <time>2013-07-15T13:03:45Z</time>
      </trkpt>
      <trkpt lat="42.56755" lon="2.36604">
        <ele>627</ele>
        <time>2013-07-15T13:03:51Z</time>
      </trkpt>
      <trkpt lat="42.56756" lon="2.36603">
        <ele>627</ele>
        <time>2013-07-15T13:03:58Z</time>
      </trkpt>
      <trkpt lat="42.56755" lon="2.36604">
        <ele>627</ele>
        <time>2013-07-15T13:04:02Z</time>
      </trkpt>
      <trkpt lat="42.56756" lon="2.36604">
        <ele>626</ele>
        <time>2013-07-15T13:04:09Z</time>
      </trkpt>
      <trkpt lat="42.56754" lon="2.36603">
        <ele>624</ele>
        <time>2013-07-15T13:04:15Z</time>
      </trkpt>
      <trkpt lat="42.56753" lon="2.36603">
        <ele>623</ele>
        <time>2013-07-15T13:04:21Z</time>
      </trkpt>
      <trkpt lat="42.56754" lon="2.36602">
        <ele>623</ele>
        <time>2013-07-15T13:04:42Z</time>
      </trkpt>
      <trkpt lat="42.5675" lon="2.36603">
        <ele>623</ele>
        <time>2013-07-15T13:04:51Z</time>
      </trkpt>
      <trkpt lat="42.56749" lon="2.36604">
        <ele>623</ele>
        <time>2013-07-15T13:04:56Z</time>
      </trkpt>
      <trkpt lat="42.56751" lon="2.36602">
        <ele>623</ele>
        <time>2013-07-15T13:05:07Z</time>
      </trkpt>
      <trkpt lat="42.56749" lon="2.36603">
        <ele>624</ele>
        <time>2013-07-15T13:05:14Z</time>
      </trkpt>
      <trkpt lat="42.56747" lon="2.36604">
        <ele>624</ele>
        <time>2013-07-15T13:05:20Z</time>
      </trkpt>
      <trkpt lat="42.56746" lon="2.36604">
        <ele>624</ele>
        <time>2013-07-15T13:05:24Z</time>
      </trkpt>
      <trkpt lat="42.56745" lon="2.36605">
        <ele>624</ele>
        <time>2013-07-15T13:05:28Z</time>
      </trkpt>
      <trkpt lat="42.56747" lon="2.36604">
        <ele>624</ele>
        <time>2013-07-15T13:05:49Z</time>
      </trkpt>
      <trkpt lat="42.56751" lon="2.36603">
        <ele>624</ele>
        <time>2013-07-15T13:05:52Z</time>
      </trkpt>
      <trkpt lat="42.5675" lon="2.36604">
        <ele>624</ele>
        <time>2013-07-15T13:05:56Z</time>
      </trkpt>
      <trkpt lat="42.56746" lon="2.36607">
        <ele>625</ele>
        <time>2013-07-15T13:06:04Z</time>
      </trkpt>
      <trkpt lat="42.56745" lon="2.36607">
        <ele>626</ele>
        <time>2013-07-15T13:06:09Z</time>
      </trkpt>
      <trkpt lat="42.56746" lon="2.36608">
        <ele>628</ele>
        <time>2013-07-15T13:06:19Z</time>
      </trkpt>
      <trkpt lat="42.5675" lon="2.36605">
        <ele>628</ele>
        <time>2013-07-15T13:06:24Z</time>
      </trkpt>
      <trkpt lat="42.56751" lon="2.36603">
        <ele>628</ele>
        <time>2013-07-15T13:06:29Z</time>
      </trkpt>
      <trkpt lat="42.56752" lon="2.366">
        <ele>628</ele>
        <time>2013-07-15T13:06:31Z</time>
      </trkpt>
      <trkpt lat="42.56754" lon="2.36601">
        <ele>628</ele>
        <time>2013-07-15T13:06:35Z</time>
      </trkpt>
      <trkpt lat="42.56754" lon="2.36602">
        <ele>628</ele>
        <time>2013-07-15T13:06:37Z</time>
      </trkpt>
      <trkpt lat="42.56753" lon="2.36604">
        <ele>629</ele>
        <time>2013-07-15T13:06:44Z</time>
      </trkpt>
      <trkpt lat="42.56751" lon="2.36606">
        <ele>630</ele>
        <time>2013-07-15T13:06:48Z</time>
      </trkpt>
      <trkpt lat="42.5675" lon="2.36607">
        <ele>632</ele>
        <time>2013-07-15T13:06:54Z</time>
      </trkpt>
      <trkpt lat="42.56749" lon="2.36606">
        <ele>632</ele>
        <time>2013-07-15T13:06:57Z</time>
      </trkpt>
      <trkpt lat="42.56747" lon="2.36606">
        <ele>632</ele>
        <time>2013-07-15T13:07:02Z</time>
      </trkpt>
      <trkpt lat="42.56745" lon="2.36605">
        <ele>631</ele>
        <time>2013-07-15T13:07:05Z</time>
      </trkpt>
      <trkpt lat="42.56747" lon="2.36603">
        <ele>629</ele>
        <time>2013-07-15T13:07:10Z</time>
      </trkpt>
      <trkpt lat="42.5675" lon="2.36601">
        <ele>627</ele>
        <time>2013-07-15T13:07:16Z</time>
      </trkpt>
      <trkpt lat="42.56752" lon="2.36601">
        <ele>624</ele>
        <time>2013-07-15T13:07:24Z</time>
      </trkpt>
      <trkpt lat="42.56754" lon="2.36603">
        <ele>624</ele>
        <time>2013-07-15T13:07:32Z</time>
      </trkpt>
      <trkpt lat="42.56755" lon="2.36603">
        <ele>624</ele>
        <time>2013-07-15T13:07:34Z</time>
      </trkpt>
      <trkpt lat="42.56756" lon="2.36604">
        <ele>626</ele>
        <time>2013-07-15T13:07:39Z</time>
      </trkpt>
      <trkpt lat="42.56755" lon="2.36605">
        <ele>629</ele>
        <time>2013-07-15T13:07:52Z</time>
      </trkpt>
      <trkpt lat="42.56754" lon="2.36605">
        <ele>629</ele>
        <time>2013-07-15T13:07:59Z</time>
      </trkpt>
      <trkpt lat="42.56753" lon="2.36605">
        <ele>629</ele>
        <time>2013-07-15T13:08:05Z</time>
      </trkpt>
      <trkpt lat="42.56751" lon="2.36604">
        <ele>629</ele>
        <time>2013-07-15T13:08:12Z</time>
      </trkpt>
      <trkpt lat="42.56753" lon="2.36603">
        <ele>627</ele>
        <time>2013-07-15T13:08:18Z</time>
      </trkpt>
      <trkpt lat="42.56756" lon="2.36601">
        <ele>626</ele>
        <time>2013-07-15T13:08:20Z</time>
      </trkpt>
      <trkpt lat="42.56758" lon="2.366">
        <ele>626</ele>
        <time>2013-07-15T13:08:25Z</time>
      </trkpt>
      <trkpt lat="42.56756" lon="2.366">
        <ele>626</ele>
        <time>2013-07-15T13:08:28Z</time>
      </trkpt>
      <trkpt lat="42.56755" lon="2.366">
        <ele>626</ele>
        <time>2013-07-15T13:08:33Z</time>
      </trkpt>
      <trkpt lat="42.56756" lon="2.36603">
        <ele>626</ele>
        <time>2013-07-15T13:08:39Z</time>
      </trkpt>
      <trkpt lat="42.56758" lon="2.36605">
        <ele>626</ele>
        <time>2013-07-15T13:08:42Z</time>
      </trkpt>
      <trkpt lat="42.56759" lon="2.36607">
        <ele>626</ele>
        <time>2013-07-15T13:08:45Z</time>
      </trkpt>
      <trkpt lat="42.56762" lon="2.36612">
        <ele>626</ele>
        <time>2013-07-15T13:08:49Z</time>
      </trkpt>
      <trkpt lat="42.56766" lon="2.36618">
        <ele>626</ele>
        <time>2013-07-15T13:08:54Z</time>
      </trkpt>
      <trkpt lat="42.56766" lon="2.36622">
        <ele>626</ele>
        <time>2013-07-15T13:09:09Z</time>
      </trkpt>
      <trkpt lat="42.56767" lon="2.36623">
        <ele>626</ele>
        <time>2013-07-15T13:09:23Z</time>
      </trkpt>
      <trkpt lat="42.56767" lon="2.36628">
        <ele>626</ele>
        <time>2013-07-15T13:09:27Z</time>
      </trkpt>
      <trkpt lat="42.56767" lon="2.3663">
        <ele>626</ele>
        <time>2013-07-15T13:09:30Z</time>
      </trkpt>
      <trkpt lat="42.56767" lon="2.36639">
        <ele>626</ele>
        <time>2013-07-15T13:09:36Z</time>
      </trkpt>
      <trkpt lat="42.56765" lon="2.36643">
        <ele>626</ele>
        <time>2013-07-15T13:09:39Z</time>
      </trkpt>
      <trkpt lat="42.56764" lon="2.36645">
        <ele>626</ele>
        <time>2013-07-15T13:09:43Z</time>
      </trkpt>
      <trkpt lat="42.56761" lon="2.3665">
        <ele>626</ele>
        <time>2013-07-15T13:09:47Z</time>
      </trkpt>
      <trkpt lat="42.56758" lon="2.36651">
        <ele>626</ele>
        <time>2013-07-15T13:09:50Z</time>
      </trkpt>
      <trkpt lat="42.56756" lon="2.36651">
        <ele>626</ele>
        <time>2013-07-15T13:09:52Z</time>
      </trkpt>
      <trkpt lat="42.56754" lon="2.3665">
        <ele>626</ele>
        <time>2013-07-15T13:09:55Z</time>
      </trkpt>
      <trkpt lat="42.56755" lon="2.36648">
        <ele>626</ele>
        <time>2013-07-15T13:09:58Z</time>
      </trkpt>
      <trkpt lat="42.56754" lon="2.36649">
        <ele>626</ele>
        <time>2013-07-15T13:10:03Z</time>
      </trkpt>
      <trkpt lat="42.56755" lon="2.36651">
        <ele>626</ele>
        <time>2013-07-15T13:10:30Z</time>
      </trkpt>
      <trkpt lat="42.56753" lon="2.36651">
        <ele>626</ele>
        <time>2013-07-15T13:10:48Z</time>
      </trkpt>
      <trkpt lat="42.5675" lon="2.36652">
        <ele>626</ele>
        <time>2013-07-15T13:10:51Z</time>
      </trkpt>
      <trkpt lat="42.56749" lon="2.36653">
        <ele>626</ele>
        <time>2013-07-15T13:10:53Z</time>
      </trkpt>
      <trkpt lat="42.5675" lon="2.36653">
        <ele>626</ele>
        <time>2013-07-15T13:10:59Z</time>
      </trkpt>
      <trkpt lat="42.56751" lon="2.36652">
        <ele>626</ele>
        <time>2013-07-15T13:11:03Z</time>
      </trkpt>
      <trkpt lat="42.5675" lon="2.36649">
        <ele>626</ele>
        <time>2013-07-15T13:11:20Z</time>
      </trkpt>
      <trkpt lat="42.56746" lon="2.36645">
        <ele>626</ele>
        <time>2013-07-15T13:11:23Z</time>
      </trkpt>
      <trkpt lat="42.56741" lon="2.36645">
        <ele>626</ele>
        <time>2013-07-15T13:11:27Z</time>
      </trkpt>
      <trkpt lat="42.56733" lon="2.36643">
        <ele>626</ele>
        <time>2013-07-15T13:11:32Z</time>
      </trkpt>
      <trkpt lat="42.56724" lon="2.36641">
        <ele>626</ele>
        <time>2013-07-15T13:11:37Z</time>
      </trkpt>
      <trkpt lat="42.56721" lon="2.3664">
        <ele>626</ele>
        <time>2013-07-15T13:11:40Z</time>
      </trkpt>
      <trkpt lat="42.56716" lon="2.36639">
        <ele>626</ele>
        <time>2013-07-15T13:11:45Z</time>
      </trkpt>
      <trkpt lat="42.56709" lon="2.36641">
        <ele>626</ele>
        <time>2013-07-15T13:11:47Z</time>
      </trkpt>
      <trkpt lat="42.56707" lon="2.36641">
        <ele>626</ele>
        <time>2013-07-15T13:11:50Z</time>
      </trkpt>
      <trkpt lat="42.56697" lon="2.36642">
        <ele>626</ele>
        <time>2013-07-15T13:11:55Z</time>
      </trkpt>
      <trkpt lat="42.5669" lon="2.36642">
        <ele>626</ele>
        <time>2013-07-15T13:12:00Z</time>
      </trkpt>
      <trkpt lat="42.56685" lon="2.36641">
        <ele>626</ele>
        <time>2013-07-15T13:12:05Z</time>
      </trkpt>
      <trkpt lat="42.5668" lon="2.36639">
        <ele>626</ele>
        <time>2013-07-15T13:12:10Z</time>
      </trkpt>
      <trkpt lat="42.56675" lon="2.36637">
        <ele>626</ele>
        <time>2013-07-15T13:12:15Z</time>
      </trkpt>
      <trkpt lat="42.56669" lon="2.3664">
        <ele>626</ele>
        <time>2013-07-15T13:12:20Z</time>
      </trkpt>
      <trkpt lat="42.5666" lon="2.36641">
        <ele>629</ele>
        <time>2013-07-15T13:12:25Z</time>
      </trkpt>
      <trkpt lat="42.56657" lon="2.36641">
        <ele>632</ele>
        <time>2013-07-15T13:12:30Z</time>
      </trkpt>
      <trkpt lat="42.56648" lon="2.36641">
        <ele>635</ele>
        <time>2013-07-15T13:12:35Z</time>
      </trkpt>
      <trkpt lat="42.5664" lon="2.3664">
        <ele>638</ele>
        <time>2013-07-15T13:12:40Z</time>
      </trkpt>
      <trkpt lat="42.56635" lon="2.36638">
        <ele>638</ele>
        <time>2013-07-15T13:12:45Z</time>
      </trkpt>
      <trkpt lat="42.56629" lon="2.36636">
        <ele>638</ele>
        <time>2013-07-15T13:12:50Z</time>
      </trkpt>
      <trkpt lat="42.56625" lon="2.36636">
        <ele>639</ele>
        <time>2013-07-15T13:12:54Z</time>
      </trkpt>
      <trkpt lat="42.56622" lon="2.36636">
        <ele>639</ele>
        <time>2013-07-15T13:12:57Z</time>
      </trkpt>
      <trkpt lat="42.56618" lon="2.36633">
        <ele>639</ele>
        <time>2013-07-15T13:12:59Z</time>
      </trkpt>
      <trkpt lat="42.56616" lon="2.36632">
        <ele>639</ele>
        <time>2013-07-15T13:13:03Z</time>
      </trkpt>
      <trkpt lat="42.56608" lon="2.36631">
        <ele>639</ele>
        <time>2013-07-15T13:13:07Z</time>
      </trkpt>
      <trkpt lat="42.56602" lon="2.36631">
        <ele>639</ele>
        <time>2013-07-15T13:13:10Z</time>
      </trkpt>
      <trkpt lat="42.56599" lon="2.3663">
        <ele>639</ele>
        <time>2013-07-15T13:13:13Z</time>
      </trkpt>
      <trkpt lat="42.56593" lon="2.36629">
        <ele>639</ele>
        <time>2013-07-15T13:13:18Z</time>
      </trkpt>
      <trkpt lat="42.56588" lon="2.36628">
        <ele>641</ele>
        <time>2013-07-15T13:13:25Z</time>
      </trkpt>
      <trkpt lat="42.56581" lon="2.36626">
        <ele>642</ele>
        <time>2013-07-15T13:13:30Z</time>
      </trkpt>
      <trkpt lat="42.56576" lon="2.36624">
        <ele>642</ele>
        <time>2013-07-15T13:13:35Z</time>
      </trkpt>
      <trkpt lat="42.56568" lon="2.36624">
        <ele>642</ele>
        <time>2013-07-15T13:13:40Z</time>
      </trkpt>
      <trkpt lat="42.56563" lon="2.36623">
        <ele>642</ele>
        <time>2013-07-15T13:13:42Z</time>
      </trkpt>
      <trkpt lat="42.56562" lon="2.36623">
        <ele>642</ele>
        <time>2013-07-15T13:13:45Z</time>
      </trkpt>
      <trkpt lat="42.56559" lon="2.36624">
        <ele>642</ele>
        <time>2013-07-15T13:13:48Z</time>
      </trkpt>
      <trkpt lat="42.56557" lon="2.36625">
        <ele>642</ele>
        <time>2013-07-15T13:13:52Z</time>
      </trkpt>
      <trkpt lat="42.56553" lon="2.36626">
        <ele>642</ele>
        <time>2013-07-15T13:13:56Z</time>
      </trkpt>
      <trkpt lat="42.56548" lon="2.36628">
        <ele>643</ele>
        <time>2013-07-15T13:14:01Z</time>
      </trkpt>
      <trkpt lat="42.56542" lon="2.3663">
        <ele>647</ele>
        <time>2013-07-15T13:14:07Z</time>
      </trkpt>
      <trkpt lat="42.56539" lon="2.3663">
        <ele>648</ele>
        <time>2013-07-15T13:14:11Z</time>
      </trkpt>
      <trkpt lat="42.56531" lon="2.36633">
        <ele>649</ele>
        <time>2013-07-15T13:14:16Z</time>
      </trkpt>
      <trkpt lat="42.56527" lon="2.36635">
        <ele>649</ele>
        <time>2013-07-15T13:14:21Z</time>
      </trkpt>
      <trkpt lat="42.56524" lon="2.36636">
        <ele>649</ele>
        <time>2013-07-15T13:14:24Z</time>
      </trkpt>
      <trkpt lat="42.56521" lon="2.36637">
        <ele>649</ele>
        <time>2013-07-15T13:14:28Z</time>
      </trkpt>
      <trkpt lat="42.56515" lon="2.36637">
        <ele>649</ele>
        <time>2013-07-15T13:14:32Z</time>
      </trkpt>
      <trkpt lat="42.56508" lon="2.36638">
        <ele>649</ele>
        <time>2013-07-15T13:14:35Z</time>
      </trkpt>
      <trkpt lat="42.56505" lon="2.36638">
        <ele>648</ele>
        <time>2013-07-15T13:14:38Z</time>
      </trkpt>
      <trkpt lat="42.56498" lon="2.36636">
        <ele>645</ele>
        <time>2013-07-15T13:14:43Z</time>
      </trkpt>
      <trkpt lat="42.56491" lon="2.36636">
        <ele>644</ele>
        <time>2013-07-15T13:14:48Z</time>
      </trkpt>
      <trkpt lat="42.56484" lon="2.36635">
        <ele>644</ele>
        <time>2013-07-15T13:14:55Z</time>
      </trkpt>
      <trkpt lat="42.56475" lon="2.36636">
        <ele>644</ele>
        <time>2013-07-15T13:14:57Z</time>
      </trkpt>
      <trkpt lat="42.56472" lon="2.36636">
        <ele>644</ele>
        <time>2013-07-15T13:15:00Z</time>
      </trkpt>
      <trkpt lat="42.56467" lon="2.36635">
        <ele>644</ele>
        <time>2013-07-15T13:15:05Z</time>
      </trkpt>
      <trkpt lat="42.56462" lon="2.36637">
        <ele>644</ele>
        <time>2013-07-15T13:15:07Z</time>
      </trkpt>
      <trkpt lat="42.56458" lon="2.36636">
        <ele>644</ele>
        <time>2013-07-15T13:15:11Z</time>
      </trkpt>
      <trkpt lat="42.56454" lon="2.36635">
        <ele>646</ele>
        <time>2013-07-15T13:15:16Z</time>
      </trkpt>
      <trkpt lat="42.56449" lon="2.36635">
        <ele>647</ele>
        <time>2013-07-15T13:15:19Z</time>
      </trkpt>
      <trkpt lat="42.56448" lon="2.36635">
        <ele>647</ele>
        <time>2013-07-15T13:15:22Z</time>
      </trkpt>
      <trkpt lat="42.56441" lon="2.36635">
        <ele>647</ele>
        <time>2013-07-15T13:15:28Z</time>
      </trkpt>
      <trkpt lat="42.56437" lon="2.36636">
        <ele>647</ele>
        <time>2013-07-15T13:15:32Z</time>
      </trkpt>
      <trkpt lat="42.56433" lon="2.36635">
        <ele>647</ele>
        <time>2013-07-15T13:15:37Z</time>
      </trkpt>
      <trkpt lat="42.56426" lon="2.36636">
        <ele>647</ele>
        <time>2013-07-15T13:15:42Z</time>
      </trkpt>
      <trkpt lat="42.56422" lon="2.36636">
        <ele>647</ele>
        <time>2013-07-15T13:15:45Z</time>
      </trkpt>
      <trkpt lat="42.56419" lon="2.36636">
        <ele>647</ele>
        <time>2013-07-15T13:15:48Z</time>
      </trkpt>
      <trkpt lat="42.56413" lon="2.36636">
        <ele>647</ele>
        <time>2013-07-15T13:15:53Z</time>
      </trkpt>
      <trkpt lat="42.56406" lon="2.36637">
        <ele>647</ele>
        <time>2013-07-15T13:15:58Z</time>
      </trkpt>
      <trkpt lat="42.56399" lon="2.36639">
        <ele>647</ele>
        <time>2013-07-15T13:16:03Z</time>
      </trkpt>
      <trkpt lat="42.56395" lon="2.36639">
        <ele>647</ele>
        <time>2013-07-15T13:16:06Z</time>
      </trkpt>
      <trkpt lat="42.56393" lon="2.36639">
        <ele>647</ele>
        <time>2013-07-15T13:16:09Z</time>
      </trkpt>
      <trkpt lat="42.56388" lon="2.3664">
        <ele>647</ele>
        <time>2013-07-15T13:16:12Z</time>
      </trkpt>
      <trkpt lat="42.56386" lon="2.36641">
        <ele>647</ele>
        <time>2013-07-15T13:16:16Z</time>
      </trkpt>
      <trkpt lat="42.5638" lon="2.36644">
        <ele>648</ele>
        <time>2013-07-15T13:16:21Z</time>
      </trkpt>
      <trkpt lat="42.56375" lon="2.36643">
        <ele>649</ele>
        <time>2013-07-15T13:16:26Z</time>
      </trkpt>
      <trkpt lat="42.56369" lon="2.36647">
        <ele>651</ele>
        <time>2013-07-15T13:16:28Z</time>
      </trkpt>
      <trkpt lat="42.56367" lon="2.36649">
        <ele>652</ele>
        <time>2013-07-15T13:16:32Z</time>
      </trkpt>
      <trkpt lat="42.56363" lon="2.36651">
        <ele>655</ele>
        <time>2013-07-15T13:16:35Z</time>
      </trkpt>
      <trkpt lat="42.56361" lon="2.36653">
        <ele>655</ele>
        <time>2013-07-15T13:16:38Z</time>
      </trkpt>
      <trkpt lat="42.56355" lon="2.36653">
        <ele>655</ele>
        <time>2013-07-15T13:16:42Z</time>
      </trkpt>
      <trkpt lat="42.56352" lon="2.36653">
        <ele>655</ele>
        <time>2013-07-15T13:16:47Z</time>
      </trkpt>
      <trkpt lat="42.56347" lon="2.3665">
        <ele>655</ele>
        <time>2013-07-15T13:16:49Z</time>
      </trkpt>
      <trkpt lat="42.56343" lon="2.36651">
        <ele>655</ele>
        <time>2013-07-15T13:16:53Z</time>
      </trkpt>
      <trkpt lat="42.56338" lon="2.3665">
        <ele>655</ele>
        <time>2013-07-15T13:16:58Z</time>
      </trkpt>
      <trkpt lat="42.56331" lon="2.36652">
        <ele>655</ele>
        <time>2013-07-15T13:17:00Z</time>
      </trkpt>
      <trkpt lat="42.5633" lon="2.36652">
        <ele>655</ele>
        <time>2013-07-15T13:17:04Z</time>
      </trkpt>
      <trkpt lat="42.56326" lon="2.36655">
        <ele>655</ele>
        <time>2013-07-15T13:17:07Z</time>
      </trkpt>
      <trkpt lat="42.56324" lon="2.36656">
        <ele>655</ele>
        <time>2013-07-15T13:17:10Z</time>
      </trkpt>
      <trkpt lat="42.56319" lon="2.36661">
        <ele>655</ele>
        <time>2013-07-15T13:17:15Z</time>
      </trkpt>
      <trkpt lat="42.56315" lon="2.36663">
        <ele>655</ele>
        <time>2013-07-15T13:17:20Z</time>
      </trkpt>
      <trkpt lat="42.5631" lon="2.36667">
        <ele>655</ele>
        <time>2013-07-15T13:17:22Z</time>
      </trkpt>
      <trkpt lat="42.56308" lon="2.36671">
        <ele>655</ele>
        <time>2013-07-15T13:17:27Z</time>
      </trkpt>
      <trkpt lat="42.56304" lon="2.36676">
        <ele>655</ele>
        <time>2013-07-15T13:17:32Z</time>
      </trkpt>
      <trkpt lat="42.56301" lon="2.36681">
        <ele>655</ele>
        <time>2013-07-15T13:17:35Z</time>
      </trkpt>
      <trkpt lat="42.56301" lon="2.36683">
        <ele>655</ele>
        <time>2013-07-15T13:17:38Z</time>
      </trkpt>
      <trkpt lat="42.56294" lon="2.36686">
        <ele>656</ele>
        <time>2013-07-15T13:17:41Z</time>
      </trkpt>
      <trkpt lat="42.56292" lon="2.36688">
        <ele>656</ele>
        <time>2013-07-15T13:17:45Z</time>
      </trkpt>
      <trkpt lat="42.5629" lon="2.36693">
        <ele>657</ele>
        <time>2013-07-15T13:17:48Z</time>
      </trkpt>
      <trkpt lat="42.56287" lon="2.36695">
        <ele>657</ele>
        <time>2013-07-15T13:17:53Z</time>
      </trkpt>
      <trkpt lat="42.5628" lon="2.36699">
        <ele>657</ele>
        <time>2013-07-15T13:17:57Z</time>
      </trkpt>
      <trkpt lat="42.56275" lon="2.36698">
        <ele>657</ele>
        <time>2013-07-15T13:18:00Z</time>
      </trkpt>
      <trkpt lat="42.56272" lon="2.36699">
        <ele>657</ele>
        <time>2013-07-15T13:18:02Z</time>
      </trkpt>
      <trkpt lat="42.56271" lon="2.36701">
        <ele>657</ele>
        <time>2013-07-15T13:18:09Z</time>
      </trkpt>
      <trkpt lat="42.56265" lon="2.36704">
        <ele>657</ele>
        <time>2013-07-15T13:18:15Z</time>
      </trkpt>
      <trkpt lat="42.56261" lon="2.36707">
        <ele>658</ele>
        <time>2013-07-15T13:18:18Z</time>
      </trkpt>
      <trkpt lat="42.5626" lon="2.36709">
        <ele>658</ele>
        <time>2013-07-15T13:18:20Z</time>
      </trkpt>
      <trkpt lat="42.56259" lon="2.36711">
        <ele>659</ele>
        <time>2013-07-15T13:18:23Z</time>
      </trkpt>
      <trkpt lat="42.56258" lon="2.36713">
        <ele>660</ele>
        <time>2013-07-15T13:18:25Z</time>
      </trkpt>
      <trkpt lat="42.56259" lon="2.36713">
        <ele>660</ele>
        <time>2013-07-15T13:18:28Z</time>
      </trkpt>
      <trkpt lat="42.56258" lon="2.36716">
        <ele>662</ele>
        <time>2013-07-15T13:18:34Z</time>
      </trkpt>
      <trkpt lat="42.56254" lon="2.36721">
        <ele>663</ele>
        <time>2013-07-15T13:18:38Z</time>
      </trkpt>
      <trkpt lat="42.5625" lon="2.36725">
        <ele>664</ele>
        <time>2013-07-15T13:18:42Z</time>
      </trkpt>
      <trkpt lat="42.56247" lon="2.36729">
        <ele>665</ele>
        <time>2013-07-15T13:18:46Z</time>
      </trkpt>
      <trkpt lat="42.56244" lon="2.36731">
        <ele>666</ele>
        <time>2013-07-15T13:18:50Z</time>
      </trkpt>
      <trkpt lat="42.56241" lon="2.36732">
        <ele>666</ele>
        <time>2013-07-15T13:18:58Z</time>
      </trkpt>
      <trkpt lat="42.56239" lon="2.36733">
        <ele>666</ele>
        <time>2013-07-15T13:19:01Z</time>
      </trkpt>
      <trkpt lat="42.56233" lon="2.36736">
        <ele>667</ele>
        <time>2013-07-15T13:19:05Z</time>
      </trkpt>
      <trkpt lat="42.5623" lon="2.36739">
        <ele>668</ele>
        <time>2013-07-15T13:19:09Z</time>
      </trkpt>
      <trkpt lat="42.56227" lon="2.36742">
        <ele>670</ele>
        <time>2013-07-15T13:19:13Z</time>
      </trkpt>
      <trkpt lat="42.56224" lon="2.36745">
        <ele>671</ele>
        <time>2013-07-15T13:19:17Z</time>
      </trkpt>
      <trkpt lat="42.56221" lon="2.36746">
        <ele>671</ele>
        <time>2013-07-15T13:19:20Z</time>
      </trkpt>
      <trkpt lat="42.56219" lon="2.36747">
        <ele>671</ele>
        <time>2013-07-15T13:19:22Z</time>
      </trkpt>
      <trkpt lat="42.56215" lon="2.36749">
        <ele>671</ele>
        <time>2013-07-15T13:19:26Z</time>
      </trkpt>
      <trkpt lat="42.56213" lon="2.36751">
        <ele>671</ele>
        <time>2013-07-15T13:19:28Z</time>
      </trkpt>
      <trkpt lat="42.56208" lon="2.36753">
        <ele>671</ele>
        <time>2013-07-15T13:19:31Z</time>
      </trkpt>
      <trkpt lat="42.56206" lon="2.36754">
        <ele>671</ele>
        <time>2013-07-15T13:19:33Z</time>
      </trkpt>
      <trkpt lat="42.56201" lon="2.36754">
        <ele>671</ele>
        <time>2013-07-15T13:19:37Z</time>
      </trkpt>
      <trkpt lat="42.56196" lon="2.36751">
        <ele>671</ele>
        <time>2013-07-15T13:19:41Z</time>
      </trkpt>
      <trkpt lat="42.56191" lon="2.3675">
        <ele>670</ele>
        <time>2013-07-15T13:19:45Z</time>
      </trkpt>
      <trkpt lat="42.56187" lon="2.36749">
        <ele>669</ele>
        <time>2013-07-15T13:19:49Z</time>
      </trkpt>
      <trkpt lat="42.56183" lon="2.36751">
        <ele>668</ele>
        <time>2013-07-15T13:19:55Z</time>
      </trkpt>
      <trkpt lat="42.56176" lon="2.36753">
        <ele>666</ele>
        <time>2013-07-15T13:19:59Z</time>
      </trkpt>
      <trkpt lat="42.56171" lon="2.36754">
        <ele>666</ele>
        <time>2013-07-15T13:20:03Z</time>
      </trkpt>
      <trkpt lat="42.56169" lon="2.36755">
        <ele>666</ele>
        <time>2013-07-15T13:20:06Z</time>
      </trkpt>
      <trkpt lat="42.56164" lon="2.36757">
        <ele>666</ele>
        <time>2013-07-15T13:20:10Z</time>
      </trkpt>
      <trkpt lat="42.56157" lon="2.36756">
        <ele>665</ele>
        <time>2013-07-15T13:20:15Z</time>
      </trkpt>
      <trkpt lat="42.56153" lon="2.36755">
        <ele>664</ele>
        <time>2013-07-15T13:20:18Z</time>
      </trkpt>
      <trkpt lat="42.56148" lon="2.36756">
        <ele>664</ele>
        <time>2013-07-15T13:20:22Z</time>
      </trkpt>
      <trkpt lat="42.56145" lon="2.36757">
        <ele>664</ele>
        <time>2013-07-15T13:20:25Z</time>
      </trkpt>
      <trkpt lat="42.56139" lon="2.36759">
        <ele>664</ele>
        <time>2013-07-15T13:20:29Z</time>
      </trkpt>
      <trkpt lat="42.56135" lon="2.36758">
        <ele>663</ele>
        <time>2013-07-15T13:20:33Z</time>
      </trkpt>
      <trkpt lat="42.5613" lon="2.36758">
        <ele>663</ele>
        <time>2013-07-15T13:20:37Z</time>
      </trkpt>
      <trkpt lat="42.56125" lon="2.36758">
        <ele>663</ele>
        <time>2013-07-15T13:20:42Z</time>
      </trkpt>
      <trkpt lat="42.5612" lon="2.36757">
        <ele>663</ele>
        <time>2013-07-15T13:20:46Z</time>
      </trkpt>
      <trkpt lat="42.56118" lon="2.36756">
        <ele>663</ele>
        <time>2013-07-15T13:20:48Z</time>
      </trkpt>
      <trkpt lat="42.56115" lon="2.36755">
        <ele>663</ele>
        <time>2013-07-15T13:20:50Z</time>
      </trkpt>
      <trkpt lat="42.56113" lon="2.36754">
        <ele>663</ele>
        <time>2013-07-15T13:20:52Z</time>
      </trkpt>
      <trkpt lat="42.56111" lon="2.36753">
        <ele>663</ele>
        <time>2013-07-15T13:20:54Z</time>
      </trkpt>
      <trkpt lat="42.56107" lon="2.36751">
        <ele>663</ele>
        <time>2013-07-15T13:20:57Z</time>
      </trkpt>
      <trkpt lat="42.56103" lon="2.36751">
        <ele>663</ele>
        <time>2013-07-15T13:21:00Z</time>
      </trkpt>
      <trkpt lat="42.56098" lon="2.3675">
        <ele>662</ele>
        <time>2013-07-15T13:21:04Z</time>
      </trkpt>
      <trkpt lat="42.56094" lon="2.3675">
        <ele>662</ele>
        <time>2013-07-15T13:21:08Z</time>
      </trkpt>
      <trkpt lat="42.56089" lon="2.36751">
        <ele>662</ele>
        <time>2013-07-15T13:21:12Z</time>
      </trkpt>
      <trkpt lat="42.56086" lon="2.36754">
        <ele>662</ele>
        <time>2013-07-15T13:21:15Z</time>
      </trkpt>
      <trkpt lat="42.56084" lon="2.36756">
        <ele>662</ele>
        <time>2013-07-15T13:21:17Z</time>
      </trkpt>
      <trkpt lat="42.56081" lon="2.3676">
        <ele>662</ele>
        <time>2013-07-15T13:21:20Z</time>
      </trkpt>
      <trkpt lat="42.56079" lon="2.36764">
        <ele>662</ele>
        <time>2013-07-15T13:21:25Z</time>
      </trkpt>
      <trkpt lat="42.56077" lon="2.3677">
        <ele>662</ele>
        <time>2013-07-15T13:21:28Z</time>
      </trkpt>
      <trkpt lat="42.56075" lon="2.36776">
        <ele>662</ele>
        <time>2013-07-15T13:21:32Z</time>
      </trkpt>
      <trkpt lat="42.56074" lon="2.36783">
        <ele>662</ele>
        <time>2013-07-15T13:21:36Z</time>
      </trkpt>
      <trkpt lat="42.56072" lon="2.36787">
        <ele>662</ele>
        <time>2013-07-15T13:21:40Z</time>
      </trkpt>
      <trkpt lat="42.56068" lon="2.36791">
        <ele>662</ele>
        <time>2013-07-15T13:21:44Z</time>
      </trkpt>
      <trkpt lat="42.56064" lon="2.36795">
        <ele>662</ele>
        <time>2013-07-15T13:21:48Z</time>
      </trkpt>
      <trkpt lat="42.5606" lon="2.36798">
        <ele>662</ele>
        <time>2013-07-15T13:21:51Z</time>
      </trkpt>
      <trkpt lat="42.56056" lon="2.36801">
        <ele>662</ele>
        <time>2013-07-15T13:21:55Z</time>
      </trkpt>
      <trkpt lat="42.56055" lon="2.36801">
        <ele>662</ele>
        <time>2013-07-15T13:22:02Z</time>
      </trkpt>
      <trkpt lat="42.56054" lon="2.36803">
        <ele>662</ele>
        <time>2013-07-15T13:22:07Z</time>
      </trkpt>
      <trkpt lat="42.56053" lon="2.36805">
        <ele>662</ele>
        <time>2013-07-15T13:22:18Z</time>
      </trkpt>
      <trkpt lat="42.56051" lon="2.36807">
        <ele>662</ele>
        <time>2013-07-15T13:22:20Z</time>
      </trkpt>
      <trkpt lat="42.56046" lon="2.36811">
        <ele>662</ele>
        <time>2013-07-15T13:22:23Z</time>
      </trkpt>
      <trkpt lat="42.56044" lon="2.36812">
        <ele>662</ele>
        <time>2013-07-15T13:22:25Z</time>
      </trkpt>
      <trkpt lat="42.56041" lon="2.36812">
        <ele>662</ele>
        <time>2013-07-15T13:22:28Z</time>
      </trkpt>
      <trkpt lat="42.56037" lon="2.36815">
        <ele>662</ele>
        <time>2013-07-15T13:22:32Z</time>
      </trkpt>
      <trkpt lat="42.56033" lon="2.36819">
        <ele>662</ele>
        <time>2013-07-15T13:22:35Z</time>
      </trkpt>
      <trkpt lat="42.56028" lon="2.36821">
        <ele>662</ele>
        <time>2013-07-15T13:22:39Z</time>
      </trkpt>
      <trkpt lat="42.56025" lon="2.36823">
        <ele>662</ele>
        <time>2013-07-15T13:22:42Z</time>
      </trkpt>
      <trkpt lat="42.56023" lon="2.36825">
        <ele>662</ele>
        <time>2013-07-15T13:22:45Z</time>
      </trkpt>
      <trkpt lat="42.56021" lon="2.36826">
        <ele>662</ele>
        <time>2013-07-15T13:22:47Z</time>
      </trkpt>
      <trkpt lat="42.56019" lon="2.36825">
        <ele>662</ele>
        <time>2013-07-15T13:22:49Z</time>
      </trkpt>
      <trkpt lat="42.56015" lon="2.36825">
        <ele>662</ele>
        <time>2013-07-15T13:22:51Z</time>
      </trkpt>
      <trkpt lat="42.56012" lon="2.36826">
        <ele>662</ele>
        <time>2013-07-15T13:22:53Z</time>
      </trkpt>
      <trkpt lat="42.5601" lon="2.36828">
        <ele>662</ele>
        <time>2013-07-15T13:22:57Z</time>
      </trkpt>
      <trkpt lat="42.56005" lon="2.3683">
        <ele>662</ele>
        <time>2013-07-15T13:23:00Z</time>
      </trkpt>
      <trkpt lat="42.56" lon="2.36833">
        <ele>663</ele>
        <time>2013-07-15T13:23:04Z</time>
      </trkpt>
      <trkpt lat="42.55997" lon="2.36834">
        <ele>663</ele>
        <time>2013-07-15T13:23:08Z</time>
      </trkpt>
      <trkpt lat="42.55993" lon="2.36835">
        <ele>664</ele>
        <time>2013-07-15T13:23:11Z</time>
      </trkpt>
      <trkpt lat="42.55991" lon="2.36835">
        <ele>664</ele>
        <time>2013-07-15T13:23:13Z</time>
      </trkpt>
      <trkpt lat="42.55988" lon="2.36835">
        <ele>664</ele>
        <time>2013-07-15T13:23:16Z</time>
      </trkpt>
      <trkpt lat="42.55986" lon="2.36836">
        <ele>664</ele>
        <time>2013-07-15T13:23:19Z</time>
      </trkpt>
      <trkpt lat="42.5598" lon="2.36838">
        <ele>665</ele>
        <time>2013-07-15T13:23:22Z</time>
      </trkpt>
      <trkpt lat="42.55976" lon="2.3684">
        <ele>666</ele>
        <time>2013-07-15T13:23:27Z</time>
      </trkpt>
      <trkpt lat="42.55975" lon="2.3684">
        <ele>667</ele>
        <time>2013-07-15T13:23:30Z</time>
      </trkpt>
      <trkpt lat="42.55972" lon="2.3684">
        <ele>668</ele>
        <time>2013-07-15T13:23:34Z</time>
      </trkpt>
      <trkpt lat="42.55969" lon="2.36841">
        <ele>671</ele>
        <time>2013-07-15T13:23:45Z</time>
      </trkpt>
      <trkpt lat="42.55967" lon="2.36839">
        <ele>671</ele>
        <time>2013-07-15T13:23:48Z</time>
      </trkpt>
      <trkpt lat="42.55967" lon="2.36837">
        <ele>672</ele>
        <time>2013-07-15T13:23:53Z</time>
      </trkpt>
      <trkpt lat="42.55965" lon="2.36839">
        <ele>672</ele>
        <time>2013-07-15T13:23:59Z</time>
      </trkpt>
      <trkpt lat="42.55965" lon="2.36843">
        <ele>672</ele>
        <time>2013-07-15T13:24:02Z</time>
      </trkpt>
      <trkpt lat="42.55964" lon="2.36847">
        <ele>673</ele>
        <time>2013-07-15T13:24:05Z</time>
      </trkpt>
      <trkpt lat="42.55961" lon="2.3685">
        <ele>673</ele>
        <time>2013-07-15T13:24:09Z</time>
      </trkpt>
      <trkpt lat="42.55958" lon="2.36852">
        <ele>673</ele>
        <time>2013-07-15T13:24:12Z</time>
      </trkpt>
      <trkpt lat="42.55957" lon="2.36852">
        <ele>673</ele>
        <time>2013-07-15T13:24:16Z</time>
      </trkpt>
      <trkpt lat="42.55955" lon="2.36852">
        <ele>673</ele>
        <time>2013-07-15T13:24:22Z</time>
      </trkpt>
      <trkpt lat="42.55952" lon="2.3685">
        <ele>673</ele>
        <time>2013-07-15T13:24:26Z</time>
      </trkpt>
      <trkpt lat="42.55952" lon="2.36848">
        <ele>673</ele>
        <time>2013-07-15T13:24:29Z</time>
      </trkpt>
      <trkpt lat="42.55948" lon="2.36847">
        <ele>673</ele>
        <time>2013-07-15T13:24:31Z</time>
      </trkpt>
      <trkpt lat="42.55948" lon="2.36846">
        <ele>673</ele>
        <time>2013-07-15T13:24:35Z</time>
      </trkpt>
      <trkpt lat="42.5595" lon="2.36845">
        <ele>673</ele>
        <time>2013-07-15T13:24:40Z</time>
      </trkpt>
      <trkpt lat="42.55951" lon="2.36843">
        <ele>673</ele>
        <time>2013-07-15T13:24:43Z</time>
      </trkpt>
      <trkpt lat="42.55953" lon="2.36841">
        <ele>673</ele>
        <time>2013-07-15T13:24:47Z</time>
      </trkpt>
      <trkpt lat="42.55954" lon="2.36842">
        <ele>673</ele>
        <time>2013-07-15T13:24:50Z</time>
      </trkpt>
      <trkpt lat="42.55955" lon="2.36842">
        <ele>673</ele>
        <time>2013-07-15T13:24:59Z</time>
      </trkpt>
      <trkpt lat="42.55956" lon="2.36846">
        <ele>673</ele>
        <time>2013-07-15T13:25:02Z</time>
      </trkpt>
      <trkpt lat="42.55955" lon="2.36845">
        <ele>674</ele>
        <time>2013-07-15T13:25:18Z</time>
      </trkpt>
      <trkpt lat="42.55954" lon="2.3684">
        <ele>674</ele>
        <time>2013-07-15T13:25:23Z</time>
      </trkpt>
      <trkpt lat="42.55952" lon="2.36839">
        <ele>674</ele>
        <time>2013-07-15T13:25:27Z</time>
      </trkpt>
      <trkpt lat="42.55952" lon="2.36837">
        <ele>674</ele>
        <time>2013-07-15T13:25:30Z</time>
      </trkpt>
      <trkpt lat="42.55953" lon="2.36833">
        <ele>674</ele>
        <time>2013-07-15T13:25:36Z</time>
      </trkpt>
      <trkpt lat="42.55956" lon="2.36833">
        <ele>674</ele>
        <time>2013-07-15T13:25:39Z</time>
      </trkpt>
      <trkpt lat="42.55959" lon="2.36834">
        <ele>674</ele>
        <time>2013-07-15T13:25:42Z</time>
      </trkpt>
      <trkpt lat="42.55963" lon="2.36837">
        <ele>674</ele>
        <time>2013-07-15T13:25:46Z</time>
      </trkpt>
      <trkpt lat="42.55965" lon="2.36837">
        <ele>674</ele>
        <time>2013-07-15T13:26:00Z</time>
      </trkpt>
      <trkpt lat="42.55967" lon="2.3684">
        <ele>674</ele>
        <time>2013-07-15T13:26:03Z</time>
      </trkpt>
      <trkpt lat="42.55968" lon="2.36842">
        <ele>674</ele>
        <time>2013-07-15T13:26:06Z</time>
      </trkpt>
      <trkpt lat="42.55968" lon="2.3684">
        <ele>674</ele>
        <time>2013-07-15T13:26:13Z</time>
      </trkpt>
      <trkpt lat="42.55968" lon="2.36838">
        <ele>674</ele>
        <time>2013-07-15T13:26:18Z</time>
      </trkpt>
      <trkpt lat="42.55969" lon="2.36838">
        <ele>674</ele>
        <time>2013-07-15T13:26:21Z</time>
      </trkpt>
      <trkpt lat="42.5597" lon="2.36837">
        <ele>674</ele>
        <time>2013-07-15T13:26:42Z</time>
      </trkpt>
      <trkpt lat="42.5597" lon="2.36835">
        <ele>675</ele>
        <time>2013-07-15T13:26:54Z</time>
      </trkpt>
      <trkpt lat="42.55971" lon="2.36837">
        <ele>676</ele>
        <time>2013-07-15T13:27:19Z</time>
      </trkpt>
      <trkpt lat="42.55971" lon="2.36838">
        <ele>676</ele>
        <time>2013-07-15T13:27:30Z</time>
      </trkpt>
      <trkpt lat="42.55971" lon="2.3684">
        <ele>676</ele>
        <time>2013-07-15T13:28:01Z</time>
      </trkpt>
      <trkpt lat="42.5597" lon="2.36838">
        <ele>676</ele>
        <time>2013-07-15T13:28:40Z</time>
      </trkpt>
      <trkpt lat="42.55972" lon="2.36839">
        <ele>676</ele>
        <time>2013-07-15T13:28:51Z</time>
      </trkpt>
      <trkpt lat="42.55973" lon="2.36839">
        <ele>676</ele>
        <time>2013-07-15T13:29:16Z</time>
      </trkpt>
      <trkpt lat="42.55975" lon="2.3684">
        <ele>676</ele>
        <time>2013-07-15T13:29:25Z</time>
      </trkpt>
      <trkpt lat="42.55976" lon="2.36842">
        <ele>676</ele>
        <time>2013-07-15T13:29:29Z</time>
      </trkpt>
      <trkpt lat="42.55978" lon="2.36843">
        <ele>680</ele>
        <time>2013-07-15T13:29:41Z</time>
      </trkpt>
      <trkpt lat="42.55977" lon="2.36843">
        <ele>683</ele>
        <time>2013-07-15T13:30:01Z</time>
      </trkpt>
      <trkpt lat="42.55978" lon="2.36844">
        <ele>683</ele>
        <time>2013-07-15T13:30:06Z</time>
      </trkpt>
      <trkpt lat="42.55979" lon="2.36845">
        <ele>684</ele>
        <time>2013-07-15T13:30:12Z</time>
      </trkpt>
      <trkpt lat="42.55977" lon="2.36843">
        <ele>685</ele>
        <time>2013-07-15T13:30:19Z</time>
      </trkpt>
      <trkpt lat="42.55975" lon="2.36844">
        <ele>685</ele>
        <time>2013-07-15T13:30:25Z</time>
      </trkpt>
      <trkpt lat="42.55972" lon="2.36842">
        <ele>685</ele>
        <time>2013-07-15T13:30:33Z</time>
      </trkpt>
      <trkpt lat="42.55974" lon="2.36841">
        <ele>684</ele>
        <time>2013-07-15T13:30:42Z</time>
      </trkpt>
      <trkpt lat="42.55975" lon="2.3684">
        <ele>681</ele>
        <time>2013-07-15T13:30:50Z</time>
      </trkpt>
      <trkpt lat="42.55975" lon="2.36838">
        <ele>681</ele>
        <time>2013-07-15T13:30:53Z</time>
      </trkpt>
      <trkpt lat="42.55975" lon="2.36837">
        <ele>680</ele>
        <time>2013-07-15T13:30:58Z</time>
      </trkpt>
      <trkpt lat="42.55977" lon="2.36834">
        <ele>680</ele>
        <time>2013-07-15T13:31:02Z</time>
      </trkpt>
      <trkpt lat="42.55977" lon="2.36831">
        <ele>679</ele>
        <time>2013-07-15T13:31:04Z</time>
      </trkpt>
      <trkpt lat="42.55975" lon="2.36829">
        <ele>678</ele>
        <time>2013-07-15T13:31:08Z</time>
      </trkpt>
      <trkpt lat="42.55974" lon="2.36829">
        <ele>676</ele>
        <time>2013-07-15T13:31:39Z</time>
      </trkpt>
      <trkpt lat="42.55973" lon="2.3683">
        <ele>675</ele>
        <time>2013-07-15T13:32:10Z</time>
      </trkpt>
      <trkpt lat="42.55974" lon="2.36829">
        <ele>674</ele>
        <time>2013-07-15T13:32:24Z</time>
      </trkpt>
      <trkpt lat="42.55975" lon="2.36827">
        <ele>673</ele>
        <time>2013-07-15T13:32:36Z</time>
      </trkpt>
      <trkpt lat="42.55974" lon="2.36825">
        <ele>673</ele>
        <time>2013-07-15T13:32:57Z</time>
      </trkpt>
      <trkpt lat="42.55976" lon="2.36824">
        <ele>673</ele>
        <time>2013-07-15T13:33:04Z</time>
      </trkpt>
      <trkpt lat="42.55978" lon="2.36823">
        <ele>672</ele>
        <time>2013-07-15T13:33:10Z</time>
      </trkpt>
      <trkpt lat="42.55979" lon="2.36822">
        <ele>672</ele>
        <time>2013-07-15T13:33:16Z</time>
      </trkpt>
      <trkpt lat="42.5598" lon="2.36822">
        <ele>671</ele>
        <time>2013-07-15T13:33:19Z</time>
      </trkpt>
      <trkpt lat="42.55977" lon="2.36824">
        <ele>670</ele>
        <time>2013-07-15T13:33:29Z</time>
      </trkpt>
      <trkpt lat="42.55975" lon="2.36826">
        <ele>670</ele>
        <time>2013-07-15T13:34:05Z</time>
      </trkpt>
      <trkpt lat="42.55973" lon="2.36828">
        <ele>670</ele>
        <time>2013-07-15T13:34:17Z</time>
      </trkpt>
      <trkpt lat="42.55975" lon="2.36829">
        <ele>670</ele>
        <time>2013-07-15T13:34:28Z</time>
      </trkpt>
      <trkpt lat="42.55976" lon="2.36831">
        <ele>670</ele>
        <time>2013-07-15T13:34:42Z</time>
      </trkpt>
      <trkpt lat="42.55976" lon="2.36833">
        <ele>670</ele>
        <time>2013-07-15T13:34:44Z</time>
      </trkpt>
      <trkpt lat="42.55976" lon="2.36836">
        <ele>670</ele>
        <time>2013-07-15T13:34:47Z</time>
      </trkpt>
      <trkpt lat="42.55975" lon="2.36838">
        <ele>670</ele>
        <time>2013-07-15T13:34:49Z</time>
      </trkpt>
      <trkpt lat="42.55975" lon="2.36839">
        <ele>670</ele>
        <time>2013-07-15T13:34:54Z</time>
      </trkpt>
      <trkpt lat="42.55975" lon="2.36838">
        <ele>670</ele>
        <time>2013-07-15T13:34:56Z</time>
      </trkpt>
      <trkpt lat="42.55976" lon="2.36838">
        <ele>670</ele>
        <time>2013-07-15T13:34:58Z</time>
      </trkpt>
      <trkpt lat="42.55977" lon="2.3684">
        <ele>670</ele>
        <time>2013-07-15T13:35:03Z</time>
      </trkpt>
      <trkpt lat="42.55974" lon="2.3684">
        <ele>670</ele>
        <time>2013-07-15T13:35:07Z</time>
      </trkpt>
      <trkpt lat="42.55973" lon="2.3684">
        <ele>670</ele>
        <time>2013-07-15T13:35:09Z</time>
      </trkpt>
      <trkpt lat="42.55969" lon="2.36841">
        <ele>670</ele>
        <time>2013-07-15T13:35:13Z</time>
      </trkpt>
      <trkpt lat="42.55967" lon="2.36841">
        <ele>670</ele>
        <time>2013-07-15T13:35:15Z</time>
      </trkpt>
      <trkpt lat="42.55964" lon="2.36839">
        <ele>670</ele>
        <time>2013-07-15T13:35:18Z</time>
      </trkpt>
      <trkpt lat="42.55962" lon="2.36837">
        <ele>670</ele>
        <time>2013-07-15T13:35:20Z</time>
      </trkpt>
      <trkpt lat="42.55961" lon="2.36836">
        <ele>670</ele>
        <time>2013-07-15T13:35:22Z</time>
      </trkpt>
      <trkpt lat="42.55956" lon="2.36836">
        <ele>670</ele>
        <time>2013-07-15T13:35:26Z</time>
      </trkpt>
      <trkpt lat="42.55955" lon="2.36838">
        <ele>670</ele>
        <time>2013-07-15T13:35:28Z</time>
      </trkpt>
      <trkpt lat="42.55954" lon="2.36842">
        <ele>670</ele>
        <time>2013-07-15T13:35:32Z</time>
      </trkpt>
      <trkpt lat="42.55953" lon="2.36842">
        <ele>670</ele>
        <time>2013-07-15T13:35:42Z</time>
      </trkpt>
      <trkpt lat="42.55952" lon="2.36842">
        <ele>670</ele>
        <time>2013-07-15T13:35:46Z</time>
      </trkpt>
      <trkpt lat="42.55951" lon="2.36843">
        <ele>671</ele>
        <time>2013-07-15T13:35:56Z</time>
      </trkpt>
      <trkpt lat="42.55952" lon="2.36841">
        <ele>672</ele>
        <time>2013-07-15T13:36:03Z</time>
      </trkpt>
      <trkpt lat="42.55953" lon="2.3684">
        <ele>672</ele>
        <time>2013-07-15T13:36:15Z</time>
      </trkpt>
      <trkpt lat="42.55952" lon="2.36841">
        <ele>672</ele>
        <time>2013-07-15T13:36:31Z</time>
      </trkpt>
      <trkpt lat="42.55951" lon="2.36842">
        <ele>674</ele>
        <time>2013-07-15T13:36:39Z</time>
      </trkpt>
      <trkpt lat="42.55949" lon="2.36842">
        <ele>676</ele>
        <time>2013-07-15T13:36:50Z</time>
      </trkpt>
      <trkpt lat="42.55951" lon="2.36841">
        <ele>677</ele>
        <time>2013-07-15T13:37:00Z</time>
      </trkpt>
      <trkpt lat="42.55952" lon="2.3684">
        <ele>677</ele>
        <time>2013-07-15T13:37:09Z</time>
      </trkpt>
      <trkpt lat="42.55951" lon="2.36842">
        <ele>677</ele>
        <time>2013-07-15T13:37:17Z</time>
      </trkpt>
      <trkpt lat="42.5595" lon="2.36842">
        <ele>677</ele>
        <time>2013-07-15T13:37:30Z</time>
      </trkpt>
      <trkpt lat="42.5595" lon="2.36844">
        <ele>677</ele>
        <time>2013-07-15T13:37:45Z</time>
      </trkpt>
      <trkpt lat="42.55951" lon="2.36844">
        <ele>677</ele>
        <time>2013-07-15T13:38:02Z</time>
      </trkpt>
      <trkpt lat="42.55949" lon="2.36844">
        <ele>677</ele>
        <time>2013-07-15T13:38:10Z</time>
      </trkpt>
      <trkpt lat="42.55951" lon="2.36843">
        <ele>677</ele>
        <time>2013-07-15T13:38:13Z</time>
      </trkpt>
      <trkpt lat="42.55951" lon="2.36845">
        <ele>677</ele>
        <time>2013-07-15T13:38:16Z</time>
      </trkpt>
      <trkpt lat="42.55951" lon="2.36843">
        <ele>677</ele>
        <time>2013-07-15T13:38:28Z</time>
      </trkpt>
      <trkpt lat="42.55951" lon="2.36845">
        <ele>676</ele>
        <time>2013-07-15T13:38:54Z</time>
      </trkpt>
      <trkpt lat="42.55951" lon="2.36846">
        <ele>676</ele>
        <time>2013-07-15T13:38:59Z</time>
      </trkpt>
      <trkpt lat="42.55951" lon="2.36848">
        <ele>676</ele>
        <time>2013-07-15T13:39:04Z</time>
      </trkpt>
      <trkpt lat="42.55951" lon="2.36849">
        <ele>676</ele>
        <time>2013-07-15T13:39:10Z</time>
      </trkpt>
      <trkpt lat="42.5595" lon="2.36848">
        <ele>677</ele>
        <time>2013-07-15T13:39:28Z</time>
      </trkpt>
      <trkpt lat="42.55949" lon="2.3685">
        <ele>677</ele>
        <time>2013-07-15T13:39:47Z</time>
      </trkpt>
      <trkpt lat="42.55951" lon="2.36845">
        <ele>677</ele>
        <time>2013-07-15T13:40:26Z</time>
      </trkpt>
      <trkpt lat="42.55952" lon="2.36846">
        <ele>677</ele>
        <time>2013-07-15T13:40:31Z</time>
      </trkpt>
      <trkpt lat="42.55953" lon="2.36847">
        <ele>677</ele>
        <time>2013-07-15T13:40:39Z</time>
      </trkpt>
      <trkpt lat="42.55952" lon="2.3685">
        <ele>677</ele>
        <time>2013-07-15T13:40:43Z</time>
      </trkpt>
      <trkpt lat="42.5595" lon="2.3685">
        <ele>677</ele>
        <time>2013-07-15T13:40:49Z</time>
      </trkpt>
      <trkpt lat="42.55949" lon="2.36851">
        <ele>677</ele>
        <time>2013-07-15T13:40:52Z</time>
      </trkpt>
      <trkpt lat="42.55949" lon="2.36849">
        <ele>677</ele>
        <time>2013-07-15T13:40:57Z</time>
      </trkpt>
      <trkpt lat="42.55951" lon="2.36848">
        <ele>677</ele>
        <time>2013-07-15T13:41:00Z</time>
      </trkpt>
      <trkpt lat="42.55953" lon="2.36846">
        <ele>677</ele>
        <time>2013-07-15T13:41:04Z</time>
      </trkpt>
      <trkpt lat="42.55951" lon="2.36846">
        <ele>677</ele>
        <time>2013-07-15T13:41:10Z</time>
      </trkpt>
      <trkpt lat="42.55947" lon="2.36847">
        <ele>677</ele>
        <time>2013-07-15T13:41:13Z</time>
      </trkpt>
      <trkpt lat="42.55945" lon="2.36849">
        <ele>677</ele>
        <time>2013-07-15T13:41:16Z</time>
      </trkpt>
      <trkpt lat="42.5594" lon="2.3685">
        <ele>676</ele>
        <time>2013-07-15T13:41:20Z</time>
      </trkpt>
      <trkpt lat="42.55936" lon="2.36849">
        <ele>675</ele>
        <time>2013-07-15T13:41:23Z</time>
      </trkpt>
      <trkpt lat="42.55933" lon="2.3685">
        <ele>674</ele>
        <time>2013-07-15T13:41:27Z</time>
      </trkpt>
      <trkpt lat="42.55931" lon="2.36856">
        <ele>673</ele>
        <time>2013-07-15T13:41:32Z</time>
      </trkpt>
      <trkpt lat="42.5593" lon="2.36861">
        <ele>672</ele>
        <time>2013-07-15T13:41:34Z</time>
      </trkpt>
      <trkpt lat="42.55929" lon="2.36863">
        <ele>672</ele>
        <time>2013-07-15T13:41:36Z</time>
      </trkpt>
      <trkpt lat="42.55927" lon="2.36865">
        <ele>672</ele>
        <time>2013-07-15T13:41:39Z</time>
      </trkpt>
      <trkpt lat="42.55924" lon="2.36868">
        <ele>672</ele>
        <time>2013-07-15T13:41:44Z</time>
      </trkpt>
      <trkpt lat="42.55922" lon="2.36872">
        <ele>672</ele>
        <time>2013-07-15T13:41:46Z</time>
      </trkpt>
      <trkpt lat="42.55919" lon="2.36874">
        <ele>672</ele>
        <time>2013-07-15T13:41:48Z</time>
      </trkpt>
      <trkpt lat="42.55917" lon="2.36875">
        <ele>672</ele>
        <time>2013-07-15T13:41:50Z</time>
      </trkpt>
      <trkpt lat="42.55915" lon="2.36877">
        <ele>672</ele>
        <time>2013-07-15T13:41:53Z</time>
      </trkpt>
      <trkpt lat="42.5591" lon="2.36879">
        <ele>671</ele>
        <time>2013-07-15T13:41:57Z</time>
      </trkpt>
      <trkpt lat="42.55906" lon="2.36882">
        <ele>670</ele>
        <time>2013-07-15T13:42:01Z</time>
      </trkpt>
      <trkpt lat="42.55902" lon="2.36886">
        <ele>668</ele>
        <time>2013-07-15T13:42:05Z</time>
      </trkpt>
      <trkpt lat="42.559" lon="2.36888">
        <ele>667</ele>
        <time>2013-07-15T13:42:07Z</time>
      </trkpt>
      <trkpt lat="42.55898" lon="2.36891">
        <ele>667</ele>
        <time>2013-07-15T13:42:11Z</time>
      </trkpt>
      <trkpt lat="42.55896" lon="2.36896">
        <ele>666</ele>
        <time>2013-07-15T13:42:13Z</time>
      </trkpt>
      <trkpt lat="42.55895" lon="2.36899">
        <ele>665</ele>
        <time>2013-07-15T13:42:16Z</time>
      </trkpt>
      <trkpt lat="42.55891" lon="2.36902">
        <ele>665</ele>
        <time>2013-07-15T13:42:19Z</time>
      </trkpt>
      <trkpt lat="42.55889" lon="2.36902">
        <ele>664</ele>
        <time>2013-07-15T13:42:22Z</time>
      </trkpt>
      <trkpt lat="42.55885" lon="2.36903">
        <ele>662</ele>
        <time>2013-07-15T13:42:27Z</time>
      </trkpt>
      <trkpt lat="42.55882" lon="2.36907">
        <ele>661</ele>
        <time>2013-07-15T13:42:31Z</time>
      </trkpt>
      <trkpt lat="42.55882" lon="2.36909">
        <ele>661</ele>
        <time>2013-07-15T13:42:34Z</time>
      </trkpt>
      <trkpt lat="42.55878" lon="2.36912">
        <ele>661</ele>
        <time>2013-07-15T13:42:37Z</time>
      </trkpt>
      <trkpt lat="42.55874" lon="2.36914">
        <ele>660</ele>
        <time>2013-07-15T13:42:41Z</time>
      </trkpt>
      <trkpt lat="42.55871" lon="2.36915">
        <ele>660</ele>
        <time>2013-07-15T13:42:44Z</time>
      </trkpt>
      <trkpt lat="42.55867" lon="2.36917">
        <ele>659</ele>
        <time>2013-07-15T13:42:47Z</time>
      </trkpt>
      <trkpt lat="42.55864" lon="2.36917">
        <ele>659</ele>
        <time>2013-07-15T13:42:51Z</time>
      </trkpt>
      <trkpt lat="42.55857" lon="2.36919">
        <ele>657</ele>
        <time>2013-07-15T13:42:57Z</time>
      </trkpt>
      <trkpt lat="42.55855" lon="2.3692">
        <ele>656</ele>
        <time>2013-07-15T13:42:59Z</time>
      </trkpt>
      <trkpt lat="42.55853" lon="2.36922">
        <ele>656</ele>
        <time>2013-07-15T13:43:01Z</time>
      </trkpt>
      <trkpt lat="42.5585" lon="2.36923">
        <ele>655</ele>
        <time>2013-07-15T13:43:05Z</time>
      </trkpt>
      <trkpt lat="42.55846" lon="2.36925">
        <ele>653</ele>
        <time>2013-07-15T13:43:08Z</time>
      </trkpt>
      <trkpt lat="42.55845" lon="2.36927">
        <ele>653</ele>
        <time>2013-07-15T13:43:10Z</time>
      </trkpt>
      <trkpt lat="42.55841" lon="2.36933">
        <ele>652</ele>
        <time>2013-07-15T13:43:14Z</time>
      </trkpt>
      <trkpt lat="42.55838" lon="2.36937">
        <ele>651</ele>
        <time>2013-07-15T13:43:18Z</time>
      </trkpt>
      <trkpt lat="42.55835" lon="2.36942">
        <ele>650</ele>
        <time>2013-07-15T13:43:22Z</time>
      </trkpt>
      <trkpt lat="42.55831" lon="2.36943">
        <ele>649</ele>
        <time>2013-07-15T13:43:25Z</time>
      </trkpt>
      <trkpt lat="42.55827" lon="2.36948">
        <ele>648</ele>
        <time>2013-07-15T13:43:30Z</time>
      </trkpt>
      <trkpt lat="42.55824" lon="2.36952">
        <ele>647</ele>
        <time>2013-07-15T13:43:36Z</time>
      </trkpt>
      <trkpt lat="42.5582" lon="2.36955">
        <ele>647</ele>
        <time>2013-07-15T13:43:38Z</time>
      </trkpt>
      <trkpt lat="42.55818" lon="2.36956">
        <ele>647</ele>
        <time>2013-07-15T13:43:42Z</time>
      </trkpt>
      <trkpt lat="42.55816" lon="2.36961">
        <ele>647</ele>
        <time>2013-07-15T13:43:44Z</time>
      </trkpt>
      <trkpt lat="42.55813" lon="2.36962">
        <ele>647</ele>
        <time>2013-07-15T13:43:47Z</time>
      </trkpt>
      <trkpt lat="42.55808" lon="2.36964">
        <ele>646</ele>
        <time>2013-07-15T13:43:50Z</time>
      </trkpt>
      <trkpt lat="42.55806" lon="2.36965">
        <ele>646</ele>
        <time>2013-07-15T13:43:53Z</time>
      </trkpt>
      <trkpt lat="42.55801" lon="2.36967">
        <ele>646</ele>
        <time>2013-07-15T13:43:57Z</time>
      </trkpt>
      <trkpt lat="42.55797" lon="2.3697">
        <ele>646</ele>
        <time>2013-07-15T13:44:01Z</time>
      </trkpt>
      <trkpt lat="42.55795" lon="2.36969">
        <ele>645</ele>
        <time>2013-07-15T13:44:05Z</time>
      </trkpt>
      <trkpt lat="42.55793" lon="2.3697">
        <ele>645</ele>
        <time>2013-07-15T13:44:08Z</time>
      </trkpt>
      <trkpt lat="42.55789" lon="2.36975">
        <ele>643</ele>
        <time>2013-07-15T13:44:10Z</time>
      </trkpt>
      <trkpt lat="42.55787" lon="2.36977">
        <ele>643</ele>
        <time>2013-07-15T13:44:12Z</time>
      </trkpt>
      <trkpt lat="42.55784" lon="2.36982">
        <ele>643</ele>
        <time>2013-07-15T13:44:16Z</time>
      </trkpt>
      <trkpt lat="42.5578" lon="2.36987">
        <ele>642</ele>
        <time>2013-07-15T13:44:20Z</time>
      </trkpt>
      <trkpt lat="42.55776" lon="2.36992">
        <ele>642</ele>
        <time>2013-07-15T13:44:24Z</time>
      </trkpt>
      <trkpt lat="42.55773" lon="2.36996">
        <ele>642</ele>
        <time>2013-07-15T13:44:28Z</time>
      </trkpt>
      <trkpt lat="42.55773" lon="2.36999">
        <ele>642</ele>
        <time>2013-07-15T13:44:30Z</time>
      </trkpt>
      <trkpt lat="42.55771" lon="2.37002">
        <ele>642</ele>
        <time>2013-07-15T13:44:33Z</time>
      </trkpt>
      <trkpt lat="42.55768" lon="2.37004">
        <ele>642</ele>
        <time>2013-07-15T13:44:36Z</time>
      </trkpt>
      <trkpt lat="42.55766" lon="2.37004">
        <ele>642</ele>
        <time>2013-07-15T13:44:40Z</time>
      </trkpt>
      <trkpt lat="42.55764" lon="2.37005">
        <ele>642</ele>
        <time>2013-07-15T13:44:42Z</time>
      </trkpt>
      <trkpt lat="42.55761" lon="2.37007">
        <ele>642</ele>
        <time>2013-07-15T13:44:46Z</time>
      </trkpt>
      <trkpt lat="42.55755" lon="2.3701">
        <ele>642</ele>
        <time>2013-07-15T13:44:49Z</time>
      </trkpt>
      <trkpt lat="42.55752" lon="2.37011">
        <ele>642</ele>
        <time>2013-07-15T13:44:53Z</time>
      </trkpt>
      <trkpt lat="42.55746" lon="2.37012">
        <ele>642</ele>
        <time>2013-07-15T13:44:57Z</time>
      </trkpt>
      <trkpt lat="42.55744" lon="2.37012">
        <ele>642</ele>
        <time>2013-07-15T13:45:00Z</time>
      </trkpt>
      <trkpt lat="42.55739" lon="2.37014">
        <ele>642</ele>
        <time>2013-07-15T13:45:03Z</time>
      </trkpt>
      <trkpt lat="42.55738" lon="2.37015">
        <ele>642</ele>
        <time>2013-07-15T13:45:06Z</time>
      </trkpt>
      <trkpt lat="42.55734" lon="2.37016">
        <ele>642</ele>
        <time>2013-07-15T13:45:09Z</time>
      </trkpt>
      <trkpt lat="42.55731" lon="2.37016">
        <ele>642</ele>
        <time>2013-07-15T13:45:11Z</time>
      </trkpt>
      <trkpt lat="42.55726" lon="2.37017">
        <ele>642</ele>
        <time>2013-07-15T13:45:15Z</time>
      </trkpt>
      <trkpt lat="42.55722" lon="2.3702">
        <ele>642</ele>
        <time>2013-07-15T13:45:18Z</time>
      </trkpt>
      <trkpt lat="42.55721" lon="2.37021">
        <ele>642</ele>
        <time>2013-07-15T13:45:21Z</time>
      </trkpt>
      <trkpt lat="42.55718" lon="2.37022">
        <ele>642</ele>
        <time>2013-07-15T13:45:23Z</time>
      </trkpt>
      <trkpt lat="42.55714" lon="2.37026">
        <ele>642</ele>
        <time>2013-07-15T13:45:26Z</time>
      </trkpt>
      <trkpt lat="42.55712" lon="2.37026">
        <ele>642</ele>
        <time>2013-07-15T13:45:29Z</time>
      </trkpt>
      <trkpt lat="42.55709" lon="2.37029">
        <ele>642</ele>
        <time>2013-07-15T13:45:33Z</time>
      </trkpt>
      <trkpt lat="42.55706" lon="2.3703">
        <ele>642</ele>
        <time>2013-07-15T13:45:36Z</time>
      </trkpt>
      <trkpt lat="42.55702" lon="2.37031">
        <ele>642</ele>
        <time>2013-07-15T13:45:38Z</time>
      </trkpt>
      <trkpt lat="42.55699" lon="2.37032">
        <ele>642</ele>
        <time>2013-07-15T13:45:42Z</time>
      </trkpt>
      <trkpt lat="42.55694" lon="2.37033">
        <ele>642</ele>
        <time>2013-07-15T13:45:46Z</time>
      </trkpt>
      <trkpt lat="42.5569" lon="2.37034">
        <ele>642</ele>
        <time>2013-07-15T13:45:49Z</time>
      </trkpt>
      <trkpt lat="42.55687" lon="2.37035">
        <ele>642</ele>
        <time>2013-07-15T13:45:51Z</time>
      </trkpt>
      <trkpt lat="42.55684" lon="2.37035">
        <ele>642</ele>
        <time>2013-07-15T13:45:54Z</time>
      </trkpt>
      <trkpt lat="42.55682" lon="2.37035">
        <ele>642</ele>
        <time>2013-07-15T13:45:56Z</time>
      </trkpt>
      <trkpt lat="42.55677" lon="2.37034">
        <ele>642</ele>
        <time>2013-07-15T13:46:00Z</time>
      </trkpt>
      <trkpt lat="42.55673" lon="2.37035">
        <ele>642</ele>
        <time>2013-07-15T13:46:03Z</time>
      </trkpt>
      <trkpt lat="42.55671" lon="2.37035">
        <ele>642</ele>
        <time>2013-07-15T13:46:06Z</time>
      </trkpt>
      <trkpt lat="42.55666" lon="2.37037">
        <ele>642</ele>
        <time>2013-07-15T13:46:10Z</time>
      </trkpt>
      <trkpt lat="42.55664" lon="2.37038">
        <ele>642</ele>
        <time>2013-07-15T13:46:12Z</time>
      </trkpt>
      <trkpt lat="42.55662" lon="2.37039">
        <ele>642</ele>
        <time>2013-07-15T13:46:14Z</time>
      </trkpt>
      <trkpt lat="42.55657" lon="2.37043">
        <ele>642</ele>
        <time>2013-07-15T13:46:22Z</time>
      </trkpt>
      <trkpt lat="42.55655" lon="2.37045">
        <ele>642</ele>
        <time>2013-07-15T13:46:25Z</time>
      </trkpt>
      <trkpt lat="42.55651" lon="2.37048">
        <ele>642</ele>
        <time>2013-07-15T13:46:29Z</time>
      </trkpt>
      <trkpt lat="42.55648" lon="2.37051">
        <ele>642</ele>
        <time>2013-07-15T13:46:32Z</time>
      </trkpt>
      <trkpt lat="42.55647" lon="2.37052">
        <ele>642</ele>
        <time>2013-07-15T13:46:36Z</time>
      </trkpt>
      <trkpt lat="42.55649" lon="2.37055">
        <ele>642</ele>
        <time>2013-07-15T13:46:41Z</time>
      </trkpt>
      <trkpt lat="42.55653" lon="2.37056">
        <ele>642</ele>
        <time>2013-07-15T13:46:44Z</time>
      </trkpt>
      <trkpt lat="42.55655" lon="2.37054">
        <ele>642</ele>
        <time>2013-07-15T13:46:48Z</time>
      </trkpt>
      <trkpt lat="42.55659" lon="2.37056">
        <ele>642</ele>
        <time>2013-07-15T13:46:51Z</time>
      </trkpt>
      <trkpt lat="42.55661" lon="2.37056">
        <ele>642</ele>
        <time>2013-07-15T13:46:55Z</time>
      </trkpt>
      <trkpt lat="42.55666" lon="2.37055">
        <ele>642</ele>
        <time>2013-07-15T13:46:57Z</time>
      </trkpt>
      <trkpt lat="42.55667" lon="2.37056">
        <ele>642</ele>
        <time>2013-07-15T13:47:00Z</time>
      </trkpt>
      <trkpt lat="42.55671" lon="2.37058">
        <ele>642</ele>
        <time>2013-07-15T13:47:03Z</time>
      </trkpt>
      <trkpt lat="42.55673" lon="2.37059">
        <ele>642</ele>
        <time>2013-07-15T13:47:06Z</time>
      </trkpt>
      <trkpt lat="42.55677" lon="2.37061">
        <ele>641</ele>
        <time>2013-07-15T13:47:09Z</time>
      </trkpt>
      <trkpt lat="42.55679" lon="2.37062">
        <ele>641</ele>
        <time>2013-07-15T13:47:13Z</time>
      </trkpt>
      <trkpt lat="42.55683" lon="2.37061">
        <ele>640</ele>
        <time>2013-07-15T13:47:15Z</time>
      </trkpt>
      <trkpt lat="42.55686" lon="2.37062">
        <ele>639</ele>
        <time>2013-07-15T13:47:18Z</time>
      </trkpt>
      <trkpt lat="42.55694" lon="2.37063">
        <ele>639</ele>
        <time>2013-07-15T13:47:22Z</time>
      </trkpt>
      <trkpt lat="42.55696" lon="2.37062">
        <ele>638</ele>
        <time>2013-07-15T13:47:24Z</time>
      </trkpt>
      <trkpt lat="42.557" lon="2.37059">
        <ele>638</ele>
        <time>2013-07-15T13:47:28Z</time>
      </trkpt>
      <trkpt lat="42.55704" lon="2.3706">
        <ele>637</ele>
        <time>2013-07-15T13:47:30Z</time>
      </trkpt>
      <trkpt lat="42.55706" lon="2.37061">
        <ele>637</ele>
        <time>2013-07-15T13:47:32Z</time>
      </trkpt>
      <trkpt lat="42.55708" lon="2.37064">
        <ele>637</ele>
        <time>2013-07-15T13:47:35Z</time>
      </trkpt>
      <trkpt lat="42.55716" lon="2.37064">
        <ele>635</ele>
        <time>2013-07-15T13:47:42Z</time>
      </trkpt>
      <trkpt lat="42.5572" lon="2.37064">
        <ele>633</ele>
        <time>2013-07-15T13:47:45Z</time>
      </trkpt>
      <trkpt lat="42.55724" lon="2.37064">
        <ele>631</ele>
        <time>2013-07-15T13:47:49Z</time>
      </trkpt>
      <trkpt lat="42.55729" lon="2.37063">
        <ele>631</ele>
        <time>2013-07-15T13:47:54Z</time>
      </trkpt>
      <trkpt lat="42.55734" lon="2.37063">
        <ele>629</ele>
        <time>2013-07-15T13:47:57Z</time>
      </trkpt>
      <trkpt lat="42.55736" lon="2.37062">
        <ele>629</ele>
        <time>2013-07-15T13:48:00Z</time>
      </trkpt>
      <trkpt lat="42.55741" lon="2.37062">
        <ele>628</ele>
        <time>2013-07-15T13:48:02Z</time>
      </trkpt>
      <trkpt lat="42.55742" lon="2.37063">
        <ele>628</ele>
        <time>2013-07-15T13:48:05Z</time>
      </trkpt>
      <trkpt lat="42.55746" lon="2.37064">
        <ele>627</ele>
        <time>2013-07-15T13:48:09Z</time>
      </trkpt>
      <trkpt lat="42.55753" lon="2.37064">
        <ele>626</ele>
        <time>2013-07-15T13:48:13Z</time>
      </trkpt>
      <trkpt lat="42.55756" lon="2.37063">
        <ele>626</ele>
        <time>2013-07-15T13:48:19Z</time>
      </trkpt>
      <trkpt lat="42.5576" lon="2.37061">
        <ele>626</ele>
        <time>2013-07-15T13:48:22Z</time>
      </trkpt>
      <trkpt lat="42.55758" lon="2.37061">
        <ele>626</ele>
        <time>2013-07-15T13:48:26Z</time>
      </trkpt>
      <trkpt lat="42.55752" lon="2.37061">
        <ele>626</ele>
        <time>2013-07-15T13:48:29Z</time>
      </trkpt>
      <trkpt lat="42.55758" lon="2.37062">
        <ele>626</ele>
        <time>2013-07-15T13:48:33Z</time>
      </trkpt>
      <trkpt lat="42.55761" lon="2.37062">
        <ele>625</ele>
        <time>2013-07-15T13:48:35Z</time>
      </trkpt>
      <trkpt lat="42.55763" lon="2.3706">
        <ele>625</ele>
        <time>2013-07-15T13:48:38Z</time>
      </trkpt>
      <trkpt lat="42.55767" lon="2.37059">
        <ele>625</ele>
        <time>2013-07-15T13:48:40Z</time>
      </trkpt>
      <trkpt lat="42.55769" lon="2.37058">
        <ele>625</ele>
        <time>2013-07-15T13:48:43Z</time>
      </trkpt>
      <trkpt lat="42.55774" lon="2.37059">
        <ele>625</ele>
        <time>2013-07-15T13:48:46Z</time>
      </trkpt>
      <trkpt lat="42.55776" lon="2.37059">
        <ele>625</ele>
        <time>2013-07-15T13:48:48Z</time>
      </trkpt>
      <trkpt lat="42.5578" lon="2.37059">
        <ele>625</ele>
        <time>2013-07-15T13:48:52Z</time>
      </trkpt>
      <trkpt lat="42.55782" lon="2.37059">
        <ele>625</ele>
        <time>2013-07-15T13:48:54Z</time>
      </trkpt>
      <trkpt lat="42.55783" lon="2.37058">
        <ele>625</ele>
        <time>2013-07-15T13:48:56Z</time>
      </trkpt>
      <trkpt lat="42.55786" lon="2.37056">
        <ele>625</ele>
        <time>2013-07-15T13:49:00Z</time>
      </trkpt>
      <trkpt lat="42.55791" lon="2.37056">
        <ele>625</ele>
        <time>2013-07-15T13:49:03Z</time>
      </trkpt>
      <trkpt lat="42.55795" lon="2.37055">
        <ele>625</ele>
        <time>2013-07-15T13:49:06Z</time>
      </trkpt>
      <trkpt lat="42.558" lon="2.37054">
        <ele>625</ele>
        <time>2013-07-15T13:49:10Z</time>
      </trkpt>
      <trkpt lat="42.55801" lon="2.37051">
        <ele>621</ele>
        <time>2013-07-15T13:49:20Z</time>
      </trkpt>
      <trkpt lat="42.55807" lon="2.37047">
        <ele>621</ele>
        <time>2013-07-15T13:49:25Z</time>
      </trkpt>
      <trkpt lat="42.55813" lon="2.37047">
        <ele>621</ele>
        <time>2013-07-15T13:49:31Z</time>
      </trkpt>
      <trkpt lat="42.55818" lon="2.37046">
        <ele>621</ele>
        <time>2013-07-15T13:49:33Z</time>
      </trkpt>
      <trkpt lat="42.55821" lon="2.37045">
        <ele>621</ele>
        <time>2013-07-15T13:49:36Z</time>
      </trkpt>
      <trkpt lat="42.55824" lon="2.37045">
        <ele>621</ele>
        <time>2013-07-15T13:49:38Z</time>
      </trkpt>
      <trkpt lat="42.55825" lon="2.37044">
        <ele>620</ele>
        <time>2013-07-15T13:49:43Z</time>
      </trkpt>
      <trkpt lat="42.55828" lon="2.37044">
        <ele>619</ele>
        <time>2013-07-15T13:49:46Z</time>
      </trkpt>
      <trkpt lat="42.5583" lon="2.37045">
        <ele>619</ele>
        <time>2013-07-15T13:49:49Z</time>
      </trkpt>
      <trkpt lat="42.55833" lon="2.37047">
        <ele>618</ele>
        <time>2013-07-15T13:49:52Z</time>
      </trkpt>
      <trkpt lat="42.55835" lon="2.37048">
        <ele>617</ele>
        <time>2013-07-15T13:49:55Z</time>
      </trkpt>
      <trkpt lat="42.55839" lon="2.37049">
        <ele>616</ele>
        <time>2013-07-15T13:49:58Z</time>
      </trkpt>
      <trkpt lat="42.55842" lon="2.3705">
        <ele>615</ele>
        <time>2013-07-15T13:50:01Z</time>
      </trkpt>
      <trkpt lat="42.55847" lon="2.3705">
        <ele>613</ele>
        <time>2013-07-15T13:50:06Z</time>
      </trkpt>
      <trkpt lat="42.55851" lon="2.37051">
        <ele>612</ele>
        <time>2013-07-15T13:50:08Z</time>
      </trkpt>
      <trkpt lat="42.55852" lon="2.37052">
        <ele>612</ele>
        <time>2013-07-15T13:50:11Z</time>
      </trkpt>
      <trkpt lat="42.55856" lon="2.37053">
        <ele>612</ele>
        <time>2013-07-15T13:50:14Z</time>
      </trkpt>
      <trkpt lat="42.55856" lon="2.37055">
        <ele>612</ele>
        <time>2013-07-15T13:50:17Z</time>
      </trkpt>
      <trkpt lat="42.55858" lon="2.37056">
        <ele>612</ele>
        <time>2013-07-15T13:50:20Z</time>
      </trkpt>
      <trkpt lat="42.55859" lon="2.37056">
        <ele>612</ele>
        <time>2013-07-15T13:50:23Z</time>
      </trkpt>
      <trkpt lat="42.55863" lon="2.37059">
        <ele>612</ele>
        <time>2013-07-15T13:50:28Z</time>
      </trkpt>
      <trkpt lat="42.55864" lon="2.37063">
        <ele>611</ele>
        <time>2013-07-15T13:50:31Z</time>
      </trkpt>
      <trkpt lat="42.55865" lon="2.37061">
        <ele>608</ele>
        <time>2013-07-15T13:50:43Z</time>
      </trkpt>
      <trkpt lat="42.55868" lon="2.37062">
        <ele>608</ele>
        <time>2013-07-15T13:50:46Z</time>
      </trkpt>
      <trkpt lat="42.5587" lon="2.37063">
        <ele>608</ele>
        <time>2013-07-15T13:50:48Z</time>
      </trkpt>
      <trkpt lat="42.55869" lon="2.37063">
        <ele>608</ele>
        <time>2013-07-15T13:50:59Z</time>
      </trkpt>
      <trkpt lat="42.55866" lon="2.37062">
        <ele>606</ele>
        <time>2013-07-15T13:51:01Z</time>
      </trkpt>
      <trkpt lat="42.55863" lon="2.37063">
        <ele>604</ele>
        <time>2013-07-15T13:51:05Z</time>
      </trkpt>
      <trkpt lat="42.55864" lon="2.37064">
        <ele>604</ele>
        <time>2013-07-15T13:51:11Z</time>
      </trkpt>
      <trkpt lat="42.55863" lon="2.37066">
        <ele>604</ele>
        <time>2013-07-15T13:51:17Z</time>
      </trkpt>
      <trkpt lat="42.55859" lon="2.37066">
        <ele>604</ele>
        <time>2013-07-15T13:51:19Z</time>
      </trkpt>
      <trkpt lat="42.55857" lon="2.37067">
        <ele>604</ele>
        <time>2013-07-15T13:51:22Z</time>
      </trkpt>
      <trkpt lat="42.55854" lon="2.37068">
        <ele>603</ele>
        <time>2013-07-15T13:51:26Z</time>
      </trkpt>
      <trkpt lat="42.55851" lon="2.37072">
        <ele>598</ele>
        <time>2013-07-15T13:51:33Z</time>
      </trkpt>
      <trkpt lat="42.55846" lon="2.37075">
        <ele>597</ele>
        <time>2013-07-15T13:51:36Z</time>
      </trkpt>
      <trkpt lat="42.55844" lon="2.37078">
        <ele>597</ele>
        <time>2013-07-15T13:51:39Z</time>
      </trkpt>
      <trkpt lat="42.55841" lon="2.3708">
        <ele>597</ele>
        <time>2013-07-15T13:51:42Z</time>
      </trkpt>
      <trkpt lat="42.55839" lon="2.37082">
        <ele>597</ele>
        <time>2013-07-15T13:51:45Z</time>
      </trkpt>
      <trkpt lat="42.55834" lon="2.37084">
        <ele>596</ele>
        <time>2013-07-15T13:51:48Z</time>
      </trkpt>
      <trkpt lat="42.55832" lon="2.37085">
        <ele>596</ele>
        <time>2013-07-15T13:51:51Z</time>
      </trkpt>
      <trkpt lat="42.55828" lon="2.37089">
        <ele>595</ele>
        <time>2013-07-15T13:51:56Z</time>
      </trkpt>
      <trkpt lat="42.55827" lon="2.37094">
        <ele>594</ele>
        <time>2013-07-15T13:52:01Z</time>
      </trkpt>
      <trkpt lat="42.55833" lon="2.37096">
        <ele>594</ele>
        <time>2013-07-15T13:52:07Z</time>
      </trkpt>
      <trkpt lat="42.55839" lon="2.37094">
        <ele>594</ele>
        <time>2013-07-15T13:52:12Z</time>
      </trkpt>
      <trkpt lat="42.55842" lon="2.37092">
        <ele>594</ele>
        <time>2013-07-15T13:52:15Z</time>
      </trkpt>
      <trkpt lat="42.55844" lon="2.37092">
        <ele>594</ele>
        <time>2013-07-15T13:52:18Z</time>
      </trkpt>
      <trkpt lat="42.55851" lon="2.3709">
        <ele>594</ele>
        <time>2013-07-15T13:52:24Z</time>
      </trkpt>
      <trkpt lat="42.55852" lon="2.37089">
        <ele>594</ele>
        <time>2013-07-15T13:52:26Z</time>
      </trkpt>
      <trkpt lat="42.55855" lon="2.37091">
        <ele>594</ele>
        <time>2013-07-15T13:52:29Z</time>
      </trkpt>
      <trkpt lat="42.55859" lon="2.37092">
        <ele>593</ele>
        <time>2013-07-15T13:52:32Z</time>
      </trkpt>
      <trkpt lat="42.55863" lon="2.37093">
        <ele>593</ele>
        <time>2013-07-15T13:52:35Z</time>
      </trkpt>
      <trkpt lat="42.55864" lon="2.37095">
        <ele>593</ele>
        <time>2013-07-15T13:52:37Z</time>
      </trkpt>
      <trkpt lat="42.55865" lon="2.37099">
        <ele>592</ele>
        <time>2013-07-15T13:52:40Z</time>
      </trkpt>
      <trkpt lat="42.55868" lon="2.37101">
        <ele>592</ele>
        <time>2013-07-15T13:52:43Z</time>
      </trkpt>
      <trkpt lat="42.55867" lon="2.37101">
        <ele>591</ele>
        <time>2013-07-15T13:52:47Z</time>
      </trkpt>
      <trkpt lat="42.55864" lon="2.371">
        <ele>589</ele>
        <time>2013-07-15T13:52:52Z</time>
      </trkpt>
      <trkpt lat="42.55866" lon="2.37099">
        <ele>588</ele>
        <time>2013-07-15T13:52:59Z</time>
      </trkpt>
      <trkpt lat="42.5587" lon="2.37099">
        <ele>587</ele>
        <time>2013-07-15T13:53:03Z</time>
      </trkpt>
      <trkpt lat="42.55872" lon="2.37098">
        <ele>584</ele>
        <time>2013-07-15T13:53:17Z</time>
      </trkpt>
      <trkpt lat="42.55875" lon="2.37097">
        <ele>584</ele>
        <time>2013-07-15T13:53:21Z</time>
      </trkpt>
      <trkpt lat="42.5588" lon="2.37095">
        <ele>583</ele>
        <time>2013-07-15T13:53:25Z</time>
      </trkpt>
      <trkpt lat="42.55885" lon="2.37092">
        <ele>583</ele>
        <time>2013-07-15T13:53:29Z</time>
      </trkpt>
      <trkpt lat="42.5589" lon="2.3709">
        <ele>581</ele>
        <time>2013-07-15T13:53:35Z</time>
      </trkpt>
      <trkpt lat="42.55893" lon="2.37089">
        <ele>580</ele>
        <time>2013-07-15T13:53:37Z</time>
      </trkpt>
      <trkpt lat="42.55895" lon="2.37089">
        <ele>579</ele>
        <time>2013-07-15T13:53:39Z</time>
      </trkpt>
      <trkpt lat="42.559" lon="2.37087">
        <ele>579</ele>
        <time>2013-07-15T13:53:44Z</time>
      </trkpt>
      <trkpt lat="42.55906" lon="2.37086">
        <ele>579</ele>
        <time>2013-07-15T13:53:48Z</time>
      </trkpt>
      <trkpt lat="42.5591" lon="2.37086">
        <ele>579</ele>
        <time>2013-07-15T13:53:50Z</time>
      </trkpt>
      <trkpt lat="42.55913" lon="2.37085">
        <ele>579</ele>
        <time>2013-07-15T13:53:53Z</time>
      </trkpt>
      <trkpt lat="42.55918" lon="2.37084">
        <ele>579</ele>
        <time>2013-07-15T13:53:58Z</time>
      </trkpt>
      <trkpt lat="42.55921" lon="2.37085">
        <ele>579</ele>
        <time>2013-07-15T13:54:00Z</time>
      </trkpt>
      <trkpt lat="42.55925" lon="2.37084">
        <ele>579</ele>
        <time>2013-07-15T13:54:03Z</time>
      </trkpt>
      <trkpt lat="42.5593" lon="2.37082">
        <ele>579</ele>
        <time>2013-07-15T13:54:08Z</time>
      </trkpt>
      <trkpt lat="42.55933" lon="2.3708">
        <ele>578</ele>
        <time>2013-07-15T13:54:10Z</time>
      </trkpt>
      <trkpt lat="42.55936" lon="2.37079">
        <ele>578</ele>
        <time>2013-07-15T13:54:13Z</time>
      </trkpt>
      <trkpt lat="42.55938" lon="2.37079">
        <ele>577</ele>
        <time>2013-07-15T13:54:15Z</time>
      </trkpt>
      <trkpt lat="42.55942" lon="2.37077">
        <ele>577</ele>
        <time>2013-07-15T13:54:19Z</time>
      </trkpt>
      <trkpt lat="42.55949" lon="2.37075">
        <ele>576</ele>
        <time>2013-07-15T13:54:24Z</time>
      </trkpt>
      <trkpt lat="42.55956" lon="2.37077">
        <ele>576</ele>
        <time>2013-07-15T13:54:28Z</time>
      </trkpt>
      <trkpt lat="42.55956" lon="2.37079">
        <ele>576</ele>
        <time>2013-07-15T13:54:30Z</time>
      </trkpt>
      <trkpt lat="42.55954" lon="2.37083">
        <ele>576</ele>
        <time>2013-07-15T13:54:35Z</time>
      </trkpt>
      <trkpt lat="42.5595" lon="2.37089">
        <ele>576</ele>
        <time>2013-07-15T13:54:40Z</time>
      </trkpt>
      <trkpt lat="42.55947" lon="2.37093">
        <ele>576</ele>
        <time>2013-07-15T13:54:45Z</time>
      </trkpt>
      <trkpt lat="42.55944" lon="2.37097">
        <ele>576</ele>
        <time>2013-07-15T13:54:49Z</time>
      </trkpt>
      <trkpt lat="42.55936" lon="2.37101">
        <ele>576</ele>
        <time>2013-07-15T13:54:52Z</time>
      </trkpt>
      <trkpt lat="42.55933" lon="2.37102">
        <ele>576</ele>
        <time>2013-07-15T13:54:54Z</time>
      </trkpt>
      <trkpt lat="42.55927" lon="2.37105">
        <ele>576</ele>
        <time>2013-07-15T13:54:59Z</time>
      </trkpt>
      <trkpt lat="42.55928" lon="2.37102">
        <ele>576</ele>
        <time>2013-07-15T13:55:02Z</time>
      </trkpt>
      <trkpt lat="42.55926" lon="2.37102">
        <ele>576</ele>
        <time>2013-07-15T13:55:06Z</time>
      </trkpt>
      <trkpt lat="42.55925" lon="2.37103">
        <ele>575</ele>
        <time>2013-07-15T13:55:08Z</time>
      </trkpt>
      <trkpt lat="42.55923" lon="2.37106">
        <ele>574</ele>
        <time>2013-07-15T13:55:11Z</time>
      </trkpt>
      <trkpt lat="42.55919" lon="2.37109">
        <ele>574</ele>
        <time>2013-07-15T13:55:14Z</time>
      </trkpt>
      <trkpt lat="42.55917" lon="2.3711">
        <ele>573</ele>
        <time>2013-07-15T13:55:16Z</time>
      </trkpt>
      <trkpt lat="42.55912" lon="2.37113">
        <ele>572</ele>
        <time>2013-07-15T13:55:21Z</time>
      </trkpt>
      <trkpt lat="42.55909" lon="2.37115">
        <ele>571</ele>
        <time>2013-07-15T13:55:24Z</time>
      </trkpt>
      <trkpt lat="42.55907" lon="2.37118">
        <ele>570</ele>
        <time>2013-07-15T13:55:27Z</time>
      </trkpt>
      <trkpt lat="42.55904" lon="2.37123">
        <ele>569</ele>
        <time>2013-07-15T13:55:30Z</time>
      </trkpt>
      <trkpt lat="42.55901" lon="2.37124">
        <ele>569</ele>
        <time>2013-07-15T13:55:33Z</time>
      </trkpt>
      <trkpt lat="42.55898" lon="2.37124">
        <ele>568</ele>
        <time>2013-07-15T13:55:35Z</time>
      </trkpt>
      <trkpt lat="42.55897" lon="2.37124">
        <ele>568</ele>
        <time>2013-07-15T13:55:39Z</time>
      </trkpt>
      <trkpt lat="42.55893" lon="2.37126">
        <ele>568</ele>
        <time>2013-07-15T13:55:41Z</time>
      </trkpt>
      <trkpt lat="42.5589" lon="2.37127">
        <ele>567</ele>
        <time>2013-07-15T13:55:45Z</time>
      </trkpt>
      <trkpt lat="42.55885" lon="2.3713">
        <ele>567</ele>
        <time>2013-07-15T13:55:47Z</time>
      </trkpt>
      <trkpt lat="42.55882" lon="2.3713">
        <ele>567</ele>
        <time>2013-07-15T13:55:51Z</time>
      </trkpt>
      <trkpt lat="42.55878" lon="2.37131">
        <ele>567</ele>
        <time>2013-07-15T13:55:57Z</time>
      </trkpt>
      <trkpt lat="42.55875" lon="2.37135">
        <ele>567</ele>
        <time>2013-07-15T13:55:59Z</time>
      </trkpt>
      <trkpt lat="42.55875" lon="2.37137">
        <ele>567</ele>
        <time>2013-07-15T13:56:03Z</time>
      </trkpt>
      <trkpt lat="42.55874" lon="2.37138">
        <ele>567</ele>
        <time>2013-07-15T13:56:05Z</time>
      </trkpt>
      <trkpt lat="42.55873" lon="2.3714">
        <ele>567</ele>
        <time>2013-07-15T13:56:09Z</time>
      </trkpt>
      <trkpt lat="42.55876" lon="2.3714">
        <ele>567</ele>
        <time>2013-07-15T13:56:12Z</time>
      </trkpt>
      <trkpt lat="42.55879" lon="2.37139">
        <ele>567</ele>
        <time>2013-07-15T13:56:15Z</time>
      </trkpt>
      <trkpt lat="42.55883" lon="2.37139">
        <ele>566</ele>
        <time>2013-07-15T13:56:18Z</time>
      </trkpt>
      <trkpt lat="42.55885" lon="2.3714">
        <ele>565</ele>
        <time>2013-07-15T13:56:21Z</time>
      </trkpt>
      <trkpt lat="42.55888" lon="2.37144">
        <ele>564</ele>
        <time>2013-07-15T13:56:24Z</time>
      </trkpt>
      <trkpt lat="42.55891" lon="2.37146">
        <ele>564</ele>
        <time>2013-07-15T13:56:27Z</time>
      </trkpt>
      <trkpt lat="42.55893" lon="2.3715">
        <ele>564</ele>
        <time>2013-07-15T13:56:29Z</time>
      </trkpt>
      <trkpt lat="42.55892" lon="2.37154">
        <ele>564</ele>
        <time>2013-07-15T13:56:33Z</time>
      </trkpt>
      <trkpt lat="42.55887" lon="2.37158">
        <ele>564</ele>
        <time>2013-07-15T13:56:37Z</time>
      </trkpt>
      <trkpt lat="42.55886" lon="2.37167">
        <ele>562</ele>
        <time>2013-07-15T13:56:42Z</time>
      </trkpt>
      <trkpt lat="42.55886" lon="2.37171">
        <ele>562</ele>
        <time>2013-07-15T13:56:46Z</time>
      </trkpt>
      <trkpt lat="42.55888" lon="2.37171">
        <ele>562</ele>
        <time>2013-07-15T13:56:53Z</time>
      </trkpt>
      <trkpt lat="42.55884" lon="2.37177">
        <ele>562</ele>
        <time>2013-07-15T13:56:56Z</time>
      </trkpt>
      <trkpt lat="42.55882" lon="2.3718">
        <ele>562</ele>
        <time>2013-07-15T13:57:00Z</time>
      </trkpt>
      <trkpt lat="42.55882" lon="2.37187">
        <ele>562</ele>
        <time>2013-07-15T13:57:04Z</time>
      </trkpt>
      <trkpt lat="42.55882" lon="2.37194">
        <ele>560</ele>
        <time>2013-07-15T13:57:08Z</time>
      </trkpt>
      <trkpt lat="42.55883" lon="2.37199">
        <ele>560</ele>
        <time>2013-07-15T13:57:10Z</time>
      </trkpt>
      <trkpt lat="42.55883" lon="2.37203">
        <ele>560</ele>
        <time>2013-07-15T13:57:14Z</time>
      </trkpt>
      <trkpt lat="42.55883" lon="2.37209">
        <ele>558</ele>
        <time>2013-07-15T13:57:17Z</time>
      </trkpt>
      <trkpt lat="42.55883" lon="2.37214">
        <ele>558</ele>
        <time>2013-07-15T13:57:20Z</time>
      </trkpt>
      <trkpt lat="42.55883" lon="2.37217">
        <ele>557</ele>
        <time>2013-07-15T13:57:22Z</time>
      </trkpt>
      <trkpt lat="42.55882" lon="2.3722">
        <ele>556</ele>
        <time>2013-07-15T13:57:26Z</time>
      </trkpt>
      <trkpt lat="42.55884" lon="2.37227">
        <ele>555</ele>
        <time>2013-07-15T13:57:28Z</time>
      </trkpt>
      <trkpt lat="42.55885" lon="2.3723">
        <ele>555</ele>
        <time>2013-07-15T13:57:31Z</time>
      </trkpt>
      <trkpt lat="42.55887" lon="2.37237">
        <ele>555</ele>
        <time>2013-07-15T13:57:35Z</time>
      </trkpt>
      <trkpt lat="42.5589" lon="2.37243">
        <ele>555</ele>
        <time>2013-07-15T13:57:40Z</time>
      </trkpt>
      <trkpt lat="42.55893" lon="2.37244">
        <ele>555</ele>
        <time>2013-07-15T13:57:42Z</time>
      </trkpt>
      <trkpt lat="42.55895" lon="2.37249">
        <ele>555</ele>
        <time>2013-07-15T13:57:47Z</time>
      </trkpt>
      <trkpt lat="42.55896" lon="2.37255">
        <ele>555</ele>
        <time>2013-07-15T13:57:50Z</time>
      </trkpt>
      <trkpt lat="42.55896" lon="2.37256">
        <ele>555</ele>
        <time>2013-07-15T13:57:52Z</time>
      </trkpt>
      <trkpt lat="42.55895" lon="2.37256">
        <ele>555</ele>
        <time>2013-07-15T13:57:59Z</time>
      </trkpt>
      <trkpt lat="42.55894" lon="2.37257">
        <ele>555</ele>
        <time>2013-07-15T13:58:12Z</time>
      </trkpt>
      <trkpt lat="42.55892" lon="2.37256">
        <ele>555</ele>
        <time>2013-07-15T13:58:18Z</time>
      </trkpt>
      <trkpt lat="42.55894" lon="2.37256">
        <ele>555</ele>
        <time>2013-07-15T13:58:33Z</time>
      </trkpt>
      <trkpt lat="42.55892" lon="2.3726">
        <ele>555</ele>
        <time>2013-07-15T13:59:00Z</time>
      </trkpt>
      <trkpt lat="42.55892" lon="2.37258">
        <ele>555</ele>
        <time>2013-07-15T13:59:08Z</time>
      </trkpt>
      <trkpt lat="42.5589" lon="2.37257">
        <ele>555</ele>
        <time>2013-07-15T13:59:13Z</time>
      </trkpt>
      <trkpt lat="42.55891" lon="2.37256">
        <ele>555</ele>
        <time>2013-07-15T13:59:19Z</time>
      </trkpt>
      <trkpt lat="42.55893" lon="2.37256">
        <ele>555</ele>
        <time>2013-07-15T13:59:25Z</time>
      </trkpt>
      <trkpt lat="42.55894" lon="2.37256">
        <ele>555</ele>
        <time>2013-07-15T13:59:31Z</time>
      </trkpt>
      <trkpt lat="42.55896" lon="2.37256">
        <ele>555</ele>
        <time>2013-07-15T13:59:36Z</time>
      </trkpt>
      <trkpt lat="42.55898" lon="2.3726">
        <ele>555</ele>
        <time>2013-07-15T13:59:42Z</time>
      </trkpt>
      <trkpt lat="42.559" lon="2.37269">
        <ele>555</ele>
        <time>2013-07-15T13:59:47Z</time>
      </trkpt>
      <trkpt lat="42.559" lon="2.37273">
        <ele>555</ele>
        <time>2013-07-15T13:59:49Z</time>
      </trkpt>
      <trkpt lat="42.55898" lon="2.37278">
        <ele>555</ele>
        <time>2013-07-15T13:59:52Z</time>
      </trkpt>
      <trkpt lat="42.55897" lon="2.37284">
        <ele>555</ele>
        <time>2013-07-15T13:59:57Z</time>
      </trkpt>
      <trkpt lat="42.55894" lon="2.37288">
        <ele>555</ele>
        <time>2013-07-15T14:00:00Z</time>
      </trkpt>
      <trkpt lat="42.55896" lon="2.37288">
        <ele>554</ele>
        <time>2013-07-15T14:01:26Z</time>
      </trkpt>
      <trkpt lat="42.55897" lon="2.37288">
        <ele>554</ele>
        <time>2013-07-15T14:01:45Z</time>
      </trkpt>
      <trkpt lat="42.55898" lon="2.37289">
        <ele>554</ele>
        <time>2013-07-15T14:01:49Z</time>
      </trkpt>
      <trkpt lat="42.559" lon="2.3729">
        <ele>554</ele>
        <time>2013-07-15T14:01:54Z</time>
      </trkpt>
      <trkpt lat="42.559" lon="2.37289">
        <ele>554</ele>
        <time>2013-07-15T14:02:04Z</time>
      </trkpt>
      <trkpt lat="42.55901" lon="2.3729">
        <ele>554</ele>
        <time>2013-07-15T14:02:16Z</time>
      </trkpt>
      <trkpt lat="42.55902" lon="2.37292">
        <ele>554</ele>
        <time>2013-07-15T14:02:22Z</time>
      </trkpt>
      <trkpt lat="42.559" lon="2.37295">
        <ele>554</ele>
        <time>2013-07-15T14:02:26Z</time>
      </trkpt>
      <trkpt lat="42.55896" lon="2.37299">
        <ele>554</ele>
        <time>2013-07-15T14:02:29Z</time>
      </trkpt>
      <trkpt lat="42.55895" lon="2.37302">
        <ele>554</ele>
        <time>2013-07-15T14:02:31Z</time>
      </trkpt>
      <trkpt lat="42.55889" lon="2.37307">
        <ele>554</ele>
        <time>2013-07-15T14:02:37Z</time>
      </trkpt>
      <trkpt lat="42.55886" lon="2.37311">
        <ele>554</ele>
        <time>2013-07-15T14:02:41Z</time>
      </trkpt>
      <trkpt lat="42.55883" lon="2.3732">
        <ele>554</ele>
        <time>2013-07-15T14:02:47Z</time>
      </trkpt>
      <trkpt lat="42.55883" lon="2.37327">
        <ele>554</ele>
        <time>2013-07-15T14:02:50Z</time>
      </trkpt>
      <trkpt lat="42.55883" lon="2.37331">
        <ele>554</ele>
        <time>2013-07-15T14:02:53Z</time>
      </trkpt>
      <trkpt lat="42.55884" lon="2.37337">
        <ele>554</ele>
        <time>2013-07-15T14:02:57Z</time>
      </trkpt>
      <trkpt lat="42.55885" lon="2.37343">
        <ele>554</ele>
        <time>2013-07-15T14:03:01Z</time>
      </trkpt>
      <trkpt lat="42.55886" lon="2.37348">
        <ele>554</ele>
        <time>2013-07-15T14:03:13Z</time>
      </trkpt>
      <trkpt lat="42.55884" lon="2.37352">
        <ele>554</ele>
        <time>2013-07-15T14:03:15Z</time>
      </trkpt>
      <trkpt lat="42.55884" lon="2.37357">
        <ele>554</ele>
        <time>2013-07-15T14:03:19Z</time>
      </trkpt>
      <trkpt lat="42.55884" lon="2.37364">
        <ele>554</ele>
        <time>2013-07-15T14:03:23Z</time>
      </trkpt>
      <trkpt lat="42.55888" lon="2.37371">
        <ele>554</ele>
        <time>2013-07-15T14:03:28Z</time>
      </trkpt>
      <trkpt lat="42.55889" lon="2.37377">
        <ele>554</ele>
        <time>2013-07-15T14:03:32Z</time>
      </trkpt>
      <trkpt lat="42.5589" lon="2.3738">
        <ele>554</ele>
        <time>2013-07-15T14:03:35Z</time>
      </trkpt>
      <trkpt lat="42.55892" lon="2.3738">
        <ele>554</ele>
        <time>2013-07-15T14:03:39Z</time>
      </trkpt>
      <trkpt lat="42.55894" lon="2.37385">
        <ele>554</ele>
        <time>2013-07-15T14:03:51Z</time>
      </trkpt>
      <trkpt lat="42.55895" lon="2.37387">
        <ele>554</ele>
        <time>2013-07-15T14:03:53Z</time>
      </trkpt>
      <trkpt lat="42.55897" lon="2.37391">
        <ele>554</ele>
        <time>2013-07-15T14:03:56Z</time>
      </trkpt>
      <trkpt lat="42.55899" lon="2.37395">
        <ele>555</ele>
        <time>2013-07-15T14:04:00Z</time>
      </trkpt>
      <trkpt lat="42.55903" lon="2.37402">
        <ele>555</ele>
        <time>2013-07-15T14:04:05Z</time>
      </trkpt>
      <trkpt lat="42.55904" lon="2.37406">
        <ele>555</ele>
        <time>2013-07-15T14:04:09Z</time>
      </trkpt>
      <trkpt lat="42.55908" lon="2.37413">
        <ele>555</ele>
        <time>2013-07-15T14:04:14Z</time>
      </trkpt>
      <trkpt lat="42.55912" lon="2.37418">
        <ele>555</ele>
        <time>2013-07-15T14:04:18Z</time>
      </trkpt>
      <trkpt lat="42.55915" lon="2.37423">
        <ele>555</ele>
        <time>2013-07-15T14:04:23Z</time>
      </trkpt>
      <trkpt lat="42.55914" lon="2.37425">
        <ele>555</ele>
        <time>2013-07-15T14:04:26Z</time>
      </trkpt>
      <trkpt lat="42.55915" lon="2.37426">
        <ele>555</ele>
        <time>2013-07-15T14:04:30Z</time>
      </trkpt>
      <trkpt lat="42.55917" lon="2.37428">
        <ele>553</ele>
        <time>2013-07-15T14:04:38Z</time>
      </trkpt>
      <trkpt lat="42.55918" lon="2.3743">
        <ele>552</ele>
        <time>2013-07-15T14:04:43Z</time>
      </trkpt>
      <trkpt lat="42.55917" lon="2.37433">
        <ele>552</ele>
        <time>2013-07-15T14:04:47Z</time>
      </trkpt>
      <trkpt lat="42.55919" lon="2.37434">
        <ele>552</ele>
        <time>2013-07-15T14:04:50Z</time>
      </trkpt>
      <trkpt lat="42.55918" lon="2.37435">
        <ele>552</ele>
        <time>2013-07-15T14:04:54Z</time>
      </trkpt>
      <trkpt lat="42.55921" lon="2.37442">
        <ele>552</ele>
        <time>2013-07-15T14:05:00Z</time>
      </trkpt>
      <trkpt lat="42.55921" lon="2.37448">
        <ele>552</ele>
        <time>2013-07-15T14:05:02Z</time>
      </trkpt>
      <trkpt lat="42.55919" lon="2.37451">
        <ele>552</ele>
        <time>2013-07-15T14:05:05Z</time>
      </trkpt>
      <trkpt lat="42.55918" lon="2.37455">
        <ele>552</ele>
        <time>2013-07-15T14:05:07Z</time>
      </trkpt>
      <trkpt lat="42.55917" lon="2.37459">
        <ele>552</ele>
        <time>2013-07-15T14:05:11Z</time>
      </trkpt>
      <trkpt lat="42.55917" lon="2.37466">
        <ele>552</ele>
        <time>2013-07-15T14:05:14Z</time>
      </trkpt>
      <trkpt lat="42.55917" lon="2.37471">
        <ele>552</ele>
        <time>2013-07-15T14:05:17Z</time>
      </trkpt>
      <trkpt lat="42.55917" lon="2.37473">
        <ele>552</ele>
        <time>2013-07-15T14:05:19Z</time>
      </trkpt>
      <trkpt lat="42.55917" lon="2.37476">
        <ele>552</ele>
        <time>2013-07-15T14:05:23Z</time>
      </trkpt>
      <trkpt lat="42.55918" lon="2.37485">
        <ele>552</ele>
        <time>2013-07-15T14:05:27Z</time>
      </trkpt>
      <trkpt lat="42.55918" lon="2.3749">
        <ele>552</ele>
        <time>2013-07-15T14:05:31Z</time>
      </trkpt>
      <trkpt lat="42.55917" lon="2.37497">
        <ele>552</ele>
        <time>2013-07-15T14:05:36Z</time>
      </trkpt>
      <trkpt lat="42.55918" lon="2.37503">
        <ele>552</ele>
        <time>2013-07-15T14:05:40Z</time>
      </trkpt>
      <trkpt lat="42.55919" lon="2.3751">
        <ele>552</ele>
        <time>2013-07-15T14:05:44Z</time>
      </trkpt>
      <trkpt lat="42.5592" lon="2.37513">
        <ele>552</ele>
        <time>2013-07-15T14:05:52Z</time>
      </trkpt>
      <trkpt lat="42.55921" lon="2.37516">
        <ele>552</ele>
        <time>2013-07-15T14:05:59Z</time>
      </trkpt>
      <trkpt lat="42.55922" lon="2.37519">
        <ele>552</ele>
        <time>2013-07-15T14:06:02Z</time>
      </trkpt>
      <trkpt lat="42.55925" lon="2.37523">
        <ele>554</ele>
        <time>2013-07-15T14:06:04Z</time>
      </trkpt>
      <trkpt lat="42.55927" lon="2.37526">
        <ele>555</ele>
        <time>2013-07-15T14:06:07Z</time>
      </trkpt>
      <trkpt lat="42.5593" lon="2.37527">
        <ele>557</ele>
        <time>2013-07-15T14:06:13Z</time>
      </trkpt>
      <trkpt lat="42.55936" lon="2.37528">
        <ele>557</ele>
        <time>2013-07-15T14:06:19Z</time>
      </trkpt>
      <trkpt lat="42.55939" lon="2.37528">
        <ele>557</ele>
        <time>2013-07-15T14:06:21Z</time>
      </trkpt>
      <trkpt lat="42.5594" lon="2.37528">
        <ele>557</ele>
        <time>2013-07-15T14:06:24Z</time>
      </trkpt>
      <trkpt lat="42.55944" lon="2.37531">
        <ele>557</ele>
        <time>2013-07-15T14:06:29Z</time>
      </trkpt>
      <trkpt lat="42.5595" lon="2.37535">
        <ele>558</ele>
        <time>2013-07-15T14:06:33Z</time>
      </trkpt>
      <trkpt lat="42.55954" lon="2.37539">
        <ele>558</ele>
        <time>2013-07-15T14:06:38Z</time>
      </trkpt>
      <trkpt lat="42.55959" lon="2.37542">
        <ele>558</ele>
        <time>2013-07-15T14:06:42Z</time>
      </trkpt>
      <trkpt lat="42.55963" lon="2.37544">
        <ele>558</ele>
        <time>2013-07-15T14:06:47Z</time>
      </trkpt>
      <trkpt lat="42.5597" lon="2.37544">
        <ele>558</ele>
        <time>2013-07-15T14:06:52Z</time>
      </trkpt>
      <trkpt lat="42.55977" lon="2.37543">
        <ele>558</ele>
        <time>2013-07-15T14:06:56Z</time>
      </trkpt>
      <trkpt lat="42.55982" lon="2.37544">
        <ele>558</ele>
        <time>2013-07-15T14:07:01Z</time>
      </trkpt>
      <trkpt lat="42.55988" lon="2.37545">
        <ele>558</ele>
        <time>2013-07-15T14:07:04Z</time>
      </trkpt>
      <trkpt lat="42.55991" lon="2.37546">
        <ele>558</ele>
        <time>2013-07-15T14:07:06Z</time>
      </trkpt>
      <trkpt lat="42.55995" lon="2.37549">
        <ele>558</ele>
        <time>2013-07-15T14:07:09Z</time>
      </trkpt>
      <trkpt lat="42.55996" lon="2.37551">
        <ele>557</ele>
        <time>2013-07-15T14:07:12Z</time>
      </trkpt>
      <trkpt lat="42.56" lon="2.37554">
        <ele>557</ele>
        <time>2013-07-15T14:07:16Z</time>
      </trkpt>
      <trkpt lat="42.56008" lon="2.3756">
        <ele>557</ele>
        <time>2013-07-15T14:07:21Z</time>
      </trkpt>
      <trkpt lat="42.56009" lon="2.37564">
        <ele>557</ele>
        <time>2013-07-15T14:07:23Z</time>
      </trkpt>
      <trkpt lat="42.5601" lon="2.37571">
        <ele>557</ele>
        <time>2013-07-15T14:07:27Z</time>
      </trkpt>
      <trkpt lat="42.5601" lon="2.37575">
        <ele>557</ele>
        <time>2013-07-15T14:07:31Z</time>
      </trkpt>
      <trkpt lat="42.56012" lon="2.37583">
        <ele>557</ele>
        <time>2013-07-15T14:07:36Z</time>
      </trkpt>
      <trkpt lat="42.56014" lon="2.37587">
        <ele>557</ele>
        <time>2013-07-15T14:07:40Z</time>
      </trkpt>
      <trkpt lat="42.56019" lon="2.37591">
        <ele>557</ele>
        <time>2013-07-15T14:07:43Z</time>
      </trkpt>
      <trkpt lat="42.5602" lon="2.37593">
        <ele>557</ele>
        <time>2013-07-15T14:07:46Z</time>
      </trkpt>
      <trkpt lat="42.56026" lon="2.37598">
        <ele>557</ele>
        <time>2013-07-15T14:07:50Z</time>
      </trkpt>
      <trkpt lat="42.56031" lon="2.37602">
        <ele>558</ele>
        <time>2013-07-15T14:07:55Z</time>
      </trkpt>
      <trkpt lat="42.56035" lon="2.37607">
        <ele>558</ele>
        <time>2013-07-15T14:07:59Z</time>
      </trkpt>
      <trkpt lat="42.56039" lon="2.3761">
        <ele>558</ele>
        <time>2013-07-15T14:08:04Z</time>
      </trkpt>
      <trkpt lat="42.56045" lon="2.37613">
        <ele>558</ele>
        <time>2013-07-15T14:08:09Z</time>
      </trkpt>
      <trkpt lat="42.56046" lon="2.37615">
        <ele>559</ele>
        <time>2013-07-15T14:08:11Z</time>
      </trkpt>
      <trkpt lat="42.56048" lon="2.37616">
        <ele>559</ele>
        <time>2013-07-15T14:08:14Z</time>
      </trkpt>
      <trkpt lat="42.56052" lon="2.37617">
        <ele>561</ele>
        <time>2013-07-15T14:08:19Z</time>
      </trkpt>
      <trkpt lat="42.56057" lon="2.37618">
        <ele>562</ele>
        <time>2013-07-15T14:08:23Z</time>
      </trkpt>
      <trkpt lat="42.56061" lon="2.37618">
        <ele>562</ele>
        <time>2013-07-15T14:08:28Z</time>
      </trkpt>
      <trkpt lat="42.56068" lon="2.37618">
        <ele>563</ele>
        <time>2013-07-15T14:08:33Z</time>
      </trkpt>
      <trkpt lat="42.56073" lon="2.37618">
        <ele>564</ele>
        <time>2013-07-15T14:08:37Z</time>
      </trkpt>
      <trkpt lat="42.5608" lon="2.37618">
        <ele>564</ele>
        <time>2013-07-15T14:08:42Z</time>
      </trkpt>
      <trkpt lat="42.56081" lon="2.37618">
        <ele>564</ele>
        <time>2013-07-15T14:08:44Z</time>
      </trkpt>
      <trkpt lat="42.56084" lon="2.37619">
        <ele>564</ele>
        <time>2013-07-15T14:08:47Z</time>
      </trkpt>
      <trkpt lat="42.56088" lon="2.37621">
        <ele>564</ele>
        <time>2013-07-15T14:08:50Z</time>
      </trkpt>
      <trkpt lat="42.56091" lon="2.37621">
        <ele>564</ele>
        <time>2013-07-15T14:08:52Z</time>
      </trkpt>
      <trkpt lat="42.56095" lon="2.37622">
        <ele>564</ele>
        <time>2013-07-15T14:08:57Z</time>
      </trkpt>
      <trkpt lat="42.56101" lon="2.37624">
        <ele>564</ele>
        <time>2013-07-15T14:09:02Z</time>
      </trkpt>
      <trkpt lat="42.56106" lon="2.37626">
        <ele>564</ele>
        <time>2013-07-15T14:09:06Z</time>
      </trkpt>
      <trkpt lat="42.56112" lon="2.37629">
        <ele>564</ele>
        <time>2013-07-15T14:09:11Z</time>
      </trkpt>
      <trkpt lat="42.56115" lon="2.37632">
        <ele>564</ele>
        <time>2013-07-15T14:09:15Z</time>
      </trkpt>
      <trkpt lat="42.5612" lon="2.37639">
        <ele>563</ele>
        <time>2013-07-15T14:09:20Z</time>
      </trkpt>
      <trkpt lat="42.5612" lon="2.37642">
        <ele>563</ele>
        <time>2013-07-15T14:09:22Z</time>
      </trkpt>
      <trkpt lat="42.56122" lon="2.37644">
        <ele>562</ele>
        <time>2013-07-15T14:09:24Z</time>
      </trkpt>
      <trkpt lat="42.56127" lon="2.37649">
        <ele>562</ele>
        <time>2013-07-15T14:09:29Z</time>
      </trkpt>
      <trkpt lat="42.56131" lon="2.37655">
        <ele>562</ele>
        <time>2013-07-15T14:09:34Z</time>
      </trkpt>
      <trkpt lat="42.56135" lon="2.37659">
        <ele>562</ele>
        <time>2013-07-15T14:09:38Z</time>
      </trkpt>
      <trkpt lat="42.5614" lon="2.37666">
        <ele>562</ele>
        <time>2013-07-15T14:09:43Z</time>
      </trkpt>
      <trkpt lat="42.56143" lon="2.3767">
        <ele>562</ele>
        <time>2013-07-15T14:09:47Z</time>
      </trkpt>
      <trkpt lat="42.56145" lon="2.37675">
        <ele>562</ele>
        <time>2013-07-15T14:09:50Z</time>
      </trkpt>
      <trkpt lat="42.56146" lon="2.37677">
        <ele>562</ele>
        <time>2013-07-15T14:09:52Z</time>
      </trkpt>
      <trkpt lat="42.56148" lon="2.37682">
        <ele>562</ele>
        <time>2013-07-15T14:09:57Z</time>
      </trkpt>
      <trkpt lat="42.5615" lon="2.37686">
        <ele>562</ele>
        <time>2013-07-15T14:09:59Z</time>
      </trkpt>
      <trkpt lat="42.56151" lon="2.37689">
        <ele>562</ele>
        <time>2013-07-15T14:10:02Z</time>
      </trkpt>
      <trkpt lat="42.56155" lon="2.37696">
        <ele>562</ele>
        <time>2013-07-15T14:10:07Z</time>
      </trkpt>
      <trkpt lat="42.56157" lon="2.37699">
        <ele>562</ele>
        <time>2013-07-15T14:10:11Z</time>
      </trkpt>
      <trkpt lat="42.5616" lon="2.37701">
        <ele>562</ele>
        <time>2013-07-15T14:10:13Z</time>
      </trkpt>
      <trkpt lat="42.56164" lon="2.37703">
        <ele>562</ele>
        <time>2013-07-15T14:10:17Z</time>
      </trkpt>
      <trkpt lat="42.56169" lon="2.37707">
        <ele>562</ele>
        <time>2013-07-15T14:10:21Z</time>
      </trkpt>
      <trkpt lat="42.56172" lon="2.37709">
        <ele>562</ele>
        <time>2013-07-15T14:10:26Z</time>
      </trkpt>
      <trkpt lat="42.56175" lon="2.37711">
        <ele>562</ele>
        <time>2013-07-15T14:10:28Z</time>
      </trkpt>
      <trkpt lat="42.56178" lon="2.37713">
        <ele>561</ele>
        <time>2013-07-15T14:10:33Z</time>
      </trkpt>
      <trkpt lat="42.56183" lon="2.37712">
        <ele>559</ele>
        <time>2013-07-15T14:10:36Z</time>
      </trkpt>
      <trkpt lat="42.56185" lon="2.37711">
        <ele>559</ele>
        <time>2013-07-15T14:10:38Z</time>
      </trkpt>
      <trkpt lat="42.5619" lon="2.37711">
        <ele>558</ele>
        <time>2013-07-15T14:10:43Z</time>
      </trkpt>
      <trkpt lat="42.56193" lon="2.37711">
        <ele>558</ele>
        <time>2013-07-15T14:10:45Z</time>
      </trkpt>
      <trkpt lat="42.56195" lon="2.3771">
        <ele>558</ele>
        <time>2013-07-15T14:10:48Z</time>
      </trkpt>
      <trkpt lat="42.56201" lon="2.3771">
        <ele>558</ele>
        <time>2013-07-15T14:10:53Z</time>
      </trkpt>
      <trkpt lat="42.56204" lon="2.3771">
        <ele>558</ele>
        <time>2013-07-15T14:10:57Z</time>
      </trkpt>
      <trkpt lat="42.56209" lon="2.3771">
        <ele>558</ele>
        <time>2013-07-15T14:11:02Z</time>
      </trkpt>
      <trkpt lat="42.56214" lon="2.37711">
        <ele>558</ele>
        <time>2013-07-15T14:11:07Z</time>
      </trkpt>
      <trkpt lat="42.56219" lon="2.37711">
        <ele>558</ele>
        <time>2013-07-15T14:11:11Z</time>
      </trkpt>
      <trkpt lat="42.56226" lon="2.37715">
        <ele>558</ele>
        <time>2013-07-15T14:11:16Z</time>
      </trkpt>
      <trkpt lat="42.56228" lon="2.37716">
        <ele>558</ele>
        <time>2013-07-15T14:11:18Z</time>
      </trkpt>
      <trkpt lat="42.56231" lon="2.37718">
        <ele>558</ele>
        <time>2013-07-15T14:11:21Z</time>
      </trkpt>
      <trkpt lat="42.56238" lon="2.37726">
        <ele>558</ele>
        <time>2013-07-15T14:11:26Z</time>
      </trkpt>
      <trkpt lat="42.56239" lon="2.3773">
        <ele>558</ele>
        <time>2013-07-15T14:11:30Z</time>
      </trkpt>
      <trkpt lat="42.56243" lon="2.37734">
        <ele>558</ele>
        <time>2013-07-15T14:11:35Z</time>
      </trkpt>
      <trkpt lat="42.56246" lon="2.37738">
        <ele>558</ele>
        <time>2013-07-15T14:11:40Z</time>
      </trkpt>
      <trkpt lat="42.5625" lon="2.3774">
        <ele>558</ele>
        <time>2013-07-15T14:11:44Z</time>
      </trkpt>
      <trkpt lat="42.56255" lon="2.37741">
        <ele>558</ele>
        <time>2013-07-15T14:11:50Z</time>
      </trkpt>
      <trkpt lat="42.56258" lon="2.37742">
        <ele>557</ele>
        <time>2013-07-15T14:11:52Z</time>
      </trkpt>
      <trkpt lat="42.56261" lon="2.37742">
        <ele>557</ele>
        <time>2013-07-15T14:11:55Z</time>
      </trkpt>
      <trkpt lat="42.56265" lon="2.37744">
        <ele>557</ele>
        <time>2013-07-15T14:11:59Z</time>
      </trkpt>
      <trkpt lat="42.56273" lon="2.37744">
        <ele>557</ele>
        <time>2013-07-15T14:12:04Z</time>
      </trkpt>
      <trkpt lat="42.56277" lon="2.37749">
        <ele>556</ele>
        <time>2013-07-15T14:12:10Z</time>
      </trkpt>
      <trkpt lat="42.56281" lon="2.37756">
        <ele>556</ele>
        <time>2013-07-15T14:12:14Z</time>
      </trkpt>
      <trkpt lat="42.56284" lon="2.37765">
        <ele>556</ele>
        <time>2013-07-15T14:12:19Z</time>
      </trkpt>
      <trkpt lat="42.56285" lon="2.37769">
        <ele>556</ele>
        <time>2013-07-15T14:12:21Z</time>
      </trkpt>
      <trkpt lat="42.56287" lon="2.37772">
        <ele>556</ele>
        <time>2013-07-15T14:12:24Z</time>
      </trkpt>
      <trkpt lat="42.56293" lon="2.37782">
        <ele>556</ele>
        <time>2013-07-15T14:12:29Z</time>
      </trkpt>
      <trkpt lat="42.56298" lon="2.37788">
        <ele>558</ele>
        <time>2013-07-15T14:12:34Z</time>
      </trkpt>
      <trkpt lat="42.56301" lon="2.37793">
        <ele>559</ele>
        <time>2013-07-15T14:12:38Z</time>
      </trkpt>
      <trkpt lat="42.56304" lon="2.37797">
        <ele>559</ele>
        <time>2013-07-15T14:12:41Z</time>
      </trkpt>
      <trkpt lat="42.56305" lon="2.37799">
        <ele>559</ele>
        <time>2013-07-15T14:12:45Z</time>
      </trkpt>
      <trkpt lat="42.5631" lon="2.37804">
        <ele>559</ele>
        <time>2013-07-15T14:12:49Z</time>
      </trkpt>
      <trkpt lat="42.56313" lon="2.37808">
        <ele>559</ele>
        <time>2013-07-15T14:12:53Z</time>
      </trkpt>
      <trkpt lat="42.56316" lon="2.37813">
        <ele>559</ele>
        <time>2013-07-15T14:12:58Z</time>
      </trkpt>
      <trkpt lat="42.5632" lon="2.37818">
        <ele>559</ele>
        <time>2013-07-15T14:13:03Z</time>
      </trkpt>
      <trkpt lat="42.56321" lon="2.3782">
        <ele>559</ele>
        <time>2013-07-15T14:13:05Z</time>
      </trkpt>
      <trkpt lat="42.56323" lon="2.3782">
        <ele>559</ele>
        <time>2013-07-15T14:13:10Z</time>
      </trkpt>
      <trkpt lat="42.56328" lon="2.37819">
        <ele>557</ele>
        <time>2013-07-15T14:13:13Z</time>
      </trkpt>
      <trkpt lat="42.56332" lon="2.37817">
        <ele>556</ele>
        <time>2013-07-15T14:13:17Z</time>
      </trkpt>
      <trkpt lat="42.56334" lon="2.37814">
        <ele>554</ele>
        <time>2013-07-15T14:13:21Z</time>
      </trkpt>
      <trkpt lat="42.56337" lon="2.37813">
        <ele>552</ele>
        <time>2013-07-15T14:13:23Z</time>
      </trkpt>
      <trkpt lat="42.56342" lon="2.37811">
        <ele>551</ele>
        <time>2013-07-15T14:13:26Z</time>
      </trkpt>
      <trkpt lat="42.56346" lon="2.37811">
        <ele>551</ele>
        <time>2013-07-15T14:13:29Z</time>
      </trkpt>
      <trkpt lat="42.56347" lon="2.37812">
        <ele>551</ele>
        <time>2013-07-15T14:13:35Z</time>
      </trkpt>
      <trkpt lat="42.5635" lon="2.37811">
        <ele>551</ele>
        <time>2013-07-15T14:13:37Z</time>
      </trkpt>
      <trkpt lat="42.56353" lon="2.37807">
        <ele>551</ele>
        <time>2013-07-15T14:13:41Z</time>
      </trkpt>
      <trkpt lat="42.56355" lon="2.37805">
        <ele>551</ele>
        <time>2013-07-15T14:13:43Z</time>
      </trkpt>
      <trkpt lat="42.56356" lon="2.37804">
        <ele>551</ele>
        <time>2013-07-15T14:13:46Z</time>
      </trkpt>
      <trkpt lat="42.56363" lon="2.378">
        <ele>550</ele>
        <time>2013-07-15T14:13:51Z</time>
      </trkpt>
      <trkpt lat="42.56368" lon="2.37797">
        <ele>550</ele>
        <time>2013-07-15T14:13:55Z</time>
      </trkpt>
      <trkpt lat="42.56372" lon="2.37795">
        <ele>550</ele>
        <time>2013-07-15T14:13:58Z</time>
      </trkpt>
      <trkpt lat="42.56375" lon="2.37793">
        <ele>550</ele>
        <time>2013-07-15T14:14:02Z</time>
      </trkpt>
      <trkpt lat="42.5638" lon="2.3779">
        <ele>550</ele>
        <time>2013-07-15T14:14:05Z</time>
      </trkpt>
      <trkpt lat="42.56383" lon="2.37789">
        <ele>549</ele>
        <time>2013-07-15T14:14:09Z</time>
      </trkpt>
      <trkpt lat="42.56386" lon="2.37786">
        <ele>548</ele>
        <time>2013-07-15T14:14:12Z</time>
      </trkpt>
      <trkpt lat="42.56391" lon="2.37783">
        <ele>548</ele>
        <time>2013-07-15T14:14:16Z</time>
      </trkpt>
      <trkpt lat="42.56393" lon="2.37783">
        <ele>547</ele>
        <time>2013-07-15T14:14:18Z</time>
      </trkpt>
      <trkpt lat="42.56396" lon="2.3778">
        <ele>546</ele>
        <time>2013-07-15T14:14:22Z</time>
      </trkpt>
      <trkpt lat="42.564" lon="2.37776">
        <ele>545</ele>
        <time>2013-07-15T14:14:25Z</time>
      </trkpt>
      <trkpt lat="42.56403" lon="2.37773">
        <ele>545</ele>
        <time>2013-07-15T14:14:28Z</time>
      </trkpt>
      <trkpt lat="42.56406" lon="2.3777">
        <ele>545</ele>
        <time>2013-07-15T14:14:33Z</time>
      </trkpt>
      <trkpt lat="42.56411" lon="2.37764">
        <ele>545</ele>
        <time>2013-07-15T14:14:38Z</time>
      </trkpt>
      <trkpt lat="42.56416" lon="2.37761">
        <ele>545</ele>
        <time>2013-07-15T14:14:42Z</time>
      </trkpt>
      <trkpt lat="42.56422" lon="2.37759">
        <ele>545</ele>
        <time>2013-07-15T14:14:47Z</time>
      </trkpt>
      <trkpt lat="42.56427" lon="2.37756">
        <ele>545</ele>
        <time>2013-07-15T14:14:52Z</time>
      </trkpt>
      <trkpt lat="42.56431" lon="2.37755">
        <ele>545</ele>
        <time>2013-07-15T14:14:56Z</time>
      </trkpt>
      <trkpt lat="42.56436" lon="2.37752">
        <ele>545</ele>
        <time>2013-07-15T14:15:01Z</time>
      </trkpt>
      <trkpt lat="42.56444" lon="2.3775">
        <ele>545</ele>
        <time>2013-07-15T14:15:06Z</time>
      </trkpt>
      <trkpt lat="42.56445" lon="2.3775">
        <ele>545</ele>
        <time>2013-07-15T14:15:08Z</time>
      </trkpt>
      <trkpt lat="42.5645" lon="2.37754">
        <ele>546</ele>
        <time>2013-07-15T14:15:11Z</time>
      </trkpt>
      <trkpt lat="42.56453" lon="2.37755">
        <ele>548</ele>
        <time>2013-07-15T14:15:13Z</time>
      </trkpt>
      <trkpt lat="42.56456" lon="2.37758">
        <ele>549</ele>
        <time>2013-07-15T14:15:16Z</time>
      </trkpt>
      <trkpt lat="42.56459" lon="2.37763">
        <ele>550</ele>
        <time>2013-07-15T14:15:19Z</time>
      </trkpt>
      <trkpt lat="42.56462" lon="2.37765">
        <ele>550</ele>
        <time>2013-07-15T14:15:23Z</time>
      </trkpt>
      <trkpt lat="42.56466" lon="2.37768">
        <ele>550</ele>
        <time>2013-07-15T14:15:26Z</time>
      </trkpt>
      <trkpt lat="42.56468" lon="2.37773">
        <ele>550</ele>
        <time>2013-07-15T14:15:30Z</time>
      </trkpt>
      <trkpt lat="42.56468" lon="2.37776">
        <ele>550</ele>
        <time>2013-07-15T14:15:35Z</time>
      </trkpt>
      <trkpt lat="42.56475" lon="2.37784">
        <ele>550</ele>
        <time>2013-07-15T14:15:41Z</time>
      </trkpt>
      <trkpt lat="42.56481" lon="2.37792">
        <ele>550</ele>
        <time>2013-07-15T14:15:46Z</time>
      </trkpt>
      <trkpt lat="42.56487" lon="2.37798">
        <ele>550</ele>
        <time>2013-07-15T14:15:51Z</time>
      </trkpt>
      <trkpt lat="42.56493" lon="2.37805">
        <ele>550</ele>
        <time>2013-07-15T14:15:56Z</time>
      </trkpt>
      <trkpt lat="42.56495" lon="2.37808">
        <ele>550</ele>
        <time>2013-07-15T14:15:58Z</time>
      </trkpt>
      <trkpt lat="42.56495" lon="2.3781">
        <ele>550</ele>
        <time>2013-07-15T14:16:01Z</time>
      </trkpt>
      <trkpt lat="42.56496" lon="2.37813">
        <ele>550</ele>
        <time>2013-07-15T14:16:05Z</time>
      </trkpt>
      <trkpt lat="42.565" lon="2.37819">
        <ele>550</ele>
        <time>2013-07-15T14:16:10Z</time>
      </trkpt>
      <trkpt lat="42.56505" lon="2.37826">
        <ele>550</ele>
        <time>2013-07-15T14:16:15Z</time>
      </trkpt>
      <trkpt lat="42.56508" lon="2.37829">
        <ele>550</ele>
        <time>2013-07-15T14:16:18Z</time>
      </trkpt>
      <trkpt lat="42.5651" lon="2.37833">
        <ele>550</ele>
        <time>2013-07-15T14:16:23Z</time>
      </trkpt>
      <trkpt lat="42.56513" lon="2.37838">
        <ele>549</ele>
        <time>2013-07-15T14:16:27Z</time>
      </trkpt>
      <trkpt lat="42.56514" lon="2.37842">
        <ele>547</ele>
        <time>2013-07-15T14:16:30Z</time>
      </trkpt>
      <trkpt lat="42.56515" lon="2.37845">
        <ele>546</ele>
        <time>2013-07-15T14:16:33Z</time>
      </trkpt>
      <trkpt lat="42.56518" lon="2.37854">
        <ele>545</ele>
        <time>2013-07-15T14:16:38Z</time>
      </trkpt>
      <trkpt lat="42.5652" lon="2.37858">
        <ele>545</ele>
        <time>2013-07-15T14:16:42Z</time>
      </trkpt>
      <trkpt lat="42.56523" lon="2.37864">
        <ele>545</ele>
        <time>2013-07-15T14:16:47Z</time>
      </trkpt>
      <trkpt lat="42.56527" lon="2.37872">
        <ele>545</ele>
        <time>2013-07-15T14:16:52Z</time>
      </trkpt>
      <trkpt lat="42.56528" lon="2.37875">
        <ele>545</ele>
        <time>2013-07-15T14:16:56Z</time>
      </trkpt>
      <trkpt lat="42.5653" lon="2.37881">
        <ele>545</ele>
        <time>2013-07-15T14:16:59Z</time>
      </trkpt>
      <trkpt lat="42.5653" lon="2.37884">
        <ele>545</ele>
        <time>2013-07-15T14:17:02Z</time>
      </trkpt>
      <trkpt lat="42.56532" lon="2.37893">
        <ele>545</ele>
        <time>2013-07-15T14:17:07Z</time>
      </trkpt>
      <trkpt lat="42.56534" lon="2.379">
        <ele>545</ele>
        <time>2013-07-15T14:17:13Z</time>
      </trkpt>
      <trkpt lat="42.56538" lon="2.37906">
        <ele>545</ele>
        <time>2013-07-15T14:17:18Z</time>
      </trkpt>
      <trkpt lat="42.56541" lon="2.3791">
        <ele>545</ele>
        <time>2013-07-15T14:17:21Z</time>
      </trkpt>
      <trkpt lat="42.56543" lon="2.37913">
        <ele>545</ele>
        <time>2013-07-15T14:17:24Z</time>
      </trkpt>
      <trkpt lat="42.56546" lon="2.37917">
        <ele>545</ele>
        <time>2013-07-15T14:17:29Z</time>
      </trkpt>
      <trkpt lat="42.56548" lon="2.37918">
        <ele>545</ele>
        <time>2013-07-15T14:17:31Z</time>
      </trkpt>
      <trkpt lat="42.56554" lon="2.37917">
        <ele>545</ele>
        <time>2013-07-15T14:17:36Z</time>
      </trkpt>
      <trkpt lat="42.56564" lon="2.3792">
        <ele>545</ele>
        <time>2013-07-15T14:17:42Z</time>
      </trkpt>
      <trkpt lat="42.56568" lon="2.37924">
        <ele>545</ele>
        <time>2013-07-15T14:17:44Z</time>
      </trkpt>
      <trkpt lat="42.56563" lon="2.3793">
        <ele>545</ele>
        <time>2013-07-15T14:17:49Z</time>
      </trkpt>
      <trkpt lat="42.56557" lon="2.37934">
        <ele>545</ele>
        <time>2013-07-15T14:17:54Z</time>
      </trkpt>
      <trkpt lat="42.56553" lon="2.37936">
        <ele>545</ele>
        <time>2013-07-15T14:17:58Z</time>
      </trkpt>
      <trkpt lat="42.56546" lon="2.37941">
        <ele>545</ele>
        <time>2013-07-15T14:18:03Z</time>
      </trkpt>
      <trkpt lat="42.56539" lon="2.37945">
        <ele>546</ele>
        <time>2013-07-15T14:18:08Z</time>
      </trkpt>
      <trkpt lat="42.5653" lon="2.37949">
        <ele>549</ele>
        <time>2013-07-15T14:18:13Z</time>
      </trkpt>
      <trkpt lat="42.56533" lon="2.37948">
        <ele>554</ele>
        <time>2013-07-15T14:18:20Z</time>
      </trkpt>
      <trkpt lat="42.56537" lon="2.37955">
        <ele>554</ele>
        <time>2013-07-15T14:18:26Z</time>
      </trkpt>
      <trkpt lat="42.56542" lon="2.3796">
        <ele>554</ele>
        <time>2013-07-15T14:18:28Z</time>
      </trkpt>
      <trkpt lat="42.56548" lon="2.37963">
        <ele>554</ele>
        <time>2013-07-15T14:18:33Z</time>
      </trkpt>
      <trkpt lat="42.56553" lon="2.37969">
        <ele>554</ele>
        <time>2013-07-15T14:18:36Z</time>
      </trkpt>
      <trkpt lat="42.56555" lon="2.37972">
        <ele>554</ele>
        <time>2013-07-15T14:18:39Z</time>
      </trkpt>
      <trkpt lat="42.56557" lon="2.37974">
        <ele>554</ele>
        <time>2013-07-15T14:18:41Z</time>
      </trkpt>
      <trkpt lat="42.56559" lon="2.37976">
        <ele>554</ele>
        <time>2013-07-15T14:18:45Z</time>
      </trkpt>
      <trkpt lat="42.56564" lon="2.37979">
        <ele>554</ele>
        <time>2013-07-15T14:18:47Z</time>
      </trkpt>
      <trkpt lat="42.56566" lon="2.3798">
        <ele>554</ele>
        <time>2013-07-15T14:18:50Z</time>
      </trkpt>
      <trkpt lat="42.5657" lon="2.37983">
        <ele>554</ele>
        <time>2013-07-15T14:18:53Z</time>
      </trkpt>
      <trkpt lat="42.56571" lon="2.37987">
        <ele>554</ele>
        <time>2013-07-15T14:18:57Z</time>
      </trkpt>
      <trkpt lat="42.56573" lon="2.3799">
        <ele>554</ele>
        <time>2013-07-15T14:19:00Z</time>
      </trkpt>
      <trkpt lat="42.56567" lon="2.37998">
        <ele>554</ele>
        <time>2013-07-15T14:19:08Z</time>
      </trkpt>
      <trkpt lat="42.56575" lon="2.38">
        <ele>554</ele>
        <time>2013-07-15T14:19:10Z</time>
      </trkpt>
      <trkpt lat="42.56581" lon="2.38003">
        <ele>554</ele>
        <time>2013-07-15T14:19:12Z</time>
      </trkpt>
      <trkpt lat="42.56583" lon="2.38006">
        <ele>554</ele>
        <time>2013-07-15T14:19:15Z</time>
      </trkpt>
      <trkpt lat="42.56585" lon="2.3801">
        <ele>554</ele>
        <time>2013-07-15T14:19:18Z</time>
      </trkpt>
      <trkpt lat="42.56587" lon="2.38013">
        <ele>554</ele>
        <time>2013-07-15T14:19:20Z</time>
      </trkpt>
      <trkpt lat="42.56588" lon="2.38015">
        <ele>554</ele>
        <time>2013-07-15T14:19:22Z</time>
      </trkpt>
      <trkpt lat="42.56591" lon="2.38018">
        <ele>554</ele>
        <time>2013-07-15T14:19:24Z</time>
      </trkpt>
      <trkpt lat="42.56593" lon="2.3802">
        <ele>554</ele>
        <time>2013-07-15T14:19:26Z</time>
      </trkpt>
      <trkpt lat="42.56597" lon="2.38024">
        <ele>554</ele>
        <time>2013-07-15T14:19:29Z</time>
      </trkpt>
      <trkpt lat="42.566" lon="2.38026">
        <ele>554</ele>
        <time>2013-07-15T14:19:31Z</time>
      </trkpt>
      <trkpt lat="42.56601" lon="2.38028">
        <ele>554</ele>
        <time>2013-07-15T14:19:33Z</time>
      </trkpt>
      <trkpt lat="42.56603" lon="2.38032">
        <ele>555</ele>
        <time>2013-07-15T14:19:36Z</time>
      </trkpt>
      <trkpt lat="42.56602" lon="2.38035">
        <ele>557</ele>
        <time>2013-07-15T14:19:38Z</time>
      </trkpt>
      <trkpt lat="42.56603" lon="2.38037">
        <ele>559</ele>
        <time>2013-07-15T14:19:40Z</time>
      </trkpt>
      <trkpt lat="42.56604" lon="2.38041">
        <ele>562</ele>
        <time>2013-07-15T14:19:43Z</time>
      </trkpt>
      <trkpt lat="42.56607" lon="2.38044">
        <ele>565</ele>
        <time>2013-07-15T14:19:46Z</time>
      </trkpt>
      <trkpt lat="42.56609" lon="2.38045">
        <ele>567</ele>
        <time>2013-07-15T14:19:48Z</time>
      </trkpt>
      <trkpt lat="42.56612" lon="2.38048">
        <ele>568</ele>
        <time>2013-07-15T14:19:51Z</time>
      </trkpt>
      <trkpt lat="42.56614" lon="2.3805">
        <ele>568</ele>
        <time>2013-07-15T14:19:53Z</time>
      </trkpt>
      <trkpt lat="42.56618" lon="2.38051">
        <ele>568</ele>
        <time>2013-07-15T14:19:55Z</time>
      </trkpt>
      <trkpt lat="42.56621" lon="2.38053">
        <ele>568</ele>
        <time>2013-07-15T14:19:59Z</time>
      </trkpt>
      <trkpt lat="42.56622" lon="2.38053">
        <ele>568</ele>
        <time>2013-07-15T14:20:01Z</time>
      </trkpt>
      <trkpt lat="42.56623" lon="2.38054">
        <ele>569</ele>
        <time>2013-07-15T14:20:04Z</time>
      </trkpt>
      <trkpt lat="42.56627" lon="2.38055">
        <ele>569</ele>
        <time>2013-07-15T14:20:06Z</time>
      </trkpt>
      <trkpt lat="42.56629" lon="2.38057">
        <ele>570</ele>
        <time>2013-07-15T14:20:08Z</time>
      </trkpt>
      <trkpt lat="42.56631" lon="2.38059">
        <ele>570</ele>
        <time>2013-07-15T14:20:10Z</time>
      </trkpt>
      <trkpt lat="42.56634" lon="2.3806">
        <ele>570</ele>
        <time>2013-07-15T14:20:12Z</time>
      </trkpt>
      <trkpt lat="42.56638" lon="2.38063">
        <ele>570</ele>
        <time>2013-07-15T14:20:15Z</time>
      </trkpt>
      <trkpt lat="42.56639" lon="2.38066">
        <ele>570</ele>
        <time>2013-07-15T14:20:18Z</time>
      </trkpt>
      <trkpt lat="42.56639" lon="2.38068">
        <ele>570</ele>
        <time>2013-07-15T14:20:21Z</time>
      </trkpt>
      <trkpt lat="42.56641" lon="2.38068">
        <ele>570</ele>
        <time>2013-07-15T14:20:25Z</time>
      </trkpt>
      <trkpt lat="42.56644" lon="2.38068">
        <ele>570</ele>
        <time>2013-07-15T14:20:28Z</time>
      </trkpt>
      <trkpt lat="42.56648" lon="2.38069">
        <ele>570</ele>
        <time>2013-07-15T14:20:30Z</time>
      </trkpt>
      <trkpt lat="42.56649" lon="2.3807">
        <ele>570</ele>
        <time>2013-07-15T14:20:33Z</time>
      </trkpt>
      <trkpt lat="42.5666" lon="2.38077">
        <ele>570</ele>
        <time>2013-07-15T14:20:41Z</time>
      </trkpt>
      <trkpt lat="42.56663" lon="2.38079">
        <ele>570</ele>
        <time>2013-07-15T14:20:44Z</time>
      </trkpt>
      <trkpt lat="42.56666" lon="2.3808">
        <ele>571</ele>
        <time>2013-07-15T14:20:46Z</time>
      </trkpt>
      <trkpt lat="42.56669" lon="2.38081">
        <ele>572</ele>
        <time>2013-07-15T14:20:49Z</time>
      </trkpt>
      <trkpt lat="42.56672" lon="2.38082">
        <ele>573</ele>
        <time>2013-07-15T14:20:51Z</time>
      </trkpt>
      <trkpt lat="42.56675" lon="2.38083">
        <ele>575</ele>
        <time>2013-07-15T14:20:53Z</time>
      </trkpt>
      <trkpt lat="42.56678" lon="2.38083">
        <ele>576</ele>
        <time>2013-07-15T14:20:55Z</time>
      </trkpt>
      <trkpt lat="42.56682" lon="2.38085">
        <ele>576</ele>
        <time>2013-07-15T14:20:57Z</time>
      </trkpt>
      <trkpt lat="42.56689" lon="2.38086">
        <ele>577</ele>
        <time>2013-07-15T14:21:00Z</time>
      </trkpt>
      <trkpt lat="42.56693" lon="2.38088">
        <ele>577</ele>
        <time>2013-07-15T14:21:03Z</time>
      </trkpt>
      <trkpt lat="42.56698" lon="2.3809">
        <ele>577</ele>
        <time>2013-07-15T14:21:05Z</time>
      </trkpt>
      <trkpt lat="42.56701" lon="2.38094">
        <ele>577</ele>
        <time>2013-07-15T14:21:07Z</time>
      </trkpt>
      <trkpt lat="42.56704" lon="2.38098">
        <ele>577</ele>
        <time>2013-07-15T14:21:09Z</time>
      </trkpt>
      <trkpt lat="42.56707" lon="2.38101">
        <ele>575</ele>
        <time>2013-07-15T14:21:11Z</time>
      </trkpt>
      <trkpt lat="42.56704" lon="2.38106">
        <ele>573</ele>
        <time>2013-07-15T14:21:13Z</time>
      </trkpt>
      <trkpt lat="42.56702" lon="2.38109">
        <ele>571</ele>
        <time>2013-07-15T14:21:15Z</time>
      </trkpt>
      <trkpt lat="42.56699" lon="2.38112">
        <ele>569</ele>
        <time>2013-07-15T14:21:17Z</time>
      </trkpt>
      <trkpt lat="42.56696" lon="2.38116">
        <ele>568</ele>
        <time>2013-07-15T14:21:20Z</time>
      </trkpt>
      <trkpt lat="42.56693" lon="2.38119">
        <ele>567</ele>
        <time>2013-07-15T14:21:22Z</time>
      </trkpt>
      <trkpt lat="42.5669" lon="2.38123">
        <ele>567</ele>
        <time>2013-07-15T14:21:24Z</time>
      </trkpt>
      <trkpt lat="42.56686" lon="2.38125">
        <ele>567</ele>
        <time>2013-07-15T14:21:26Z</time>
      </trkpt>
      <trkpt lat="42.56685" lon="2.38128">
        <ele>567</ele>
        <time>2013-07-15T14:21:28Z</time>
      </trkpt>
      <trkpt lat="42.56684" lon="2.38131">
        <ele>567</ele>
        <time>2013-07-15T14:21:30Z</time>
      </trkpt>
      <trkpt lat="42.56681" lon="2.38134">
        <ele>567</ele>
        <time>2013-07-15T14:21:32Z</time>
      </trkpt>
      <trkpt lat="42.56681" lon="2.38139">
        <ele>567</ele>
        <time>2013-07-15T14:21:35Z</time>
      </trkpt>
      <trkpt lat="42.56683" lon="2.38142">
        <ele>565</ele>
        <time>2013-07-15T14:21:37Z</time>
      </trkpt>
      <trkpt lat="42.56684" lon="2.38145">
        <ele>563</ele>
        <time>2013-07-15T14:21:39Z</time>
      </trkpt>
      <trkpt lat="42.56686" lon="2.38148">
        <ele>561</ele>
        <time>2013-07-15T14:21:41Z</time>
      </trkpt>
      <trkpt lat="42.56688" lon="2.38151">
        <ele>559</ele>
        <time>2013-07-15T14:21:43Z</time>
      </trkpt>
      <trkpt lat="42.56688" lon="2.38154">
        <ele>557</ele>
        <time>2013-07-15T14:21:45Z</time>
      </trkpt>
      <trkpt lat="42.56691" lon="2.38157">
        <ele>555</ele>
        <time>2013-07-15T14:21:47Z</time>
      </trkpt>
      <trkpt lat="42.56694" lon="2.3816">
        <ele>553</ele>
        <time>2013-07-15T14:21:49Z</time>
      </trkpt>
      <trkpt lat="42.56696" lon="2.38163">
        <ele>551</ele>
        <time>2013-07-15T14:21:51Z</time>
      </trkpt>
      <trkpt lat="42.56698" lon="2.38166">
        <ele>549</ele>
        <time>2013-07-15T14:21:53Z</time>
      </trkpt>
      <trkpt lat="42.56697" lon="2.38169">
        <ele>547</ele>
        <time>2013-07-15T14:21:55Z</time>
      </trkpt>
      <trkpt lat="42.56696" lon="2.38171">
        <ele>545</ele>
        <time>2013-07-15T14:21:57Z</time>
      </trkpt>
      <trkpt lat="42.56694" lon="2.38175">
        <ele>543</ele>
        <time>2013-07-15T14:21:59Z</time>
      </trkpt>
      <trkpt lat="42.56693" lon="2.38178">
        <ele>543</ele>
        <time>2013-07-15T14:22:01Z</time>
      </trkpt>
      <trkpt lat="42.56693" lon="2.38181">
        <ele>542</ele>
        <time>2013-07-15T14:22:03Z</time>
      </trkpt>
      <trkpt lat="42.56692" lon="2.38184">
        <ele>542</ele>
        <time>2013-07-15T14:22:05Z</time>
      </trkpt>
      <trkpt lat="42.56692" lon="2.38187">
        <ele>541</ele>
        <time>2013-07-15T14:22:07Z</time>
      </trkpt>
      <trkpt lat="42.5669" lon="2.3819">
        <ele>541</ele>
        <time>2013-07-15T14:22:09Z</time>
      </trkpt>
      <trkpt lat="42.56687" lon="2.38193">
        <ele>541</ele>
        <time>2013-07-15T14:22:11Z</time>
      </trkpt>
      <trkpt lat="42.56688" lon="2.38197">
        <ele>541</ele>
        <time>2013-07-15T14:22:13Z</time>
      </trkpt>
      <trkpt lat="42.56686" lon="2.382">
        <ele>541</ele>
        <time>2013-07-15T14:22:15Z</time>
      </trkpt>
      <trkpt lat="42.56685" lon="2.38203">
        <ele>541</ele>
        <time>2013-07-15T14:22:17Z</time>
      </trkpt>
      <trkpt lat="42.56684" lon="2.38207">
        <ele>541</ele>
        <time>2013-07-15T14:22:19Z</time>
      </trkpt>
      <trkpt lat="42.56685" lon="2.3821">
        <ele>541</ele>
        <time>2013-07-15T14:22:21Z</time>
      </trkpt>
      <trkpt lat="42.56684" lon="2.38214">
        <ele>541</ele>
        <time>2013-07-15T14:22:24Z</time>
      </trkpt>
      <trkpt lat="42.56685" lon="2.38218">
        <ele>540</ele>
        <time>2013-07-15T14:22:27Z</time>
      </trkpt>
      <trkpt lat="42.56687" lon="2.38222">
        <ele>538</ele>
        <time>2013-07-15T14:22:30Z</time>
      </trkpt>
      <trkpt lat="42.56687" lon="2.38225">
        <ele>536</ele>
        <time>2013-07-15T14:22:32Z</time>
      </trkpt>
      <trkpt lat="42.56685" lon="2.38228">
        <ele>534</ele>
        <time>2013-07-15T14:22:35Z</time>
      </trkpt>
      <trkpt lat="42.56684" lon="2.38232">
        <ele>533</ele>
        <time>2013-07-15T14:22:38Z</time>
      </trkpt>
      <trkpt lat="42.56684" lon="2.38233">
        <ele>532</ele>
        <time>2013-07-15T14:22:40Z</time>
      </trkpt>
      <trkpt lat="42.56684" lon="2.38236">
        <ele>531</ele>
        <time>2013-07-15T14:22:42Z</time>
      </trkpt>
      <trkpt lat="42.56682" lon="2.38238">
        <ele>530</ele>
        <time>2013-07-15T14:22:44Z</time>
      </trkpt>
      <trkpt lat="42.56679" lon="2.38242">
        <ele>530</ele>
        <time>2013-07-15T14:22:47Z</time>
      </trkpt>
      <trkpt lat="42.56678" lon="2.38246">
        <ele>530</ele>
        <time>2013-07-15T14:22:49Z</time>
      </trkpt>
      <trkpt lat="42.56677" lon="2.3825">
        <ele>530</ele>
        <time>2013-07-15T14:22:52Z</time>
      </trkpt>
      <trkpt lat="42.56677" lon="2.38253">
        <ele>530</ele>
        <time>2013-07-15T14:22:54Z</time>
      </trkpt>
      <trkpt lat="42.56676" lon="2.38256">
        <ele>530</ele>
        <time>2013-07-15T14:22:56Z</time>
      </trkpt>
      <trkpt lat="42.56676" lon="2.38259">
        <ele>530</ele>
        <time>2013-07-15T14:22:58Z</time>
      </trkpt>
      <trkpt lat="42.56675" lon="2.38262">
        <ele>530</ele>
        <time>2013-07-15T14:23:00Z</time>
      </trkpt>
      <trkpt lat="42.56676" lon="2.38265">
        <ele>530</ele>
        <time>2013-07-15T14:23:02Z</time>
      </trkpt>
      <trkpt lat="42.56675" lon="2.38268">
        <ele>530</ele>
        <time>2013-07-15T14:23:04Z</time>
      </trkpt>
      <trkpt lat="42.56674" lon="2.3827">
        <ele>529</ele>
        <time>2013-07-15T14:23:06Z</time>
      </trkpt>
      <trkpt lat="42.56673" lon="2.38273">
        <ele>529</ele>
        <time>2013-07-15T14:23:08Z</time>
      </trkpt>
      <trkpt lat="42.56671" lon="2.38276">
        <ele>529</ele>
        <time>2013-07-15T14:23:10Z</time>
      </trkpt>
      <trkpt lat="42.5667" lon="2.38279">
        <ele>529</ele>
        <time>2013-07-15T14:23:12Z</time>
      </trkpt>
      <trkpt lat="42.5667" lon="2.38281">
        <ele>529</ele>
        <time>2013-07-15T14:23:14Z</time>
      </trkpt>
      <trkpt lat="42.5667" lon="2.38285">
        <ele>529</ele>
        <time>2013-07-15T14:23:16Z</time>
      </trkpt>
      <trkpt lat="42.56668" lon="2.38287">
        <ele>529</ele>
        <time>2013-07-15T14:23:18Z</time>
      </trkpt>
      <trkpt lat="42.56666" lon="2.38289">
        <ele>529</ele>
        <time>2013-07-15T14:23:20Z</time>
      </trkpt>
      <trkpt lat="42.56665" lon="2.38293">
        <ele>529</ele>
        <time>2013-07-15T14:23:22Z</time>
      </trkpt>
      <trkpt lat="42.56664" lon="2.38296">
        <ele>529</ele>
        <time>2013-07-15T14:23:24Z</time>
      </trkpt>
      <trkpt lat="42.56664" lon="2.38299">
        <ele>529</ele>
        <time>2013-07-15T14:23:26Z</time>
      </trkpt>
      <trkpt lat="42.56664" lon="2.38303">
        <ele>529</ele>
        <time>2013-07-15T14:23:28Z</time>
      </trkpt>
      <trkpt lat="42.56663" lon="2.38306">
        <ele>529</ele>
        <time>2013-07-15T14:23:30Z</time>
      </trkpt>
      <trkpt lat="42.56664" lon="2.3831">
        <ele>529</ele>
        <time>2013-07-15T14:23:32Z</time>
      </trkpt>
      <trkpt lat="42.56665" lon="2.38313">
        <ele>528</ele>
        <time>2013-07-15T14:23:34Z</time>
      </trkpt>
      <trkpt lat="42.56665" lon="2.38316">
        <ele>527</ele>
        <time>2013-07-15T14:23:36Z</time>
      </trkpt>
      <trkpt lat="42.56662" lon="2.38319">
        <ele>526</ele>
        <time>2013-07-15T14:23:38Z</time>
      </trkpt>
      <trkpt lat="42.56659" lon="2.38322">
        <ele>526</ele>
        <time>2013-07-15T14:23:40Z</time>
      </trkpt>
      <trkpt lat="42.56657" lon="2.38325">
        <ele>526</ele>
        <time>2013-07-15T14:23:42Z</time>
      </trkpt>
      <trkpt lat="42.56656" lon="2.38328">
        <ele>526</ele>
        <time>2013-07-15T14:23:44Z</time>
      </trkpt>
      <trkpt lat="42.56655" lon="2.38332">
        <ele>526</ele>
        <time>2013-07-15T14:23:46Z</time>
      </trkpt>
      <trkpt lat="42.56654" lon="2.38335">
        <ele>526</ele>
        <time>2013-07-15T14:23:48Z</time>
      </trkpt>
      <trkpt lat="42.56652" lon="2.38338">
        <ele>526</ele>
        <time>2013-07-15T14:23:50Z</time>
      </trkpt>
      <trkpt lat="42.5665" lon="2.38342">
        <ele>526</ele>
        <time>2013-07-15T14:23:52Z</time>
      </trkpt>
      <trkpt lat="42.56649" lon="2.38345">
        <ele>527</ele>
        <time>2013-07-15T14:23:54Z</time>
      </trkpt>
      <trkpt lat="42.56648" lon="2.38348">
        <ele>528</ele>
        <time>2013-07-15T14:23:56Z</time>
      </trkpt>
      <trkpt lat="42.56646" lon="2.38351">
        <ele>529</ele>
        <time>2013-07-15T14:23:58Z</time>
      </trkpt>
      <trkpt lat="42.56645" lon="2.38354">
        <ele>530</ele>
        <time>2013-07-15T14:24:00Z</time>
      </trkpt>
      <trkpt lat="42.56643" lon="2.38357">
        <ele>530</ele>
        <time>2013-07-15T14:24:02Z</time>
      </trkpt>
      <trkpt lat="42.56642" lon="2.3836">
        <ele>531</ele>
        <time>2013-07-15T14:24:04Z</time>
      </trkpt>
      <trkpt lat="42.56641" lon="2.38363">
        <ele>531</ele>
        <time>2013-07-15T14:24:06Z</time>
      </trkpt>
      <trkpt lat="42.5664" lon="2.38367">
        <ele>532</ele>
        <time>2013-07-15T14:24:08Z</time>
      </trkpt>
      <trkpt lat="42.56639" lon="2.3837">
        <ele>532</ele>
        <time>2013-07-15T14:24:10Z</time>
      </trkpt>
      <trkpt lat="42.56638" lon="2.38373">
        <ele>533</ele>
        <time>2013-07-15T14:24:12Z</time>
      </trkpt>
      <trkpt lat="42.56638" lon="2.38376">
        <ele>533</ele>
        <time>2013-07-15T14:24:14Z</time>
      </trkpt>
      <trkpt lat="42.56637" lon="2.38379">
        <ele>533</ele>
        <time>2013-07-15T14:24:16Z</time>
      </trkpt>
      <trkpt lat="42.56638" lon="2.38382">
        <ele>533</ele>
        <time>2013-07-15T14:24:18Z</time>
      </trkpt>
      <trkpt lat="42.56639" lon="2.38385">
        <ele>533</ele>
        <time>2013-07-15T14:24:20Z</time>
      </trkpt>
      <trkpt lat="42.56639" lon="2.38388">
        <ele>533</ele>
        <time>2013-07-15T14:24:22Z</time>
      </trkpt>
      <trkpt lat="42.56642" lon="2.38392">
        <ele>533</ele>
        <time>2013-07-15T14:24:24Z</time>
      </trkpt>
      <trkpt lat="42.56642" lon="2.38396">
        <ele>533</ele>
        <time>2013-07-15T14:24:26Z</time>
      </trkpt>
      <trkpt lat="42.56644" lon="2.38399">
        <ele>533</ele>
        <time>2013-07-15T14:24:28Z</time>
      </trkpt>
      <trkpt lat="42.56644" lon="2.38402">
        <ele>532</ele>
        <time>2013-07-15T14:24:30Z</time>
      </trkpt>
      <trkpt lat="42.56643" lon="2.38405">
        <ele>532</ele>
        <time>2013-07-15T14:24:32Z</time>
      </trkpt>
      <trkpt lat="42.56641" lon="2.38409">
        <ele>532</ele>
        <time>2013-07-15T14:24:35Z</time>
      </trkpt>
      <trkpt lat="42.56641" lon="2.38412">
        <ele>532</ele>
        <time>2013-07-15T14:24:37Z</time>
      </trkpt>
      <trkpt lat="42.56639" lon="2.38416">
        <ele>532</ele>
        <time>2013-07-15T14:24:40Z</time>
      </trkpt>
      <trkpt lat="42.56639" lon="2.38419">
        <ele>532</ele>
        <time>2013-07-15T14:24:42Z</time>
      </trkpt>
      <trkpt lat="42.56637" lon="2.38423">
        <ele>532</ele>
        <time>2013-07-15T14:24:44Z</time>
      </trkpt>
      <trkpt lat="42.56637" lon="2.38426">
        <ele>532</ele>
        <time>2013-07-15T14:24:46Z</time>
      </trkpt>
      <trkpt lat="42.56636" lon="2.3843">
        <ele>532</ele>
        <time>2013-07-15T14:24:48Z</time>
      </trkpt>
      <trkpt lat="42.56635" lon="2.38433">
        <ele>532</ele>
        <time>2013-07-15T14:24:50Z</time>
      </trkpt>
      <trkpt lat="42.56635" lon="2.38436">
        <ele>532</ele>
        <time>2013-07-15T14:24:52Z</time>
      </trkpt>
      <trkpt lat="42.56634" lon="2.38439">
        <ele>532</ele>
        <time>2013-07-15T14:24:54Z</time>
      </trkpt>
      <trkpt lat="42.56633" lon="2.38442">
        <ele>532</ele>
        <time>2013-07-15T14:24:56Z</time>
      </trkpt>
      <trkpt lat="42.56632" lon="2.38459">
        <ele>532</ele>
        <time>2013-07-15T14:25:07Z</time>
      </trkpt>
      <trkpt lat="42.56629" lon="2.38495">
        <ele>532</ele>
        <time>2013-07-15T14:25:30Z</time>
      </trkpt>
      <trkpt lat="42.56633" lon="2.38498">
        <ele>532</ele>
        <time>2013-07-15T14:25:32Z</time>
      </trkpt>
      <trkpt lat="42.56628" lon="2.38521">
        <ele>532</ele>
        <time>2013-07-15T14:25:47Z</time>
      </trkpt>
      <trkpt lat="42.56631" lon="2.38525">
        <ele>532</ele>
        <time>2013-07-15T14:25:49Z</time>
      </trkpt>
      <trkpt lat="42.56632" lon="2.38528">
        <ele>532</ele>
        <time>2013-07-15T14:25:51Z</time>
      </trkpt>
      <trkpt lat="42.56635" lon="2.38531">
        <ele>532</ele>
        <time>2013-07-15T14:25:53Z</time>
      </trkpt>
      <trkpt lat="42.56634" lon="2.38534">
        <ele>532</ele>
        <time>2013-07-15T14:25:55Z</time>
      </trkpt>
      <trkpt lat="42.56634" lon="2.38536">
        <ele>532</ele>
        <time>2013-07-15T14:25:57Z</time>
      </trkpt>
      <trkpt lat="42.56635" lon="2.3854">
        <ele>531</ele>
        <time>2013-07-15T14:25:59Z</time>
      </trkpt>
      <trkpt lat="42.56635" lon="2.38543">
        <ele>529</ele>
        <time>2013-07-15T14:26:01Z</time>
      </trkpt>
      <trkpt lat="42.56635" lon="2.38545">
        <ele>529</ele>
        <time>2013-07-15T14:26:03Z</time>
      </trkpt>
      <trkpt lat="42.56635" lon="2.38548">
        <ele>528</ele>
        <time>2013-07-15T14:26:05Z</time>
      </trkpt>
      <trkpt lat="42.56633" lon="2.38551">
        <ele>528</ele>
        <time>2013-07-15T14:26:07Z</time>
      </trkpt>
      <trkpt lat="42.56633" lon="2.38554">
        <ele>528</ele>
        <time>2013-07-15T14:26:09Z</time>
      </trkpt>
      <trkpt lat="42.56634" lon="2.38557">
        <ele>527</ele>
        <time>2013-07-15T14:26:11Z</time>
      </trkpt>
      <trkpt lat="42.56635" lon="2.3856">
        <ele>526</ele>
        <time>2013-07-15T14:26:13Z</time>
      </trkpt>
      <trkpt lat="42.56635" lon="2.38563">
        <ele>525</ele>
        <time>2013-07-15T14:26:15Z</time>
      </trkpt>
      <trkpt lat="42.56634" lon="2.38567">
        <ele>525</ele>
        <time>2013-07-15T14:26:17Z</time>
      </trkpt>
      <trkpt lat="42.56634" lon="2.3857">
        <ele>525</ele>
        <time>2013-07-15T14:26:19Z</time>
      </trkpt>
      <trkpt lat="42.56634" lon="2.38573">
        <ele>525</ele>
        <time>2013-07-15T14:26:21Z</time>
      </trkpt>
      <trkpt lat="42.56634" lon="2.38576">
        <ele>525</ele>
        <time>2013-07-15T14:26:23Z</time>
      </trkpt>
      <trkpt lat="42.56634" lon="2.3858">
        <ele>525</ele>
        <time>2013-07-15T14:26:25Z</time>
      </trkpt>
      <trkpt lat="42.56636" lon="2.38583">
        <ele>525</ele>
        <time>2013-07-15T14:26:27Z</time>
      </trkpt>
      <trkpt lat="42.56637" lon="2.38586">
        <ele>524</ele>
        <time>2013-07-15T14:26:29Z</time>
      </trkpt>
      <trkpt lat="42.56636" lon="2.38607">
        <ele>523</ele>
        <time>2013-07-15T14:26:43Z</time>
      </trkpt>
      <trkpt lat="42.56636" lon="2.38615">
        <ele>523</ele>
        <time>2013-07-15T14:26:48Z</time>
      </trkpt>
      <trkpt lat="42.56637" lon="2.38624">
        <ele>523</ele>
        <time>2013-07-15T14:26:54Z</time>
      </trkpt>
      <trkpt lat="42.56635" lon="2.38627">
        <ele>523</ele>
        <time>2013-07-15T14:26:56Z</time>
      </trkpt>
      <trkpt lat="42.56637" lon="2.38631">
        <ele>523</ele>
        <time>2013-07-15T14:26:58Z</time>
      </trkpt>
      <trkpt lat="42.5664" lon="2.38634">
        <ele>523</ele>
        <time>2013-07-15T14:27:00Z</time>
      </trkpt>
      <trkpt lat="42.56642" lon="2.38637">
        <ele>522</ele>
        <time>2013-07-15T14:27:02Z</time>
      </trkpt>
      <trkpt lat="42.56644" lon="2.38641">
        <ele>520</ele>
        <time>2013-07-15T14:27:04Z</time>
      </trkpt>
      <trkpt lat="42.56644" lon="2.38644">
        <ele>517</ele>
        <time>2013-07-15T14:27:07Z</time>
      </trkpt>
      <trkpt lat="42.56644" lon="2.38648">
        <ele>517</ele>
        <time>2013-07-15T14:27:09Z</time>
      </trkpt>
      <trkpt lat="42.56647" lon="2.3865">
        <ele>517</ele>
        <time>2013-07-15T14:27:11Z</time>
      </trkpt>
      <trkpt lat="42.5665" lon="2.38653">
        <ele>515</ele>
        <time>2013-07-15T14:27:13Z</time>
      </trkpt>
      <trkpt lat="42.5665" lon="2.38664">
        <ele>513</ele>
        <time>2013-07-15T14:27:19Z</time>
      </trkpt>
      <trkpt lat="42.5665" lon="2.38667">
        <ele>513</ele>
        <time>2013-07-15T14:27:21Z</time>
      </trkpt>
      <trkpt lat="42.5665" lon="2.3867">
        <ele>513</ele>
        <time>2013-07-15T14:27:23Z</time>
      </trkpt>
      <trkpt lat="42.56651" lon="2.38674">
        <ele>512</ele>
        <time>2013-07-15T14:27:25Z</time>
      </trkpt>
      <trkpt lat="42.56653" lon="2.38677">
        <ele>511</ele>
        <time>2013-07-15T14:27:27Z</time>
      </trkpt>
      <trkpt lat="42.56654" lon="2.38681">
        <ele>509</ele>
        <time>2013-07-15T14:27:30Z</time>
      </trkpt>
      <trkpt lat="42.56655" lon="2.38684">
        <ele>508</ele>
        <time>2013-07-15T14:27:32Z</time>
      </trkpt>
      <trkpt lat="42.56656" lon="2.38688">
        <ele>507</ele>
        <time>2013-07-15T14:27:35Z</time>
      </trkpt>
      <trkpt lat="42.56655" lon="2.38691">
        <ele>506</ele>
        <time>2013-07-15T14:27:37Z</time>
      </trkpt>
      <trkpt lat="42.56654" lon="2.38695">
        <ele>506</ele>
        <time>2013-07-15T14:27:40Z</time>
      </trkpt>
      <trkpt lat="42.56653" lon="2.387">
        <ele>506</ele>
        <time>2013-07-15T14:27:43Z</time>
      </trkpt>
      <trkpt lat="42.56652" lon="2.38703">
        <ele>506</ele>
        <time>2013-07-15T14:27:45Z</time>
      </trkpt>
      <trkpt lat="42.56651" lon="2.38707">
        <ele>506</ele>
        <time>2013-07-15T14:27:48Z</time>
      </trkpt>
      <trkpt lat="42.5665" lon="2.38712">
        <ele>506</ele>
        <time>2013-07-15T14:27:50Z</time>
      </trkpt>
      <trkpt lat="42.56647" lon="2.38716">
        <ele>506</ele>
        <time>2013-07-15T14:27:52Z</time>
      </trkpt>
      <trkpt lat="42.56645" lon="2.3872">
        <ele>506</ele>
        <time>2013-07-15T14:27:54Z</time>
      </trkpt>
      <trkpt lat="42.56644" lon="2.38725">
        <ele>506</ele>
        <time>2013-07-15T14:27:58Z</time>
      </trkpt>
      <trkpt lat="42.56641" lon="2.38727">
        <ele>507</ele>
        <time>2013-07-15T14:28:00Z</time>
      </trkpt>
      <trkpt lat="42.56639" lon="2.38729">
        <ele>509</ele>
        <time>2013-07-15T14:28:02Z</time>
      </trkpt>
      <trkpt lat="42.56636" lon="2.3873">
        <ele>511</ele>
        <time>2013-07-15T14:28:04Z</time>
      </trkpt>
      <trkpt lat="42.56633" lon="2.38733">
        <ele>513</ele>
        <time>2013-07-15T14:28:07Z</time>
      </trkpt>
      <trkpt lat="42.56629" lon="2.38736">
        <ele>516</ele>
        <time>2013-07-15T14:28:10Z</time>
      </trkpt>
      <trkpt lat="42.56628" lon="2.3874">
        <ele>517</ele>
        <time>2013-07-15T14:28:12Z</time>
      </trkpt>
      <trkpt lat="42.56627" lon="2.38743">
        <ele>518</ele>
        <time>2013-07-15T14:28:14Z</time>
      </trkpt>
      <trkpt lat="42.56625" lon="2.38748">
        <ele>519</ele>
        <time>2013-07-15T14:28:16Z</time>
      </trkpt>
      <trkpt lat="42.56624" lon="2.38752">
        <ele>520</ele>
        <time>2013-07-15T14:28:19Z</time>
      </trkpt>
      <trkpt lat="42.56622" lon="2.38755">
        <ele>521</ele>
        <time>2013-07-15T14:28:21Z</time>
      </trkpt>
      <trkpt lat="42.56621" lon="2.38758">
        <ele>522</ele>
        <time>2013-07-15T14:28:23Z</time>
      </trkpt>
      <trkpt lat="42.56619" lon="2.38761">
        <ele>523</ele>
        <time>2013-07-15T14:28:25Z</time>
      </trkpt>
      <trkpt lat="42.56618" lon="2.38763">
        <ele>524</ele>
        <time>2013-07-15T14:28:27Z</time>
      </trkpt>
      <trkpt lat="42.56616" lon="2.38767">
        <ele>525</ele>
        <time>2013-07-15T14:28:29Z</time>
      </trkpt>
      <trkpt lat="42.56617" lon="2.38769">
        <ele>526</ele>
        <time>2013-07-15T14:28:31Z</time>
      </trkpt>
      <trkpt lat="42.56615" lon="2.38772">
        <ele>527</ele>
        <time>2013-07-15T14:28:33Z</time>
      </trkpt>
      <trkpt lat="42.56612" lon="2.38775">
        <ele>527</ele>
        <time>2013-07-15T14:28:35Z</time>
      </trkpt>
      <trkpt lat="42.5661" lon="2.38778">
        <ele>528</ele>
        <time>2013-07-15T14:28:37Z</time>
      </trkpt>
      <trkpt lat="42.56607" lon="2.38782">
        <ele>530</ele>
        <time>2013-07-15T14:28:40Z</time>
      </trkpt>
      <trkpt lat="42.56605" lon="2.38784">
        <ele>531</ele>
        <time>2013-07-15T14:28:42Z</time>
      </trkpt>
      <trkpt lat="42.56604" lon="2.38787">
        <ele>532</ele>
        <time>2013-07-15T14:28:44Z</time>
      </trkpt>
      <trkpt lat="42.56603" lon="2.38789">
        <ele>533</ele>
        <time>2013-07-15T14:28:46Z</time>
      </trkpt>
      <trkpt lat="42.56601" lon="2.3879">
        <ele>534</ele>
        <time>2013-07-15T14:28:48Z</time>
      </trkpt>
      <trkpt lat="42.56601" lon="2.3879">
        <ele>534</ele>
        <time>2013-07-15T14:28:49Z</time>
      </trkpt>
    </trkseg>
  </trk>
</gpx>